     2.10           OBSERVATION DATA    G (GPS)             RINEX VERSION / TYPE
teqc 2005Sep1 20060522 13:41:33UTC                          PGM / RUN BY / DATE
MSXP|IAx86-PII|bcc32 5.0|MSWin95->XP|486/DX+                COMMENT
JPS2RIN 1.40 RUN BY 22-MAY-06 15:15                         COMMENT
build Feb 6 2004 (c) Javad Navigation Systems               COMMENT
Use -p (profile) switch to override ANTENNA TYPE and DELTA  COMMENT
and other fields                                            COMMENT
YLT010511a.jps                                              COMMENT
SE TPS 00000000                                             COMMENT
YLT010511a_3541                                             MARKER NAME
OBSERVER AGENCY                                             OBSERVER / AGENCY
MT311233541 TPS LEGACY 2.3 Apr,28,2004 p4                   REC # / TYPE / VERS
YLT010511a -Unknown-                                        ANT # / TYPE
   387274.6919  -738627.8717  6302224.9347                  APPROX POSITION XYZ
        0.0000        0.0000        0.0000                  ANTENNA: DELTA H/E/N
     1     1                                                WAVELENGTH FACT L1/2
     7    C1    P1    P2    L1    L2    D1    D2            # / TYPES OF OBSERV
    30.0000                                                 INTERVAL
Forced Modulo Decimation to 30 seconds                      COMMENT
teqc windowed: start @ 2006 May 11 12:57:00.000             COMMENT
  2006     5    11    12    57    0.0000000     GPS         TIME OF FIRST OBS
                                                            END OF HEADER
 06  5 11 12 57  0.0000000  0 10G 2G 4G 5G 6G13G20G23G24G25G30
  20517731.527                                   107821407.046 8
       758.327
  21149478.365                                   111141265.690 8
     -1953.780
  23764658.182                                   124884117.217 6
     -3541.396
  22690876.999                                   119241367.195 6
      2858.386
  21898390.535                                   115076821.004 7
      2544.411
  23868426.086                                   125429434.071 6
     -3681.649
  21221634.837                                   111520443.483 8
       139.838
  23326946.958                                   122583934.992 6
     -3357.920
  22318312.348                                   117283522.569 7
     -1066.458
  21796288.516                                   114540273.318 7
     -2013.976
 06  5 11 12 57 30.0000000  0 10G 2G 4G 5G 6G13G20G23G24G25G30
  21113016.440    21113016.1714   21113015.6704  110949649.162 8  86454287.83746
       743.322         579.222
  21760232.180    21760232.4324   21760234.1834  114350800.109 8  89104529.69045
     -1964.374       -1530.678
  24384449.941    24384449.5714   24384452.2644  128141143.336 6  99850259.88142
     -3543.011       -2760.799
  23274146.150    23274145.8764   23274147.3614  122306467.627 6  95303750.39843
      2852.895        2223.058
  22483467.433    22483468.0264   22483468.8854  118151420.851 7  92066055.28144
      2533.750        1974.351
  24489012.659    24489013.3104   24489015.8454  128690644.411 5 100278435.27642
     -3681.956       -2869.025
  21820451.561    21820451.3294   21820449.8634  114667247.731 7  89351116.01545
       124.293          96.851
  23945689.818    23945688.4804   23945692.6054  125835447.850 6  98053609.02342
     -3359.042       -2617.428
  22924004.153    22924004.0544   22924005.5144  120466454.198 7  93869978.40144
     -1078.072        -840.044
  22407390.737    22407390.9164   22407391.8114  117751637.328 7  91754534.67944
     -2026.159       -1578.826
 06  5 11 12 58  0.0000000  0 10G 2G 4G 5G 6G13G20G23G24G25G30
  21108836.444    21108836.2014   21108835.5174  110927682.408 8  86437170.68646
       721.232         562.006
  21771497.223    21771497.2204   21771498.9064  114409996.660 7  89150656.81145
     -1981.907       -1544.340
  24404699.782    24404699.1774   24404701.9154  128247558.757 6  99933180.96942
     -3551.228       -2767.212
  23257894.589    23257893.9834   23257896.1794  122221066.248 6  95237203.85643
      2840.604        2213.491
  22469053.645    22469053.9414   22469054.8084  118075673.736 7  92007031.54944
      2516.167        1960.663
  24510053.259    24510053.6484   24510055.0584  128801208.537 5 100364589.06542
     -3688.914       -2874.520
  21819806.428    21819806.1974   21819804.8244  114663857.239 7  89348474.07045
       101.883          79.404
  23964888.952    23964887.6704   23964892.1914  125936339.554 6  98132225.96142
     -3366.881       -2623.573
  22930211.622    22930211.5754   22930212.9874  120499075.512 7  93895397.58444
     -1096.475        -854.383
  22419012.346    22419012.4084   22419013.9804  117812709.902 7  91802123.64744
     -2045.204       -1593.677
 06  5 11 12 58 30.0000000  0 10G 2G 4G 5G 6G13G20G23G24G25G30
  21104780.427    21104780.3584   21104779.7234  110906368.290 8  86420562.20246
       699.230         544.839
  21782860.028    21782860.1694   21782861.6954  114469708.674 7  89197185.64545
     -1999.275       -1557.874
  24424994.692    24424995.9064   24424997.7614  128354211.948 5 100016287.25942
     -3559.507       -2773.629
  23241712.181    23241712.6104   23241714.4104  122136030.041 6  95170941.89743
      2828.083        2203.726
  22454738.565    22454738.6724   22454739.6614  118000446.378 7  91948412.85844
      2498.640        1947.003
  24531131.619    24531131.1544   24531133.4574  128911975.548 5 100450900.98141
     -3695.851       -2879.908
  21819287.613    21819287.5424   21819285.7984  114661131.142 8  89346349.80845
        79.546          61.993
  23984130.448    23984130.7424   23984134.5924  126037459.657 6  98211020.87042
     -3374.712       -2629.633
  22936523.030    22936523.2864   22936524.5034  120532242.131 7  93921241.70944
     -1114.912        -868.739
  22430741.079    22430741.0914   22430742.2394  117874343.555 7  91850149.80644
     -2064.138       -1608.418
 06  5 11 12 59  0.0000000  0 10G 2G 4G 5G 6G13G20G23G24G25G30
  21100845.036    21100844.8324   21100844.2524  110885687.329 8  86404447.14446
       679.316         529.348
  21794316.594    21794316.6694   21794318.2664  114529913.620 7  89244098.49545
     -2014.532       -1569.771
  24445331.551    24445332.2124   24445332.2454  128461080.030 6 100099561.04242
     -3565.394       -2778.188
  23225596.584    23225596.6594   23225598.3844  122051340.955 6  95104950.42643
      2817.655        2195.576
  22440518.771    22440518.9254   22440519.8024  117925720.595 7  91890184.95044
      2482.923        1934.759
  24552244.122    24552244.2544   24552245.8514  129022922.240 6 100537352.90342
     -3700.746       -2883.692
  21818891.699    21818891.2054   21818889.8104  114659049.344 8  89344727.62745
        59.165          46.115
  24003411.905    24003412.4654   24003416.0854  126138785.307 6  98289975.80642
     -3380.424       -2634.100
  22942934.035    22942934.4304   22942935.5584  120565932.541 7  93947493.98944
     -1131.211        -881.465
  22442571.884    22442572.5864   22442572.7634  117936516.046 7  91898595.89244
     -2080.901       -1621.492
 06  5 11 12 59 30.0000000  0 10G 2G 4G 5G 6G13G20G23G24G25G30
  21097023.761    21097023.4884   21097022.9934  110865605.659 8  86388799.13246
       658.477         513.090
  21805860.377    21805860.4524   21805862.1654  114590575.275 7  89291367.23945
     -2030.636       -1582.299
  24465701.349    24465702.0154   24465704.3574  128568125.586 5 100182973.09542
     -3571.935       -2783.331
  23209540.753    23209541.0614   23209542.9274  121966966.836 6  95039204.36243
      2806.281        2186.683
  22426388.197    22426388.2534   22426389.6964  117851464.637 7  91832323.16944
      2466.399        1921.877
  24573383.969    24573384.4954   24573386.8514  129134011.779 6 100623916.07042
     -3706.238       -2887.985
  21818611.570    21818611.2534   21818609.7734  114657577.431 8  89343580.67045
        37.957          29.576
  24022726.807    24022727.1774   24022729.9924  126240279.990 6  98369062.26742
     -3386.865       -2639.120
  22949437.925    22949438.0414   22949439.4704  120600110.978 7  93974126.53744
     -1148.281        -894.789
  22454498.465    22454498.9464   22454499.6504  117999190.472 7  91947433.08244
     -2098.384       -1635.097
 06  5 11 13  0  0.0000000  0 10G 2G 4G 5G 6G13G20G23G24G25G30
  21093318.043    21093317.9094   21093317.3484  110846132.954 8  86373625.55846
       638.305         497.366
  21817492.136    21817492.4964   21817493.6914  114651701.229 7  89338997.78945
     -2045.933       -1594.244
  24486107.389    24486106.5824   24486108.6154  128675355.152 5 100266528.52242
     -3577.984       -2788.049
  23193547.332    23193547.6044   23193548.5164  121882919.273 6  94973712.82143
      2795.592        2178.368
  22412349.346    22412349.5684   22412350.2724  117777690.226 7  91774836.66944
      2450.426        1909.420
  24594551.892    24594551.9914   24594553.1314  129245250.946 5 100710595.89541
     -3711.185       -2891.857
  21818449.570    21818448.8714   21818447.4304  114656724.885 8  89342916.39845
        17.460          13.604
  24042073.897    24042073.8054   24042077.2164  126341951.855 6  98448287.14042
     -3392.709       -2643.669
  22956036.460    22956036.3764   22956037.9594  120634785.628 7  94001145.73244
     -1164.586        -907.461
  22466522.085    22466522.2124   22466523.5794  118062373.972 7  91996667.00544
     -2115.072       -1648.100
 06  5 11 13  0 30.0000000  0 10G 2G 4G 5G 6G13G20G23G24G25G30
  21089727.946    21089727.6704   21089727.0444  110827265.953 8  86358924.02646
       617.984         481.538
  21829211.017    21829211.2384   21829212.9484  114713284.848 7  89386985.00945
     -2061.242       -1606.165
  24506546.400    24506545.8424   24506546.7714  128782761.241 5 100350221.51842
     -3583.858       -2792.653
  23177615.428    23177615.4224   23177616.9014  121799195.741 6  94908473.72243
      2784.539        2169.769
  22398401.338    22398401.9284   22398402.7364  117704394.798 7  91717723.36544
      2434.293        1896.831
  24615747.728    24615746.2854   24615749.0584  129356632.423 6 100797386.57542
     -3715.913       -2895.499
  21818403.977    21818403.6294   21818402.0824  114656486.921 8  89342731.01945
        -3.184          -2.490
  24061453.237    24061453.8514   24061456.9994  126443793.406 6  98527644.42742
     -3398.435       -2648.163
  22962728.298    22962727.9654   22962729.8124  120669950.623 7  94028547.02644
     -1181.098        -920.330
  22478640.930    22478641.0654   22478642.4174  118126059.249 7  92046291.88844
     -2131.958       -1661.271
 06  5 11 13  1  0.0000000  0 10G 2G 4G 5G 6G13G20G23G24G25G30
  21086258.051    21086257.8614   21086257.2034  110809031.833 8  86344715.69746
       597.002         465.189
  21841022.151    21841022.4224   21841023.6744  114775350.800 7  89435348.01745
     -2077.090       -1618.512
  24527022.606    24527022.1484   24527025.4544  128890367.865 5 100434070.69641
     -3590.381       -2797.797
  23161750.126    23161750.5484   23161751.8254  121715825.712 6  94843510.06243
      2772.858        2160.632
  22384550.535    22384551.0794   22384551.5814  117631607.929 7  91661006.33444
      2417.567        1883.822
  24636974.217    24636973.7264   24636976.9434  129468180.537 6 100884307.07642
     -3721.141       -2899.614
  21818480.767    21818480.3834   21818478.7964  114656890.551 8  89343045.56045
       -24.347         -18.956
  24080869.738    24080870.6474   24080873.9134  126545828.811 6  98607152.73242
     -3404.480       -2652.824
  22969518.025    22969518.1574   22969519.3714  120705631.766 7  94056350.52544
     -1198.141        -933.614
  22490859.635    22490860.1584   22490861.8334  118190271.464 7  92096327.33444
     -2149.390       -1674.840
 06  5 11 13  1 30.0000000  0 10G 2G 4G 5G 6G13G20G23G24G25G30
  21082908.954    21082908.5544   21082907.8984  110791432.540 8  86331002.12546
       575.535         448.439
  21852924.427    21852924.5274   21852926.3924  114837898.671 8  89484086.67245
     -2093.463       -1631.298
  24547537.399    24547537.5814   24547540.3014  128998173.580 6 100518075.07841
     -3597.481       -2803.333
  23145953.444    23145953.0354   23145954.7564  121632812.383 6  94778824.34043
      2760.620        2151.123
  22370797.272    22370797.1654   22370798.6934  117559332.893 7  91604688.13944
      2400.038        1870.142
  24658232.893    24658231.8374   24658234.1254  129579894.010 5 100971356.46141
     -3727.161       -2904.314
  21818679.966    21818679.4554   21818677.8714  114657936.611 8  89343860.72345
       -46.059         -35.902
  24100323.928    24100324.1504   24100326.9674  126648057.221 5  98686811.35342
     -3411.416       -2658.234
  22976406.267    22976406.1884   22976407.3834  120741828.791 7  94084556.00544
     -1215.637        -947.270
  22503179.267    22503179.3474   22503180.8824  118255009.088 7  92146772.22044
     -2167.226       -1688.784
 06  5 11 13  2  0.0000000  0 10G 2G 4G 5G 6G13G20G23G24G25G30
  21079683.456    21079683.3624   21079682.8194  110774483.698 8  86317795.22946
       553.969         431.656
  21864921.217    21864921.3444   21864922.6414  114900941.767 8  89533211.18945
     -2109.798       -1643.982
  24568092.343    24568091.8654   24568095.5164  129106190.780 6 100602244.26341
     -3604.192       -2808.424
  23130228.037    23130227.6954   23130230.0804  121550173.537 6  94714430.43243
      2748.245        2141.490
  22357144.517    22357144.9404   22357146.2954  117487587.663 7  91548782.81544
      2382.591        1856.580
  24679524.963    24679523.8784   24679527.6574  129691785.413 5 101058544.50641
     -3732.706       -2908.628
  21819004.020    21819003.6414   21819002.1924  114659639.964 8  89345187.90245
       -67.773         -52.800
  24119816.154    24119815.7434   24119819.1714  126750492.244 6  98766631.20042
     -3418.153       -2663.484
  22983395.301    22983395.0534   22983396.0384  120778555.936 7  94113174.55344
     -1233.139        -960.875
  22515600.688    22515601.4424   22515601.9264  118320285.358 7  92197636.84044
     -2184.908       -1702.532
 06  5 11 13  2 30.0000000  0 10G 2G 4G 5G 6G13G20G23G24G25G30
  21076579.573    21076579.3144   21076578.5934  110758172.234 8  86305085.16546
       532.816         415.184
  21877008.861    21877009.2684   21877010.7314  114964463.315 7  89582708.45045
     -2125.604       -1656.318
  24588684.677    24588683.9754   24588686.6994  129214401.757 5 100686564.13041
     -3610.438       -2813.277
  23114571.194    23114571.1024   23114573.2784  121467897.005 6  94650318.83143
      2736.219        2132.131
  22343590.530    22343590.8904   22343591.3864  117416360.342 7  91493281.05444
      2365.446        1843.231
  24700847.800    24700846.5524   24700850.8654  129803838.348 6 101145858.42641
     -3737.839       -2912.596
  21819450.929    21819450.4184   21819448.6634  114661986.607 7  89347016.41145
       -89.184         -69.485
  24139344.126    24139344.8864   24139347.3824  126853116.732 5  98846598.59742
     -3424.066       -2668.069
  22990481.628    22990482.0764   22990483.4854  120815797.443 7  94142193.92644
     -1250.124        -974.098
  22528121.873    22528122.5454   22528123.3894  118386083.202 7  92248907.85744
     -2202.156       -1715.972
 06  5 11 13  3  0.0000000  0 10G 2G 4G 5G 6G13G20G23G24G25G30
  21073599.248    21073599.1964   21073598.3644  110742511.615 8  86292882.11246
       510.764         397.991
  21889189.959    21889190.0154   21889191.7384  115028475.119 8  89632587.73845
     -2142.181       -1669.238
  24609315.549    24609315.9454   24609318.2474  129322818.350 5 100771044.56841
     -3617.668       -2818.995
  23098986.375    23098986.6224   23098988.9144  121385998.564 6  94586501.87843
      2723.251        2122.008
  22330137.505    22330138.1414   22330139.0004  117345666.411 7  91438194.89844
      2347.284        1829.070
  24722204.319    24722204.6384   24722205.1574  129916063.377 5 101233306.43441
     -3743.812       -2917.260
  21820022.235    21820021.8324   21820020.1944  114664989.851 7  89349356.51345
      -111.315         -86.729
  24158911.841    24158911.1704   24158914.5664  126955941.711 6  98926721.93442
     -3431.055       -2673.482
  22997669.079    22997668.8574   22997670.2464  120853565.433 7  94171623.53244
     -1267.959        -988.032
  22540744.342    22540744.4894   22540745.6964  118452413.835 7  92300593.99144
     -2220.237       -1730.064
 06  5 11 13  3 30.0000000  0 10G 2G 4G 5G 6G13G20G23G24G25G30
  21070745.104    21070744.8754   21070744.1604  110727512.723 8  86281194.69746
       489.636         381.546
  21901466.002    21901466.2604   21901467.6664  115092985.403 7  89682855.46345
     -2157.959       -1681.509
  24629986.740    24629986.0694   24629989.3224  129431447.122 6 100855690.23441
     -3623.764       -2823.731
  23083475.756    23083476.4014   23083477.2504  121304490.668 6  94522989.24043
      2711.124        2112.559
  22316789.112    22316789.3144   22316790.0864  117275518.806 7  91383534.45944
      2329.721        1815.391
  24743594.359    24743593.6344   24743595.1664  130028468.044 5 101320894.38241
     -3749.228       -2921.494
  21820720.579    21820720.2864   21820718.8924  114668659.761 7  89352216.07545
      -132.823        -103.481
  24178518.105    24178518.9604   24178520.6754  127058975.386 6  99007007.72042
     -3437.365       -2678.477
  23004957.817    23004957.9094   23004959.2844  120891868.872 6  94201470.35244
     -1285.073       -1001.349
  22553469.867    22553470.3834   22553471.2784  118519285.633 6  92352701.81444
     -2237.326       -1743.368
 06  5 11 13  4  0.0000000  0 10G 2G 4G 5G 6G13G20G23G24G25G30
  21068013.818    21068013.6394   21068012.9254  110713160.319 8  86270011.11446
       466.924         363.837
  21913833.164    21913833.3914   21913835.1234  115157976.028 8  89733497.39845
     -2175.047       -1694.848
  24650695.462    24650695.6324   24650697.0464  129540269.937 5 100940487.33541
     -3631.345       -2829.642
  23068036.934    23068037.2074   23068038.5484  121223359.518 6  94459770.17543
      2697.435        2101.917
  22303541.325    22303541.8504   22303542.6144  117205903.463 7  91329288.73644
      2310.893        1800.721
  24765015.179    24765012.2764   24765016.7074  130141034.107 5 101408608.10941
     -3755.593       -2926.438
  21821543.028    21821542.5054   21821540.9964  114672980.138 7  89355582.48945
      -155.593        -121.248
  24198161.219    24198161.5254   24198164.6804  127162199.722 6  99087442.12442
     -3444.669       -2684.164
  23012345.834    23012345.3804   23012346.6704  120930690.487 7  94231720.96144
     -1303.379       -1015.627
  22566294.234    22566294.3444   22566295.7534  118586679.646 7  92405216.60944
     -2255.863       -1757.836
 06  5 11 13  4 30.0000000  0  9G 2G 4G 5G 6G13G23G24G25G30
  21065411.529    21065411.3534   21065410.5904  110699485.221 8  86259355.29546
       444.740         346.536
  21926297.529    21926297.7174   21926299.2044  115223474.987 7  89784535.35945
     -2191.444       -1707.604
  24671445.889    24671444.7114   24671448.0144  129649313.606 5 101025456.54841
     -3638.139       -2834.911
  23052676.539    23052676.5234   23052678.2324  121142637.464 6  94396869.87143
      2684.125        2091.511
  22290401.704    22290401.8414   22290402.6684  117136852.893 7  91275483.10744
      2292.561        1786.420
  21822494.756    21822494.3004   21822492.7564  114677980.730 7  89359478.88245
      -177.698        -138.471
  24217846.613    24217845.7804   24217850.1884  127265642.742 6  99168046.96842
     -3451.378       -2689.391
  23019836.736    23019836.3074   23019838.5964  120970058.921 6  94262397.67044
     -1321.112       -1029.437
  22579223.583    22579224.0344   22579225.4084  118654623.485 7  92458159.73044
     -2273.760       -1771.771
 06  5 11 13  5  0.0000000  0  9G 2G 4G 5G 6G13G23G24G25G30
  21062936.633    21062936.4864   21062935.5644  110686479.033 8  86249220.56846
       422.384         329.130
  21938856.586    21938856.7814   21938858.2014  115289471.926 7  89835961.21745
     -2208.171       -1720.647
  24692236.124    24692235.7734   24692237.0564  129758567.256 5 101110589.32341
     -3645.163       -2840.359
  23037392.019    23037392.2644   23037393.1234  121062318.745 6  94334283.87743
      2670.598        2080.981
  22277368.392    22277368.7304   22277369.3514  117068361.479 7  91222113.20044
      2273.731        1771.741
  21823574.255    21823573.8544   21823572.3234  114683653.652 8  89363899.32445
      -200.286        -156.072
  24237570.170    24237569.4684   24237573.4004  127369294.220 6  99248814.29442
     -3458.510       -2694.938
  23027430.845    23027431.0184   23027432.0564  121009964.831 7  94293493.18944
     -1339.021       -1043.420
  22592255.854    22592256.2194   22592256.9104  118723106.976 7  92511523.28344
     -2291.681       -1785.712
 06  5 11 13  5 30.0000000  0  9G 2G 4G 5G 6G13G23G24G25G30
  21060587.995    21060587.8044   21060587.0564  110674136.937 8  86239603.37346
       399.784         311.517
  21951508.840    21951508.8254   21951510.8774  115355959.866 8  89887769.89745
     -2225.001       -1733.772
  24713064.560    24713063.2384   24713068.0964  129868021.576 5 101195878.33541
     -3652.138       -2845.785
  23022184.081    23022183.9134   23022185.6444  120982399.594 6  94272009.25843
      2656.811        2070.252
  22264440.656    22264440.5874   22264441.5674  117000425.557 7  91169176.19844
      2254.719        1756.927
  21824779.928    21824780.0834   21824778.5534  114689992.461 8  89368838.68645
      -222.944        -173.708
  24257333.058    24257333.0464   24257335.6044  127473145.777 6  99329737.51342
     -3465.486       -2700.371
  23035125.673    23035125.2204   23035126.8504  121050400.775 7  94325001.70944
     -1357.239       -1057.583
  22605388.855    22605389.1374   22605390.2904  118792121.808 7  92565300.97044
     -2309.822       -1799.849
 06  5 11 13  6  0.0000000  0  9G 2G 4G 5G 6G13G23G24G25G30
  21058365.544    21058365.2744   21058364.5764  110662458.027 8  86230502.96246
       377.972         294.535
  21964253.838    21964253.9034   21964255.6204  115422934.681 7  89939957.97745
     -2240.951       -1746.199
  24733931.071    24733929.5414   24733932.9364  129977672.977 5 101281320.82341
     -3658.738       -2850.902
  23007051.831    23007052.4124   23007053.8104  120902880.879 6  94210046.65043
      2643.781        2060.083
  22251618.455    22251618.8384   22251619.1584  116933045.686 7  91116672.39344
      2236.373        1742.633
  21826113.303    21826112.6614   21826111.3114  114696995.130 8  89374295.22545
      -244.715        -190.677
  24277132.805    24277132.2134   24277135.8574  127577193.942 6  99410813.95442
     -3471.929       -2705.367
  23042920.586    23042920.5284   23042922.3224  121091364.114 7  94356921.18644
     -1374.418       -1070.983
  22618622.630    22618622.8764   22618624.0174  118861664.145 6  92619489.70644
     -2327.085       -1813.289
 06  5 11 13  6 30.0000000  0  9G 2G 4G 5G 6G13G23G24G25G30
  21056271.042    21056270.6714   21056270.0034  110651450.701 8  86221925.70246
       355.582         277.090
  21977092.671    21977092.9424   21977094.4534  115490403.111 7  89992530.81345
     -2257.213       -1758.856
  24754834.947    24754834.4654   24754834.8684  130087527.154 5 101366921.32841
     -3665.417       -2856.171
  22991998.568    22991998.3394   22992000.0024  120823773.323 6  94148404.47443
      2629.892        2049.268
  22238904.439    22238904.6204   22238905.7674  116866232.781 7  91064610.40244
      2217.528        1727.933
  21827573.364    21827573.1744   21827571.7344  114704670.360 7  89380275.94445
      -267.148        -208.167
  24296970.683    24296970.7654   24296974.2374  127681445.064 6  99492048.66542
     -3478.570       -2710.554
  23050817.071    23050817.5364   23050818.9834  121132861.804 7  94389257.04644
     -1392.296       -1084.925
  22631957.566    22631957.9334   22631959.1574  118931739.918 7  92674094.04244
     -2344.919       -1827.181
 06  5 11 13  7  0.0000000  0  9G 2G 4G 5G 6G13G23G24G25G30
  21054305.174    21054304.9954   21054304.3504  110641120.307 8  86213876.06346
       333.526         259.897
  21990025.765    21990026.0104   21990027.8074  115558366.714 7  90045489.36345
     -2273.196       -1771.323
  24775778.745    24775778.0704   24775779.4994  130197585.574 5 101452681.09441
     -3671.582       -2861.031
  22977024.017    22977024.4244   22977025.6514  120745083.284 6  94087087.58843
      2616.515        2038.842
  22226299.801    22226299.6614   22226300.7444  116799993.331 7  91012995.32544
      2198.914        1713.447
  21829162.821    21829162.5214   21829160.8644  114713021.617 7  89386783.39645
      -289.099        -225.269
  24316848.176    24316848.5514   24316850.7644  127785900.995 6  99573442.91242
     -3484.782       -2715.394
  23058815.974    23058816.2024   23058817.4024  121174896.510 7  94422011.34944
     -1409.585       -1098.380
  22645394.457    22645394.6334   22645396.0664  119002350.827 7  92729115.45044
     -2362.190       -1840.623
 06  5 11 13  7 30.0000000  0  9G 2G 4G 5G 6G13G23G24G25G30
  21052465.756    21052465.7244   21052464.7134  110631454.541 8  86206344.28646
       311.417         242.662
  22003050.471    22003050.4384   22003052.1624  115626811.658 7  90098823.12145
     -2289.189       -1783.778
  24796758.426    24796758.2094   24796761.5304  130307833.271 5 101538588.47341
     -3677.751       -2865.770
  22962127.023    22962127.1474   22962128.6444  120666800.669 6  94026088.17343
      2602.910        2028.259
  22213801.682    22213801.9824   22213802.8604  116734317.362 7  90961819.33744
      2180.135        1698.788
  21830878.348    21830877.9544   21830876.3894  114722036.451 8  89393807.87745
      -311.243        -242.526
  24336761.596    24336760.8144   24336763.9154  127890547.365 6  99654985.47642
     -3490.979       -2720.278
  23066915.082    23066914.8624   23066916.1134  121217454.845 7  94455173.67544
     -1427.035       -1111.971
  22658930.625    22658930.5694   22658931.8274  119073482.655 7  92784542.83443
     -2379.387       -1854.074
 06  5 11 13  8  0.0000000  0  9G 2G 4G 5G 6G13G23G24G25G30
  21050755.541    21050755.3384   21050754.6494  110622466.053 8  86199340.12146
       287.982         224.413
  22016168.585    22016168.8884   22016170.3564  115695748.376 7  90152540.09545
     -2306.455       -1797.239
  24817775.465    24817775.5034   24817778.0804  130418279.849 5 101624650.77541
     -3685.540       -2871.928
  22947311.105    22947311.1884   22947312.5734  120588940.281 6  93965417.74843
      2587.914        2016.559
  22201413.801    22201414.1614   22201414.8674  116669219.557 7  90911093.89044
      2159.875        1683.026
  21832722.186    21832722.1084   21832720.6704  114731726.732 8  89401358.69845
      -334.495        -260.631
  24356713.409    24356713.2944   24356715.8004  127995394.527 6  99736684.56242
     -3498.783       -2726.268
  23075115.479    23075115.3704   23075116.7314  121260547.687 7  94488752.49444
     -1445.608       -1126.462
  22672567.121    22672567.7254   22672568.7334  119145144.905 7  92840383.62243
     -2398.024       -1868.568
 06  5 11 13  8 30.0000000  0  8G 2G 4G 6G13G23G24G25G30
  21049174.345    21049174.1644   21049173.4294  110614156.651 8  86192865.24846
       265.783         207.105
  22029379.879    22029380.2214   22029381.9604  115765175.194 7  90206638.91745
     -2322.326       -1809.615
  22932575.901    22932575.9474   22932577.5544  120511505.082 6  93905078.63043
      2574.072        2005.731
  22189136.570    22189136.9924   22189137.5804  116604702.752 7  90860821.13744
      2140.939        1668.245
  21834694.852    21834694.6894   21834693.2014  114742093.209 8  89409436.37645
      -356.752        -278.000
  24376703.213    24376702.9684   24376706.7264  128100440.763 6  99818538.67242
     -3504.774       -2731.004
  23083416.913    23083416.8084   23083418.3014  121304174.274 7  94522747.21544
     -1463.084       -1140.090
  22686304.558    22686305.1794   22686306.6714  119217335.675 7  92896636.00743
     -2415.126       -1881.938
 06  5 11 13  9  0.0000000  0  8G 2G 4G 6G13G23G24G25G30
  21047719.606    21047719.5234   21047718.7504  110606512.625 8  86186908.83246
       243.216         189.517
  22042681.991    22042682.1334   22042683.8154  115835076.907 7  90261107.92445
     -2338.309       -1822.062
  22917918.924    22917919.2374   22917920.3424  120434483.711 6  93845061.98243
      2559.935        1994.762
  22176967.915    22176967.8774   22176969.1234  116540755.551 7  90810992.23544
      2121.702        1653.254
  21836793.741    21836793.5224   21836791.9774  114753121.716 8  89418029.92645
      -379.023        -295.334
  24396728.861    24396727.4104   24396730.7584  128205670.525 6  99900535.73542
     -3510.865       -2735.691
  23091817.762    23091817.8114   23091818.9254  121348319.650 6  94557146.18844
     -1480.579       -1153.704
  22700139.764    22700140.4224   22700141.2064  119290039.382 7  92953288.25143
     -2432.514       -1895.453
 06  5 11 13  9 30.0000000  0  8G 2G 4G 6G13G23G24G25G30
  21046392.176    21046391.8664   21046391.2784  110599535.548 8  86181472.11346
       221.417         172.513
  22056073.709    22056073.9134   22056075.1574  115905452.166 7  90315945.83945
     -2353.866       -1834.191
  22903342.098    22903341.9254   22903343.2784  120357879.618 6  93785370.46543
      2546.591        1984.387
  22164908.411    22164908.5494   22164909.1324  116477381.669 7  90761610.08444
      2102.736        1638.493
  21839018.598    21839018.3964   21839017.0494  114764813.161 7  89427140.10045
      -400.833        -312.347
  24416787.082    24416787.7204   24416790.1584  128311083.015 6  99982675.19542
     -3516.934       -2740.538
  23100316.953    23100316.8674   23100318.4304  121392983.601 7  94591949.26144
     -1497.384       -1166.801
  22714072.350    22714072.4984   22714073.7514  119363254.817 7  93010339.26843
     -2448.920       -1908.254
 06  5 11 13 10  0.0000000  0  8G 2G 4G 6G13G23G24G25G30
  21045191.852    21045191.8094   21045190.8524  110593228.468 8  86176557.45246
       198.520         154.699
  22069555.909    22069556.0174   22069557.9994  115976301.975 7  90371153.66245
     -2370.146       -1846.875
  22888845.209    22888845.0024   22888846.5474  120281697.621 6  93726007.81143
      2531.732        1972.797
  22152958.210    22152958.9684   22152959.3774  116414585.644 7  90712678.20244
      2082.939        1623.081
  21841369.860    21841369.5014   21841368.3504  114777169.730 7  89436768.59745
      -423.613        -330.083
  24436882.157    24436880.7804   24436884.3644  128416678.904 6 100064957.60142
     -3523.500       -2745.535
  23108914.964    23108915.2064   23108916.5254  121438167.311 7  94627157.33344
     -1515.398       -1180.819
  22728101.773    22728102.3134   22728103.8124  119436981.550 7  93067788.60643
     -2466.654       -1922.061
 06  5 11 13 10 30.0000000  0  8G 2G 4G 6G13G23G24G25G30
  21044118.644    21044118.4124   21044117.7304  110587588.242 8  86172162.38246
       176.669         137.686
  22083127.046    22083127.4194   22083128.9544  116047620.467 7  90426726.54945
     -2385.237       -1858.606
  22874428.109    22874428.0494   22874429.6814  120205936.828 6  93666973.41743
      2517.994        1962.091
  22141118.394    22141118.7364   22141119.1824  116352366.016 7  90664195.37644
      2064.130        1608.425
  21843847.180    21843846.7434   21843845.3594  114790187.346 7  89446912.16145
      -445.158        -346.872
  24457009.339    24457009.9704   24457013.4004  128522452.518 6 100147378.64342
     -3528.920       -2749.789
  23117611.455    23117610.9744   23117612.4744  121483865.859 7  94662766.59544
     -1532.062       -1193.803
  22742227.828    22742228.4244   22742229.5294  119511214.215 7  93125632.17743
     -2483.047       -1934.826
 06  5 11 13 11  0.0000000  0  8G 2G 4G 6G13G23G24G25G30
  21043171.761    21043171.5984   21043170.9794  110582612.158 8  86168284.79246
       154.620         120.464
  22096786.696    22096787.1394   22096789.0754  116119402.968 7  90482661.04745
     -2400.616       -1870.601
  22860091.242    22860091.5574   22860092.8824  120130596.296 6  93608266.51543
      2504.091        1951.252
  22129388.376    22129388.1544   22129389.1284  116290722.559 7  90616161.58544
      2044.966        1593.485
  21846449.568    21846449.1504   21846448.0364  114803862.817 7  89457568.35545
      -466.951        -363.832
  24477170.732    24477170.5394   24477174.4974  128628398.258 6 100229933.65842
     -3534.565       -2754.218
  23126404.175    23126404.5194   23126405.9734  121530074.917 7  94698773.64644
     -1548.973       -1206.998
  22756449.655    22756449.9354   22756450.3614  119585946.743 6  93183865.19443
     -2499.604       -1947.701
 06  5 11 13 11 30.0000000  0  8G 2G 4G 6G13G23G24G25G30
  21042354.171    21042354.0754   21042353.3694  110578315.166 8  86164936.42346
       131.096         102.140
  22110537.505    22110537.5434   22110538.9634  116191661.319 7  90538966.24445
     -2417.323       -1883.609
  22845837.496    22845837.8614   22845839.1534  120055692.674 6  93549900.01043
      2488.597        1939.143
  22117770.354    22117770.8114   22117771.3034  116229671.523 8  90568589.39744
      2024.403        1577.472
  21849179.672    21849179.2574   21849177.8744  114818210.044 8  89468748.02145
      -490.110        -381.918
  24497366.710    24497365.6164   24497370.5664  128734529.060 5 100312632.85642
     -3541.766       -2759.863
  23135297.391    23135297.1454   23135299.0564  121576807.283 7  94735188.47144
     -1567.211       -1221.207
  22770768.587    22770768.0884   22770770.0294  119661192.037 6  93242497.75543
     -2517.607       -1961.758
 06  5 11 13 12  0.0000000  0  8G 2G 4G 6G13G23G24G25G30
  21041665.386    21041665.1834   21041664.6354  110574694.790 8  86162115.07846
       110.423          86.062
  22124377.108    22124377.3644   22124379.0864  116264391.439 7  90595639.02845
     -2431.299       -1894.522
  22831666.583    22831667.1184   22831668.5874  119981225.905 7  93491873.94643
      2476.000        1929.350
  22106265.599    22106265.5354   22106266.2114  116169212.624 7  90521478.59645
      2006.220        1563.290
  21852037.299    21852036.6754   21852035.3894  114833226.009 7  89480448.76345
      -510.814        -398.034
  24517597.866    24517596.5534   24517600.0114  128840840.674 6 100395473.07342
     -3546.015       -2763.106
  23144289.038    23144289.2854   23144290.6154  121624059.226 7  94772008.16344
     -1582.750       -1233.293
  22785183.165    22785183.5784   22785185.2164  119736944.423 7  93301525.45943
     -2532.362       -1973.256
 06  5 11 13 12 30.0000000  0  8G 2G 4G 6G13G23G24G25G30
  21041097.861    21041097.9044   21041097.2074  110571713.805 8  86159792.26346
        87.703          68.337
  22138299.539    22138299.5854   22138301.2984  116337553.340 7  90652648.48845
     -2446.861       -1906.651
  22817572.657    22817572.8274   22817573.9634  119907159.922 6  93434160.14043
      2461.198        1917.805
  22094866.388    22094866.6634   22094866.8824  116109309.876 7  90474801.15144
      1986.397        1547.813
  21855014.338    21855014.1344   21855012.7684  114848872.222 7  89492640.63745
      -533.140        -415.432
  24537854.646    24537854.8224   24537857.0204  128947292.074 5 100478422.10442
     -3551.600       -2767.420
  23153372.542    23153372.3284   23153373.5664  121671790.919 6  94809201.70444
     -1600.152       -1246.868
  22799687.374    22799688.0474   22799689.3364  119813163.441 7  93360916.71143
     -2549.419       -1986.520
 06  5 11 13 13  0.0000000  0  8G 2G 4G 6G13G23G24G25G30
  21040662.333    21040662.0524   21040661.3274  110569423.304 8  86158007.50746
        64.886          50.589
  22152312.771    22152313.4084   22152315.0584  116411195.986 7  90710032.46544
     -2462.826       -1919.085
  22803565.030    22803565.0154   22803566.4344  119833548.511 7  93376800.58243
      2446.115        1906.073
  22083583.297    22083583.4754   22083584.3464  116050017.207 8  90428599.11344
      1966.113        1532.050
  21858121.182    21858121.2764   21858119.7914  114865199.572 8  89505363.22745
      -555.688        -432.987
  24558147.047    24558148.1724   24558150.3624  129053933.447 5 100561519.32242
     -3558.118       -2772.609
  23162555.742    23162556.1954   23162557.7674  121720052.362 7  94846807.98944
     -1617.661       -1260.492
  22814289.989    22814290.2394   22814290.5394  119889898.650 6  93420710.44843
     -2566.507       -1999.871
 06  5 11 13 13 30.0000000  0  8G 2G 4G 6G13G23G24G25G30
  21040352.156    21040352.0014   21040351.2974  110567794.012 8  86156737.91746
        43.356          33.793
  22166412.302    22166412.5834   22166413.9824  116485287.872 7  90767766.47845
     -2477.168       -1930.249
  22789638.485    22789638.0724   22789640.1434  119760364.616 6  93319774.19143
      2432.374        1895.373
  22072410.790    22072411.0634   22072411.6634  115991307.081 7  90382851.00144
      1947.337        1517.423
  21861352.337    21861352.0454   21861350.3394  114882177.991 8  89518593.17645
      -576.562        -449.276
  24578471.234    24578470.7574   24578473.4794  129160732.779 5 100644739.51441
     -3562.750       -2776.260
  23171834.565    23171834.7604   23171836.2814  121768812.643 7  94884803.01444
     -1633.471       -1272.807
  22828983.972    22828984.4084   22828985.4764  119967116.972 6  93480880.46843
     -2582.021       -2011.918
 06  5 11 13 14  0.0000000  0  8G 2G 4G 6G13G23G24G25G30
  21040167.288    21040167.4774   21040166.7534  110566824.246 8  86155982.23246
        20.735          16.168
  22180595.997    22180596.5114   22180597.8594  116559824.577 7  90825846.91744
     -2492.561       -1942.253
  22775793.409    22775793.3004   22775795.5894  119687608.370 7  93263080.96043
      2417.506        1883.777
  22061349.622    22061349.8964   22061350.1484  115933179.660 7  90337557.00045
      1927.234        1501.747
  21864706.476    21864706.2944   21864704.6614  114899804.781 7  89532328.35445
      -599.002        -466.756
  24598823.370    24598823.2084   24598825.8874  129267686.092 5 100728079.55641
     -3568.236       -2780.440
  23181207.914    23181207.9474   23181208.9174  121818068.257 7  94923184.00644
     -1650.768       -1286.308
  22843768.890    22843770.1274   22843770.8404  120044814.715 6  93541424.07943
     -2598.502       -2024.784
 06  5 11 13 14 30.0000000  0  9G 2G 4G 6G10G13G23G24G25G30
  21040113.178    21040113.0674   21040112.1994  110566538.526 8  86155759.67846
        -1.863          -1.462
  22194869.386    22194868.9134   22194870.6924  116634828.743 7  90884291.67244
     -2507.718       -1954.059
  22762034.714    22762034.3184   22762036.3214  119615305.767 7  93206741.22344
      2402.535        1872.113
  24567266.956    24567265.8674   24567268.1434  129101918.597 5 100598869.55941
      4021.180        3133.371
  22050403.852    22050404.2914   22050404.8814  115875660.974 7  90292737.31345
      1907.295        1486.199
  21868188.705    21868188.5754   21868187.0684  114918103.592 7  89546587.16145
      -621.029        -483.921
  24619209.757    24619208.4004   24619213.0934  129374815.834 5 100811557.21042
     -3573.591       -2784.627
  23190679.354    23190679.5354   23190680.8324  121867841.875 6  94961968.63844
     -1667.648       -1299.423
  22858650.164    22858650.4784   22858652.4334  120123013.247 6  93602357.94343
     -2614.856       -2037.549
 06  5 11 13 15  0.0000000  0  9G 2G 4G 6G10G13G23G24G25G30
  21040185.594    21040185.4774   21040184.7174  110566920.101 8  86156057.19146
       -23.805         -18.558
  22209227.343    22209227.4914   22209229.0384  116710281.339 7  90943085.75344
     -2522.443       -1965.546
  22748358.858    22748359.2194   22748361.1524  119543442.724 7  93150744.03044
      2388.170        1860.927
  24544325.387    24544326.2034   24544326.7594  128981361.526 5 100504928.91841
      4015.973        3129.319
  22039571.656    22039572.1554   22039572.6734  115818736.355 7  90248380.48144
      1887.604        1470.871
  21871795.375    21871795.2044   21871793.6844  114937057.247 8  89561356.23445
      -642.610        -500.724
  24639625.163    24639626.1654   24639628.8094  129482102.918 5 100895157.42242
     -3578.770       -2788.626
  23200246.006    23200246.0444   23200246.8424  121918115.051 7  95001142.54043
     -1684.000       -1312.219
  22873622.707    22873622.6114   22873624.2964  120201693.773 6  93663667.58043
     -2630.711       -2049.916
 06  5 11 13 15 30.0000000  0  9G 2G 4G 6G10G13G23G24G25G30
  21040385.205    21040385.3104   21040384.5634  110567970.429 8  86156875.67946
       -46.412         -36.172
  22223670.719    22223670.8074   22223672.4914  116786181.990 7  91002229.08544
     -2537.632       -1977.375
  22734768.653    22734768.7984   22734770.4994  119472022.891 7  93095092.21744
      2373.005        1849.070
  24521414.731    24521414.1804   24521416.8934  128860965.993 5 100411114.12541
      4010.213        3124.780
  22028852.975    22028853.1734   22028853.7984  115762409.503 7  90204489.42145
      1867.394        1455.125
  21875526.813    21875526.7964   21875525.2494  114956666.571 7  89576636.23245
      -664.696        -517.940
  24660071.180    24660071.5284   24660074.5304  129589546.412 5 100978879.41242
     -3584.184       -2792.776
  23209907.664    23209907.8234   23209909.0594  121968887.674 7  95040705.62544
     -1700.994       -1325.444
  22888686.194    22888686.8844   22888687.6494  120280854.394 6  93725351.12943
     -2646.996       -2062.588
 06  5 11 13 16  0.0000000  0  9G 2G 4G 6G10G13G23G24G25G30
  21040712.121    21040712.0954   21040711.1984  110569686.917 8  86158213.08046
       -68.479         -53.348
  22238198.548    22238198.8194   22238200.5664  116862525.781 7  91061717.66144
     -2552.463       -1988.933
  22721262.575    22721262.7554   22721263.7214  119401046.105 6  93039785.59044
      2358.380        1837.721
  24498536.047    24498535.6924   24498539.9424  128740732.886 5 100317425.96241
      4004.688        3120.561
  22018248.170    22018248.4724   22018248.7354  115706679.987 7  90161063.76945
      1847.362        1439.501
  21879382.571    21879382.6044   21879381.0084  114976928.542 7  89592424.82445
      -686.524        -534.947
  24680546.543    24680545.8364   24680550.0134  129697142.083 5 101062719.89041
     -3589.366       -2796.923
  23219663.672    23219664.0634   23219664.8494  122020156.028 6  95080654.96844
     -1717.353       -1338.197
  22903840.250    22903840.8294   22903841.8464  120360490.508 6  93787405.18643
     -2662.604       -2074.759
 06  5 11 13 16 30.0000000  0  9G 2G 4G 6G10G13G23G24G25G30
  21041166.332    21041166.3114   21041165.5824  110572073.761 8  86160072.92146
       -90.871         -70.782
  22252811.001    22252811.1474   22252812.6914  116939314.588 7  91121553.03144
     -2567.244       -2000.432
  22707841.378    22707841.2044   22707843.0994  119330518.176 7  92984828.71644
      2343.186        1825.869
  24475688.478    24475686.5844   24475690.2194  128620667.833 5 100223868.67341
      3998.902        3115.970
  22007757.789    22007758.1194   22007758.7004  115651553.591 7  90118108.14345
      1827.217        1423.812
  21883363.038    21883362.7734   21883361.0674  114997845.476 8  89608723.78845
      -708.420        -552.011
  24701050.816    24701050.8094   24701054.2264  129804891.765 5 101146680.49041
     -3594.544       -2800.971
  23229514.557    23229514.7954   23229516.2684  122071922.013 7  95120992.09844
     -1734.125       -1351.280
  22919085.153    22919085.5424   22919086.3974  120440603.323 6  93849830.69843
     -2678.632       -2087.258
 06  5 11 13 17  0.0000000  0  9G 2G 4G 6G10G13G23G24G25G30
  21041749.525    21041749.3944   21041748.6734  110575137.504 8  86162460.15846
      -113.280         -88.265
  22267508.577    22267509.2794   22267510.4284  117016552.718 7  91181738.57144
     -2582.133       -2012.037
  22694506.973    22694507.5224   22694509.5114  119260447.341 7  92930227.95744
      2328.134        1814.158
  24452874.536    24452871.8924   24452877.5954  128500780.596 5 100130449.89841
      3993.040        3111.388
  21997383.913    21997384.2894   21997384.8584  115597038.817 7  90075629.14245
      1806.841        1407.922
  21887469.311    21887468.9034   21887467.2664  115019424.039 7  89625538.28145
      -730.323        -569.070
  24721585.382    24721586.4864   24721589.9294  129912799.837 5 101230764.48341
     -3599.903       -2805.100
  23239461.226    23239460.6874   23239462.4664  122124190.532 6  95161720.78343
     -1750.655       -1364.141
  22934421.947    22934422.2804   22934423.1074  120521196.721 6  93912630.74643
     -2694.400       -2099.549
 06  5 11 13 17 30.0000000  0  9G 2G 4G 6G10G13G23G24G25G30
  21042463.303    21042463.1084   21042462.2674  110578887.939 8  86165382.59746
      -136.526        -106.368
  22282293.278    22282293.9054   22282296.1564  117094247.492 7  91242279.86444
     -2597.383       -2023.914
  22681262.540    22681262.8274   22681264.8874  119190845.976 7  92875993.03744
      2312.129        1801.705
  24430097.573    24430096.7324   24430099.6284  128381083.306 5 100037179.10141
      3986.792        3106.583
  21987128.656    21987128.9184   21987129.3864  115543147.285 8  90033635.78145
      1786.014        1391.701
  21891702.968    21891702.7424   21891701.1384  115041672.579 7  89642874.82345
      -752.782        -586.590
  24742151.006    24742151.2204   24742153.8564  130020873.700 5 101314977.58641
     -3604.973       -2808.995
  23249504.200    23249504.4434   23249506.3924  122176969.646 6  95202847.35943
     -1767.791       -1377.479
  22949850.863    22949851.9424   22949853.1134  120602277.351 6  93975810.31843
     -2710.772       -2112.244
 06  5 11 13 18  0.0000000  0 10G 2G 4G 6G10G13G16G23G24G25G30
  21043304.336    21043304.2364   21043303.3984  110583308.581 8  86168827.29646
      -157.823        -122.969
  22297161.741    22297162.4544   22297163.7004  117172380.818 7  91303162.95844
     -2611.053       -2034.589
  22668104.488    22668104.7914   22668106.5034  119121700.048 7  92822113.04244
      2297.882        1790.565
  24407353.524    24407351.9984   24407355.3394  128261562.612 5  99944045.94841
      3981.852        3102.742
  21976989.226    21976989.6704   21976989.9854  115489864.656 7  89992116.86745
      1766.624        1376.600
  24785455.691    24785454.7244   24785458.9854  130248458.320 5 101492314.72841
      3503.819        2730.238
  21896060.863    21896060.7664   21896059.1694  115064574.324 7  89660720.34645
      -773.559        -602.766
  24762745.244    24762745.5474   24762748.9744  130129095.948 5 101399306.62441
     -3608.946       -2812.118
  23259641.688    23259642.1274   23259643.2404  122230241.523 7  95244357.89943
     -1783.269       -1389.552
  22965369.666    22965370.3174   22965371.1754  120683827.227 6  94039355.61443
     -2725.472       -2123.723
 06  5 11 13 18 30.0000000  0 10G 2G 4G 6G10G13G16G23G24G25G30
  21044269.954    21044269.9524   21044269.1414  110588382.180 8  86172780.62646
      -180.829        -140.885
  22312110.389    22312110.3044   22312112.0874  117250933.592 7  91364372.88044
     -2626.132       -2046.319
  22655030.575    22655030.3804   22655032.9304  119052994.666 7  92768576.34144
      2281.976        1778.183
  24384639.408    24384638.6364   24384643.7184  128142204.110 5  99851039.16041
      3975.234        3097.613
  21966963.031    21966963.3524   21966963.6594  115437175.779 8  89951060.61445
      1745.634        1360.234
  24765477.252    24765477.4474   24765478.9254  130143468.512 5 101410504.49541
      3495.167        2723.502
  21900539.988    21900539.8964   21900538.0724  115088111.602 8  89679061.12745
      -795.912        -620.177
  24783363.050    24783362.9824   24783367.4274  130237447.121 5 101483736.18041
     -3614.214       -2816.271
  23269869.383    23269869.7984   23269870.8424  122283987.448 7  95286237.81043
     -1800.189       -1402.727
  22980973.706    22980973.9134   22980976.0354  120765826.563 6  94103251.19343
     -2741.544       -2136.262
 06  5 11 13 19  0.0000000  0 10G 2G 4G 6G10G13G16G23G24G25G30
  21045362.047    21045361.8184   21045361.2004  110594121.707 8  86177253.22946
      -202.296        -157.636
  22327140.131    22327140.3224   22327141.7184  117329915.400 7  91425917.08044
     -2639.746       -2056.944
  22642043.111    22642042.8104   22642044.7594  118984743.916 7  92715393.93844
      2267.561        1766.936
  24361959.926    24361959.3064   24361963.5434  128023022.722 5  99758170.43541
      3969.795        3093.351
  21957052.389    21957052.5664   21957052.9144  115385094.752 8  89910478.00545
      1725.961        1344.915
  24745544.557    24745545.6194   24745546.7474  130038723.937 5 101328885.40041
      3487.399        2717.402
  21905142.324    21905141.9124   21905140.2104  115112295.381 8  89697905.58645
      -816.734        -636.406
  24804008.756    24804008.0384   24804011.3424  130345936.847 5 101568273.49241
     -3618.592       -2819.674
  23280188.009    23280188.9864   23280190.7704  122338217.882 6  95328495.26843
     -1815.735       -1414.863
  22996665.010    22996665.0794   22996665.9574  120848284.666 6  94167504.31243
     -2756.119       -2147.662
 06  5 11 13 19 30.0000000  0 10G 2G 4G 6G10G13G16G23G24G25G30
  21046581.122    21046580.9764   21046580.2744  110600529.434 8  86182246.51946
      -224.692        -175.092
  22342251.828    22342251.8894   22342253.3394  117409327.217 7  91487796.38844
     -2654.112       -2068.132
  22629143.274    22629142.5914   22629144.4164  118916952.814 6  92662569.60644
      2252.036        1754.814
  24339316.037    24339315.4304   24339317.4734  127904024.067 5  99665444.02141
      3963.706        3088.588
  21947258.086    21947258.6854   21947258.8644  115333626.572 7  89870372.93445
      1705.437        1328.926
  24725660.851    24725661.4644   24725662.1544  129934230.244 5 101247461.74941
      3479.052        2710.975
  21909867.700    21909867.3394   21909865.7434  115137128.419 7  89717256.00245
      -838.530        -653.411
  24824680.240    24824679.2694   24824683.0564  130454565.860 5 101652919.07741
     -3623.085       -2823.096
  23290601.228    23290601.5324   23290602.6224  122392934.133 7  95371131.25843
     -1832.009       -1427.549
  23012442.975    23012443.0704   23012445.6644  120931201.333 6  94232114.66343
     -2771.451       -2159.591
 06  5 11 13 20  0.0000000  0 10G 2G 4G 6G10G13G16G23G24G25G30
  21047926.892    21047926.6994   21047925.9124  110607601.003 8  86187756.79246
      -247.163        -192.602
  22357443.689    22357444.0434   22357445.9194  117489162.912 7  91550005.94244
     -2668.553       -2079.398
  22616329.946    22616329.9054   22616331.7254  118849619.839 7  92610102.44344
      2236.402        1742.665
  24316705.870    24316705.8914   24316707.7834  127785206.905 5  99572858.96741
      3957.304        3083.634
  21937580.536    21937580.7854   21937581.4754  115282769.123 7  89830743.75245
      1684.648        1312.694
  24705822.864    24705824.2774   24705825.4584  129829986.430 5 101166232.81441
      3470.306        2704.114
  21914715.913    21914715.6204   21914713.9594  115162604.424 7  89737107.22245
      -860.365        -670.430
  24845376.044    24845378.6204   24845381.7524  130563328.746 5 101737669.07641
     -3627.880       -2826.881
  23301105.081    23301105.2734   23301106.4104  122448130.691 6  95414141.51243
     -1848.323       -1440.247
  23028307.703    23028308.7544   23028310.1744  121014570.961 6  94297078.02243
     -2786.745       -2171.481
 06  5 11 13 20 30.0000000  0 10G 2G 4G 6G10G13G16G23G24G25G30
  21049399.791    21049399.5674   21049398.6964  110615341.342 8  86193788.35046
      -269.423        -209.950
  22372717.119    22372717.4794   22372718.8164  117569425.059 6  91612547.85444
     -2682.769       -2090.472
  22603604.738    22603605.0774   22603606.6464  118782751.519 7  92557997.26444
      2220.881        1730.527
  24294132.422    24294131.3314   24294133.6734  127666578.777 5  99480421.38541
      3950.865        3078.517
  21928020.210    21928020.3734   21928020.7264  115232528.722 8  89791595.37245
      1664.080        1296.673
  24686035.325    24686035.7374   24686037.9764  129725999.895 5 101085204.33041
      3461.651        2697.400
  21919686.907    21919686.9724   21919685.1044  115188728.691 8  89757463.73045
      -881.871        -687.185
  24866100.818    24866100.5694   24866103.4424  130672228.379 5 101822525.89841
     -3632.426       -2830.438
  23311700.529    23311700.5994   23311701.9854  122503810.249 6  95457528.13243
     -1864.261       -1452.674
  23044259.438    23044259.2904   23044261.2684  121098395.060 6  94362395.61943
     -2801.890       -2183.309
 06  5 11 13 21  0.0000000  0 10G 2G 4G 6G10G13G16G23G24G25G30
  21051000.153    21051000.2654   21050999.3394  110623752.410 8  86200342.31546
      -292.631        -228.044
  22388071.753    22388072.2064   22388073.9594  117650114.020 7  91675422.37944
     -2697.666       -2102.084
  22590969.552    22590969.8824   22590971.6674  118716352.602 7  92506257.86544
      2204.305        1717.608
  24271594.106    24271593.9004   24271597.5654  127548145.680 5  99388136.17041
      3943.695        3073.037
  21918577.921    21918578.1154   21918578.6404  115182909.912 7  89752931.42345
      1642.622        1279.951
  24666297.621    24666296.1054   24666298.2324  129622276.384 5 101004380.85941
      3452.189        2689.999
  21924781.609    21924781.7564   21924780.2304  115215502.275 7  89778326.18145
      -904.218        -704.567
  24886849.319    24886848.3744   24886853.1624  130781265.071 5 101907489.50841
     -3637.651       -2834.449
  23322387.514    23322388.0964   23322389.5334  122559973.752 7  95501291.86343
     -1881.176       -1465.838
  23060296.572    23060297.0554   23060297.9914  121182673.173 6  94428066.86543
     -2817.840       -2195.696
 06  5 11 13 21 30.0000000  0 10G 2G 4G 6G10G13G16G23G24G25G30
  21052732.745    21052732.5454   21052731.6924  110632856.321 8  86207436.36946
      -314.235        -244.843
  22403510.836    22403511.4224   22403512.5684  117731249.115 7  91738644.51444
     -2711.165       -2112.591
  22578428.401    22578428.4234   22578429.9734  118650446.995 7  92454902.97944
      2189.414        1706.025
  24249098.867    24249098.0164   24249101.3784  127429930.985 5  99296021.04341
      3937.402        3068.090
  21909258.452    21909258.6754   21909259.0564  115133936.191 7  89714770.10645
      1622.511        1264.301
  24646614.680    24646613.1604   24646616.8854  129518840.154 5 100923781.26141
      3444.000        2683.665
  21930004.392    21930004.1384   21930002.9254  115242945.981 7  89799710.74545
      -925.081        -720.838
  24907627.695    24907627.5294   24907633.0074  130890458.114 5 101992574.84441
     -3641.627       -2837.664
  23333171.015    23333171.4654   23333172.8334  122616641.192 6  95545448.24243
     -1896.421       -1477.722
  23076424.836    23076424.6564   23076426.6524  121267425.006 6  94494107.26243
     -2832.229       -2206.924
 06  5 11 13 22  0.0000000  0 10G 2G 4G 6G10G13G16G23G24G25G30
  21054587.807    21054587.7784   21054587.0504  110642605.641 8  86215033.25546
      -336.857        -262.502
  22419026.887    22419027.4244   22419028.4874  117812781.628 7  91802176.32344
     -2725.477       -2123.745
  22565972.186    22565972.1604   22565974.3414  118584990.009 7  92403897.58344
      2173.238        1693.414
  24226636.832    24226634.4154   24226638.9554  127311890.879 6  99204041.78141
      3930.662        3062.726
  21900053.233    21900053.3304   21900053.7114  115085562.579 7  89677076.38945
      1601.309        1247.753
  24626977.357    24626976.9714   24626979.2994  129415647.203 5 100843371.21941
      3434.478        2676.220
  21935345.156    21935344.7834   21935343.6384  115271012.472 7  89821580.74345
      -947.005        -737.926
  24928427.076    24928426.4934   24928433.6424  130999759.885 5 102077745.15041
     -3646.270       -2841.235
  23344041.231    23344041.5834   23344042.9894  122673764.107 6  95589959.51843
     -1912.816       -1490.522
  23092632.993    23092633.3304   23092634.9374  121352600.343 6  94560477.46843
     -2847.371       -2218.731
 06  5 11 13 22 30.0000000  0 10G 2G 4G 6G10G13G16G23G24G25G30
  21056574.042    21056573.8594   21056572.9504  110653042.433 8  86223165.74746
      -358.660        -279.457
  22434624.737    22434624.7444   22434627.0574  117894751.663 7  91866049.05444
     -2738.931       -2134.206
  22553609.711    22553609.8054   22553612.0024  118520025.666 7  92353275.97944
      2157.748        1681.360
  24204216.443    24204216.7584   24204217.9194  127194070.375 6  99112233.56441
      3924.252        3057.888
  21890970.663    21890970.8344   21890971.4264  115037832.993 7  89639884.41945
      1580.837        1231.837
  24607395.254    24607395.0604   24607396.0224  129312742.783 5 100763186.01941
      3425.766        2669.447
  21940812.368    21940812.3584   21940810.7244  115299742.551 7  89843967.79545
      -968.170        -754.427
  24949254.227    24949256.2934   24949258.4524  131109209.971 5 102163031.07341
     -3650.095       -2844.172
  23355006.418    23355006.2394   23355007.5224  122731383.062 7  95634857.32843
     -1928.410       -1502.656
  23108929.239    23108929.7654   23108931.6714  121438239.070 6  94627208.70543
     -2861.801       -2229.967
 06  5 11 13 23  0.0000000  0 10G 2G 4G 6G10G13G16G23G24G25G30
  21058682.928    21058682.8324   21058681.9984  110664124.905 8  86231801.40946
      -380.448        -296.457
  22450298.488    22450298.6004   22450299.7244  117977115.239 7  91930228.46344
     -2752.267       -2144.611
  22541334.179    22541333.8034   22541336.1294  118455514.631 7  92303007.65144
      2142.578        1669.541
  24181830.153    24181828.5244   24181831.9104  127076430.479 6  99020566.08642
      3918.048        3053.054
  21882003.275    21882003.2934   21882003.7424  114990707.858 8  89603163.51845
      1560.495        1215.964
  24587859.889    24587860.9924   24587862.7904  129210088.134 5 100683195.45041
      3417.320        2662.810
  21946397.695    21946397.5234   21946396.1414  115329094.027 7  89866839.12545
      -989.043        -770.704
  24970102.848    24970102.0614   24970106.8174  131218764.214 5 102248398.18041
     -3653.801       -2847.120
  23366056.794    23366057.3664   23366058.5004  122789454.572 7  95680107.77543
     -1943.536       -1514.449
  23125305.669    23125306.8244   23125308.2294  121524297.355 6  94694266.90843
     -2875.738       -2240.810
 06  5 11 13 23 30.0000000  0 10G 2G 4G 6G10G13G16G23G24G25G30
  21060918.708    21060918.6384   21060917.8744  110675873.860 8  86240956.33246
      -403.008        -314.048
  22466049.237    22466049.7124   22466052.2294  118059891.007 7  91994729.06144
     -2766.182       -2155.498
  22529148.357    22529148.5334   22529150.8724  118391480.031 7  92253110.61844
      2126.374        1656.904
  24159482.538    24159481.8824   24159484.6474  126958994.877 6  98929057.71842
      3911.039        3047.521
  21873154.608    21873154.9824   21873155.5924  114944209.491 7  89566930.92045
      1539.353        1199.493
  24568377.569    24568377.7894   24568379.5434  129107706.981 5 100603418.07741
      3408.223        2655.740
  21952105.067    21952105.1124   21952103.4254  115359086.786 7  89890210.22645
     -1010.560        -787.497
  24990973.678    24990973.3034   24990976.4354  131328442.021 5 102333861.63241
     -3657.936       -2850.369
  23377197.371    23377197.6164   23377199.0204  122847997.835 6  95725725.79943
     -1959.396       -1526.810
  23141765.873    23141766.4194   23141767.9164  121610793.247 6  94761666.19143
     -2890.544       -2252.390
 06  5 11 13 24  0.0000000  0  9G 2G 4G 6G10G13G16G23G25G30
  21063279.883    21063279.8804   21063279.0464  110688281.561 8  86250624.63946
      -425.177        -331.299
  22481878.478    22481878.6514   22481879.5534  118143069.052 7  92059543.10444
     -2779.939       -2166.179
  22517052.633    22517052.7204   22517054.7624  118327915.881 7  92203580.09644
      2110.329        1644.431
  24137172.493    24137172.7944   24137177.3794  126841758.770 5  98837704.90042
      3903.943        3041.968
  21864424.703    21864424.9814   21864425.4014  114898332.145 8  89531182.22945
      1518.190        1183.007
  24548945.965    24548945.5334   24548949.1774  129005594.042 5 100523849.61142
      3398.605        2648.287
  21957932.796    21957932.6834   21957931.2424  115389711.224 8  89914073.28445
     -1032.068        -804.207
  23388426.486    23388425.9624   23388427.4884  122907003.449 7  95771704.14643
     -1975.155       -1539.056
  23158306.597    23158306.9884   23158309.0324  121697716.725 6  94829398.83143
     -2905.137       -2263.765
 06  5 11 13 24 30.0000000  0  9G 2G 4G 6G10G13G16G23G25G30
  21065768.233    21065768.1894   21065767.2534  110701357.328 8  86260813.52646
      -447.773        -348.903
  22497784.275    22497784.0054   22497786.8624  118226657.379 7  92124676.83344
     -2793.750       -2176.934
  22505048.523    22505048.7994   22505050.2644  118264834.620 7  92154425.94644
      2093.903        1631.615
  24114903.838    24114903.2344   24114908.6884  126724734.456 6  98746516.72842
      3896.540        3036.318
  21855814.848    21855815.0744   21855815.6534  114853087.500 8  89495926.65745
      1496.926        1166.441
  24529568.271    24529568.1294   24529569.6564  128903762.700 5 100444500.57842
      3389.080        2640.818
  21963882.706    21963882.5674   21963880.9714  115420977.239 7  89938436.34645
     -1053.531        -820.915
  23399744.003    23399744.2024   23399745.3274  122966479.627 7  95818049.13443
     -1990.991       -1551.413
  23174929.933    23174930.5544   23174931.9924  121785074.679 6  94897470.11543
     -2919.825       -2275.186
 06  5 11 13 25  0.0000000  0  9G 2G 4G 6G10G13G16G23G25G30
  21068384.117    21068384.1714   21068383.2924  110715104.857 8  86271525.87446
      -469.253        -365.662
  22513769.589    22513769.6454   22513771.1684  118310657.657 7  92190131.58044
     -2806.552       -2186.937
  22493137.750    22493137.6614   22493139.0804  118202241.809 7  92105652.29644
      2078.515        1619.609
  24092677.052    24092676.4944   24092678.9164  126607930.129 6  98655500.50642
      3890.223        3031.327
  21847326.350    21847326.6364   21847327.3834  114808481.148 8  89461168.47945
      1476.470        1150.484
  24510246.373    24510245.9694   24510246.3214  128802219.672 5 100365376.23842
      3380.362        2634.031
  21969954.769    21969954.7014   21969953.2554  115452887.643 8  89963301.64845
     -1074.162        -837.013
  23411152.306    23411151.5944   23411153.5374  123026428.410 7  95864762.40743
     -2005.887       -1563.030
  23191636.762    23191637.1834   23191639.3684  121872868.750 6  94965881.32643
     -2933.352       -2285.781
 06  5 11 13 25 30.0000000  0  9G 2G 4G 6G10G13G16G23G25G30
  21071125.272    21071125.1564   21071124.4314  110729508.621 8  86282749.60046
      -491.350        -382.882
  22529828.818    22529828.6924   22529830.5684  118395052.439 6  92255893.68444
     -2819.892       -2197.339
  22481317.324    22481317.2224   22481318.6254  118140124.713 7  92057249.35844
      2062.272        1606.964
  24070489.577    24070488.2824   24070491.5644  126491332.498 6  98564645.34742
      3882.955        3025.678
  21838957.092    21838957.5384   21838958.0194  114764500.010 7  89426897.51345
      1455.410        1134.076
  24490975.493    24490974.7824   24490976.5554  128700952.667 5 100286467.00042
      3370.793        2626.610
  21976147.016    21976146.4364   21976145.1504  115485425.727 8  89988655.99845
     -1095.204        -853.400
  23422645.954    23422647.0154   23422647.6694  123086832.978 6  95911830.78743
     -2021.315       -1575.065
  23208422.845    23208423.1924   23208423.9214  121961080.536 6  95034617.95443
     -2947.588       -2296.844
 06  5 11 13 26  0.0000000  0  9G 2G 4G 6G10G13G16G23G25G30
  21073995.290    21073995.2004   21073994.4244  110744590.548 8  86294501.67346
      -513.731        -400.319
  22545968.358    22545968.4454   22545969.6594  118479861.877 7  92321978.93244
     -2833.473       -2207.929
  22469591.938    22469591.5014   22469593.5684  118078507.325 7  92009235.77344
      2045.878        1594.188
  24048345.904    24048344.7814   24048348.5414  126374966.445 6  98473970.67242
      3875.366        3019.753
  21830711.157    21830711.5224   21830711.9674  114721167.394 7  89393131.88845
      1434.022        1117.398
  24471761.609    24471761.5504   24471763.3134  128599986.557 5 100207792.14842
      3360.947        2618.966
  21982461.983    21982461.7034   21982460.3874  115518612.862 7  90014516.11345
     -1116.581        -870.032
  23434231.957    23434231.7134   23434233.3374  123147713.641 6  95959270.19343
     -2036.799       -1587.122
  23225292.034    23225292.7404   23225294.7484  122049729.571 6  95103695.09943
     -2961.785       -2307.881
 06  5 11 13 26 30.0000000  0  9G 2G 4G 6G10G13G16G23G25G30
  21076989.831    21076989.7954   21076989.0474  110760327.257 8  86306764.02446
      -536.217        -417.840
  22562180.353    22562180.2364   22562182.6024  118565060.870 7  92388367.69844
     -2847.235       -2218.631
  22457958.154    22457957.8804   22457959.4994  118017369.013 7  91961595.46044
      2029.169        1581.200
  24026242.403    24026241.1744   24026245.8784  126258812.047 6  98383460.97242
      3867.444        3013.612
  21822584.686    21822584.8914   21822585.3944  114678461.974 8  89359854.86645
      1412.230        1100.457
  24452602.202    24452602.1424   24452604.5044  128499301.499 5 100129336.31942
      3350.621        2610.906
  21988896.441    21988896.3314   21988895.0214  115552425.066 7  90040863.22545
     -1138.252        -886.950
  23445903.254    23445903.3424   23445904.2164  123209045.860 6  96007061.39343
     -2052.705       -1599.498
  23242239.903    23242240.2524   23242241.2254  122138790.047 6  95173092.74043
     -2976.320       -2319.222
 06  5 11 13 27  0.0000000  0  9G 2G 4G 6G10G13G16G23G25G30
  21080107.793    21080107.6114   21080106.9034  110776711.016 8  86319530.53346
      -557.447        -434.363
  22578466.151    22578466.6784   22578468.1624  118650639.475 7  92455052.24044
     -2859.481       -2228.189
  22446413.602    22446414.0134   22446415.2564  117956704.086 7  91914324.05244
      2013.630        1569.089
  24004177.722    24004177.8914   24004179.5724  126142863.845 6  98293111.65342
      3860.735        3008.376
  21814576.583    21814576.7614   21814577.1944  114636378.200 7  89327062.25245
      1391.882        1084.582
  24433494.346    24433494.6704   24433496.1164  128398892.863 5 100051095.92642
      3341.786        2603.959
  21995447.952    21995447.9354   21995446.5864  115586853.728 7  90067690.78645
     -1158.403        -902.647
  23457658.301    23457658.4734   23457660.3114  123270820.081 6  96055197.02943
     -2067.136       -1610.761
  23259264.343    23259264.5304   23259265.5614  122228252.402 6  95242803.63543
     -2989.426       -2329.405
 06  5 11 13 27 30.0000000  0  9G 2G 4G 6G10G13G16G23G25G30
  21083355.035    21083354.9724   21083354.2434  110793775.157 8  86332827.08446
      -580.714        -452.487
  22594828.773    22594829.1894   22594831.1794  118736629.612 7  92522057.41744
     -2873.564       -2239.122
  22434966.798    22434966.1754   22434967.8054  117896548.889 7  91867449.92144
      1996.158        1555.433
  23982160.196    23982160.0724   23982162.9174  126027159.577 6  98202952.41742
      3852.343        3001.783
  21806693.405    21806693.7614   21806694.1434  114594952.395 8  89294782.43945
      1369.449        1067.091
  24414447.745    24414447.9534   24414448.8594  128298797.727 6  99973099.78542
      3330.989        2595.565
  22002122.862    22002122.6954   22002121.4504  115621932.207 7  90095024.84545
     -1180.517        -919.912
  23469504.121    23469504.4604   23469505.6124  123333069.068 7  96103702.71043
     -2083.193       -1623.264
  23276370.323    23276371.4394   23276371.6784  122318147.944 6  95312852.10343
     -3004.079       -2340.818
 06  5 11 13 28  0.0000000  0  9G 2G 4G 6G10G13G16G23G25G30
  21086730.260    21086730.1184   21086729.4134  110811512.435 8  86346648.41346
      -601.534        -468.728
  22611269.658    22611269.9504   22611270.8754  118823021.673 7  92589375.81244
     -2885.444       -2248.377
  22423615.075    22423614.5944   22423616.5924  117836897.954 7  91820968.80644
      1980.857        1543.552
  23960188.062    23960186.8274   23960189.5444  125911693.888 6  98112978.87742
      3845.881        2996.822
  21798934.193    21798934.5814   21798934.9864  114554177.741 8  89263010.00745
      1349.189        1051.315
  24395457.790    24395457.9044   24395458.7564  128199011.183 5  99895344.10142
      3321.898        2588.539
  22008920.120    22008919.8064   22008918.2594  115657650.782 8  90122857.45345
     -1200.451        -935.449
  23481438.479    23481437.9244   23481440.0014  123395783.051 6  96152570.76643
     -2097.338       -1634.291
  23293557.393    23293557.3904   23293559.0914  122408466.245 6  95383230.04643
     -3016.901       -2350.914
 06  5 11 13 28 30.0000000  0  9G 2G 4G 6G10G13G16G23G25G30
  21090225.890    21090225.7724   21090225.0744  110829881.279 8  86360961.58246
      -623.853        -486.108
  22627777.181    22627777.7014   22627779.8904  118909773.243 7  92656974.32944
     -2898.586       -2258.625
  22412352.557    22412352.4634   22412354.2634  117777712.636 7  91774850.35544
      1964.022        1530.399
  23938254.787    23938254.1404   23938255.9284  125796429.684 6  98023162.23642
      3837.847        2990.482
  21791291.614    21791292.0324   21791292.6734  114514015.788 8  89231715.01845
      1327.526        1034.460
  24376521.528    24376520.9344   24376523.0754  128099495.638 5  99817799.53442
      3311.735        2580.616
  22015831.128    22015830.9904   22015829.0664  115693968.977 7  90151157.45845
     -1221.561        -951.876
  23493452.592    23493452.6064   23493454.6044  123458920.049 6  96201768.35643
     -2112.605       -1646.174
  23310817.614    23310817.4954   23310818.5214  122499164.646 6  95453904.12743
     -3030.560       -2361.485
 06  5 11 13 29  0.0000000  0  9G 2G 4G 6G10G13G16G23G25G30
  21093848.210    21093847.9074   21093847.3804  110848914.624 8  86375792.57746
      -645.667        -503.130
  22644360.856    22644360.9594   22644362.3654  118996915.162 7  92724877.02244
     -2911.460       -2268.668
  22401185.742    22401185.4654   22401187.1514  117719028.040 7  91729122.09844
      1947.681        1517.668
  23916365.798    23916365.2844   23916368.9504  125681403.253 6  97933531.06442
      3829.951        2984.403
  21783772.331    21783772.5114   21783773.1234  114474500.915 8  89200924.24845
      1306.151        1017.758
  24357643.167    24357643.0504   24357644.4704  128000287.393 5  99740494.44142
      3301.408        2572.503
  22022862.540    22022862.0854   22022860.4664  115730917.884 7  90179948.89845
     -1242.381        -968.092
  23505553.496    23505553.7084   23505555.3784  123522511.172 6  96251319.87443
     -2127.487       -1657.790
  23328154.680    23328154.5234   23328155.6024  122590273.119 6  95524897.76743
     -3043.998       -2371.957
 06  5 11 13 29 30.0000000  0  9G 2G 4G 6G10G13G16G23G25G30
  21097597.462    21097597.3014   21097596.7534  110868616.646 8  86391144.39746
      -667.339        -519.989
  22661017.633    22661017.9454   22661019.9264  119084450.167 6  92793086.07144
     -2923.700       -2278.200
  22390114.618    22390114.6554   22390116.4074  117660851.071 7  91683789.30944
      1931.342        1504.966
  23894523.818    23894521.8694   23894526.2054  125566622.106 6  97844091.01442
      3822.458        2978.579
  21776377.352    21776377.5834   21776377.6944  114435639.879 8  89170642.91845
      1285.083        1001.389
  24338823.638    24338823.2124   24338825.1934  127901394.538 5  99663435.12042
      3291.814        2565.138
  22030014.095    22030013.9844   22030012.3154  115768501.651 8  90209234.96845
     -1262.693        -983.905
  23517741.539    23517741.7754   23517742.6984  123586559.841 6  96301227.99243
     -2141.924       -1668.991
  23345569.759    23345570.3334   23345570.9884  122681794.265 6  95596213.07842
     -3056.891       -2381.988
 06  5 11 13 30  0.0000000  0  9G 2G 4G 6G10G13G16G23G25G30
  21101468.405    21101468.2464   21101467.6324  110888959.526 8  86406996.13946
      -688.529        -536.518
  22677744.446    22677744.3404   22677746.0454  119172347.548 7  92861577.46644
     -2935.766       -2287.606
  22379135.157    22379135.1984   22379137.1314  117603155.548 7  91638831.74844
      1915.252        1492.386
  23872723.373    23872722.6354   23872725.9414  125452060.774 6  97754822.36942
      3815.276        2972.962
  21769101.078    21769101.6274   21769101.8904  114397405.356 8  89140849.80145
      1264.141         985.039
  24320059.603    24320060.3394   24320061.6004  127802790.784 5  99586601.11942
      3281.744        2557.199
  22037281.313    22037281.0384   22037279.2784  115806690.292 7  90238992.32945
     -1283.011        -999.750
  23530011.135    23530011.1344   23530012.7504  123651034.992 6  96351468.22443
     -2156.338       -1680.261
  23363058.567    23363058.6524   23363060.2444  122773696.536 6  95667825.26642
     -3069.625       -2391.937
 06  5 11 13 30 30.0000000  0  9G 2G 4G 6G10G13G16G23G25G30
  21105463.990    21105463.9524   21105463.3564  110909957.216 8  86423357.98746
      -711.037        -554.031
  22694541.541    22694541.4434   22694543.8004  119260620.897 7  92930361.92044
     -2948.588       -2297.571
  22368250.723    22368251.1614   22368253.0994  117545958.581 7  91594262.52144
      1898.222        1479.132
  23850967.891    23850967.8444   23850971.0574  125337738.169 6  97665740.18242
      3806.917        2966.403
  21761948.016    21761948.5324   21761948.8704  114359814.996 8  89111558.60045
      1242.332         968.061
  24301354.851    24301353.7074   24301355.9684  127704495.121 5  99510007.21142
      3271.906        2549.549
  22044666.220    22044665.6964   22044664.5684  115845498.403 7  90269232.44245
     -1303.732       -1015.878
  23542364.047    23542364.5424   23542365.6024  123715951.290 6  96402052.45143
     -2170.968       -1691.646
  23380621.832    23380621.6774   23380623.6104  122865992.775 6  95739744.44642
     -3082.982       -2402.298
 06  5 11 13 31  0.0000000  0  9G 2G 4G 6G10G13G16G23G25G30
  21109582.580    21109582.6234   21109582.0214  110931600.318 8  86440222.73346
      -732.620        -570.855
  22711409.404    22711409.3964   22711410.6684  119349258.427 7  92999430.13144
     -2961.041       -2307.300
  22357460.537    22357460.6384   22357462.4784  117489253.382 7  91550076.63044
      1881.526        1466.139
  23829257.634    23829256.8134   23829259.6344  125223647.175 6  97576838.50342
      3798.660        2960.025
  21754915.715    21754916.0544   21754916.5804  114322860.424 8  89082762.79645
      1220.779         951.258
  24282707.701    24282706.7374   24282707.8124  127606501.173 5  99433648.39242
      3260.844        2541.013
  22052166.906    22052166.6134   22052165.1364  115884915.214 7  90299946.81645
     -1324.461       -1032.045
  23554799.049    23554798.9504   23554800.3664  123781297.104 6  96452971.31043
     -2185.815       -1703.213
  23398258.010    23398257.7324   23398259.8284  122958671.585 6  95811961.71642
     -3096.085       -2412.521
 06  5 11 13 31 30.0000000  0  9G 2G 4G 6G10G13G16G23G25G30
  21113828.223    21113828.4554   21113827.8234  110953912.591 8  86457608.92346
      -754.322        -587.795
  22728349.300    22728349.8124   22728351.6604  119438282.614 7  93068799.60144
     -2973.302       -2316.841
  22346768.650    22346768.8084   22346770.3184  117433065.988 7  91506294.09444
      1864.840        1453.125
  23807595.657    23807594.4114   23807598.3204  125109814.645 6  97488137.90542
      3790.631        2953.720
  21748009.840    21748009.9594   21748010.4724  114286568.067 8  89054482.97545
      1199.282         934.503
  24264121.846    24264122.2184   24264122.4884  127508836.325 5  99357546.01042
      3250.412        2532.803
  22059787.733    22059787.6904   22059786.3084  115924964.406 7  90331153.98245
     -1344.931       -1047.989
  23567319.690    23567319.5974   23567321.1284  123847095.197 6  96504242.55643
     -2200.195       -1714.425
  23415970.596    23415971.2354   23415973.2464  123051754.340 6  95884493.76442
     -3108.901       -2422.512
 06  5 11 13 32  0.0000000  0  9G 2G 4G 6G10G13G16G23G25G30
  21118197.041    21118197.0824   21118196.5674  110976870.666 8  86475498.27146
      -776.229        -604.852
  22745359.015    22745359.5824   22745361.1244  119527668.557 7  93138450.95344
     -2985.726       -2326.523
  22336170.932    22336170.6964   22336173.0554  117377376.008 7  91462899.22644
      1847.746        1439.816
  23785978.871    23785978.1654   23785981.0294  124996221.263 6  97399623.65242
      3782.372        2947.290
  21741225.658    21741225.8104   21741226.2934  114250916.573 8  89026702.54645
      1177.381         917.446
  24245596.059    24245594.9324   24245597.0694  127411480.699 5  99281684.61542
      3239.557        2524.274
  22067524.526    22067524.4734   22067523.0324  115965621.743 7  90362835.02345
     -1365.706       -1064.184
  23579922.001    23579922.0994   23579923.9774  123913321.012 6  96555847.13443
     -2214.911       -1725.935
  23433756.269    23433756.3484   23433757.9694  123145215.731 6  95957320.81642
     -3121.725       -2432.520
 06  5 11 13 32 30.0000000  0  9G 2G 4G 6G10G13G16G23G25G30
  21122693.996    21122693.8094   21122693.2074  111000500.059 8  86493910.72346
      -798.182        -621.977
  22762442.155    22762442.8114   22762444.9954  119617439.893 6  93208402.57144
     -2998.106       -2336.176
  22325673.531    22325673.5704   22325675.3684  117322211.476 7  91419913.90544
      1830.739        1426.521
  23764414.317    23764412.7784   23764416.6044  124882896.108 6  97311318.56042
      3773.679        2940.492
  21734568.457    21734568.7364   21734569.2634  114215933.276 8  88999442.76845
      1155.602         900.457
  24227134.478    24227133.1674   24227135.1784  127314463.052 5  99206086.55442
      3228.998        2516.105
  22075382.029    22075381.8894   22075380.4384  116006911.978 7  90395009.25245
     -1386.185       -1080.163
  23592610.324    23592610.3574   23592612.5384  123979998.680 6  96607803.85743
     -2229.483       -1737.261
  23451617.438    23451617.4924   23451619.4404  123239078.409 6  96030460.35042
     -3134.693       -2442.598
 06  5 11 13 33  0.0000000  0  9G 2G 4G 6G10G13G16G23G25G30
  21127313.861    21127313.8884   21127313.2804  111024777.479 8  86512828.06046
      -821.148        -639.868
  22779594.182    22779594.0004   22779596.4274  119707572.069 6  93278635.36343
     -3011.385       -2346.535
  22315273.012    22315272.2624   22315274.1194  117267551.883 7  91377322.07744
      1812.412        1412.268
  23742896.467    23742895.8054   23742898.6914  124769819.631 6  97223207.24442
      3764.054        2933.064
  21728034.938    21728035.0404   21728035.5754  114181596.955 8  88972687.08045
      1132.576         882.532
  24208732.370    24208731.5414   24208733.0224  127217764.030 5  99130736.78542
      3216.770        2506.588
  22083355.123    22083354.9424   22083353.7064  116048811.041 7  90427657.90445
     -1407.957       -1097.111
  23605379.842    23605379.8934   23605381.7304  124047103.595 6  96660093.37643
     -2245.208       -1749.532
  23469551.064    23469551.3394   23469552.6204  123333318.332 6  96103893.96042
     -3148.636       -2453.492
 06  5 11 13 33 30.0000000  0  9G 2G 4G 6G10G13G16G23G25G30
  21132059.378    21132059.2904   21132058.6054  111049715.372 8  86532260.25246
      -842.616        -656.604
  22796816.134    22796816.2844   22796817.5744  119798075.519 6  93349157.51343
     -3023.325       -2355.857
  22304969.420    22304969.7684   22304971.4224  117213411.336 7  91335134.69444
      1795.788        1399.286
  23721428.367    23721427.6264   23721430.9224  124657006.964 6  97135301.52442
      3755.610        2926.529
  21721626.234    21721626.9204   21721627.5074  114147921.797 8  88946446.64845
      1111.129         865.827
  24190394.671    24190394.8134   24190395.8404  127121398.997 5  99055647.27842
      3206.195        2498.324
  22091446.462    22091446.1354   22091444.7724  116091330.445 7  90460789.94845
     -1427.978       -1112.704
  23618232.994    23618233.4904   23618235.1004  124114646.613 6  96712724.30043
     -2259.029       -1760.304
  23487557.782    23487558.5664   23487560.7384  123427944.733 6  96177628.67542
     -3161.025       -2463.133
 06  5 11 13 34  0.0000000  0  9G 2G 4G 6G10G13G16G23G25G30
  21136927.007    21136926.9194   21136926.3244  111075295.262 8  86552192.69446
      -863.754        -673.060
  22814105.070    22814105.5684   22814107.7684  119888930.324 6  93419953.39943
     -3034.938       -2364.884
  22294763.235    22294763.0164   22294764.4984  117159774.141 7  91293339.57144
      1779.161        1386.363
  23700007.756    23700008.3664   23700010.2754  124544443.164 6  97047589.64542
      3747.236        2919.954
  21715341.055    21715341.3104   21715341.8084  114114891.683 8  88920708.88145
      1089.770         849.202
  24172117.411    24172117.6984   24172119.6184  127025353.297 6  98980806.56742
      3195.551        2490.115
  22099651.579    22099651.5854   22099649.9784  116134450.886 7  90494390.31545
     -1447.767       -1128.123
  23631166.130    23631165.7584   23631167.0244  124182608.212 6  96765681.37543
     -2272.721       -1770.973
  23505634.926    23505634.8234   23505637.0354  123522937.638 6  96251649.08142
     -3173.065       -2472.524
 06  5 11 13 34 30.0000000  0  9G 2G 4G 6G10G13G16G23G25G30
  21141921.584    21141921.4064   21141920.9334  111101541.403 8  86572644.21046
      -886.200        -690.544
  22831465.977    22831466.3584   22831467.7894  119980159.775 6  93491041.25343
     -3047.362       -2374.539
  22284657.376    22284657.3064   22284658.6274  117106667.326 7  91251957.56644
      1761.077        1372.247
  23678640.035    23678639.3864   23678643.0554  124432156.697 6  96960093.96442
      3738.064        2912.773
  21709183.590    21709183.8064   21709184.5824  114082533.100 8  88895494.33045
      1067.255         831.612
  24153907.359    24153906.4834   24153908.1414  126929655.282 6  98906236.81542
      3184.044        2481.071
  22107976.508    22107976.2114   22107974.7394  116178196.352 7  90528477.64945
     -1468.736       -1144.476
  23644183.096    23644182.8544   23644183.8974  124251011.800 6  96818982.78643
     -2287.640       -1782.560
  23523785.292    23523785.0854   23523786.2564  123618319.503 6  96325972.60242
     -3186.001       -2482.583
 06  5 11 13 35  0.0000000  0  9G 2G 4G 6G10G13G16G23G25G30
  21147037.350    21147037.1794   21147036.7464  111128424.622 8  86593592.17246
      -906.703        -706.506
  22848891.550    22848891.7394   22848893.6834  120071732.479 6  93562396.54743
     -3058.283       -2383.052
  22274646.901    22274647.1004   22274648.7944  117054063.893 7  91210967.76644
      1745.051        1359.772
  23657320.539    23657320.5654   23657323.0994  124320121.456 6  96872793.99242
      3730.197        2906.696
  21703148.445    21703148.8664   21703149.2284  114050818.485 8  88870781.69245
      1046.369         815.349
  24135757.116    24135757.8694   24135758.8624  126834278.730 6  98831917.57942
      3173.692        2473.014
  22116413.877    22116414.0044   22116412.4684  116222537.043 7  90563028.85345
     -1487.982       -1159.456
  23657277.154    23657278.0334   23657279.7694  124319826.646 6  96872604.73443
     -2300.681       -1792.734
  23542003.722    23542004.7404   23542006.5324  123714058.382 6  96400574.20142
     -3197.201       -2491.314
 06  5 11 13 35 30.0000000  0  9G 2G 4G 6G10G13G16G23G25G30
  21152274.652    21152274.2634   21152273.8334  111155945.700 8  86615037.17946
      -927.919        -723.021
  22866382.996    22866383.0544   22866384.7834  120163648.459 7  93634019.28643
     -3069.541       -2391.826
  22264733.636    22264733.3534   22264735.3664  117001968.202 7  91170373.75344
      1728.194        1346.676
  23636050.422    23636049.0494   23636052.5094  124208342.249 6  96785693.50442
      3721.713        2899.994
  21697236.502    21697236.7094   21697237.2774  114019750.809 8  88846573.16345
      1024.848         798.602
  24117669.472    24117669.7474   24117671.3704  126739228.294 6  98757852.40242
      3162.866        2464.589
  22124965.544    22124964.7814   22124963.5774  116267472.838 7  90598043.72945
     -1507.726       -1174.840
  23670451.496    23670451.2074   23670453.3874  124389052.581 6  96926546.97043
     -2314.333       -1803.380
  23560290.421    23560290.9284   23560292.1524  123810153.651 6  96475453.56242
     -3209.129       -2500.606
 06  5 11 13 36  0.0000000  0  9G 2G 4G 6G10G13G16G23G25G30
  21157637.959    21157637.7824   21157637.2204  111184130.737 8  86636999.46446
      -950.163        -740.391
  22883943.382    22883944.0964   22883945.2464  120255931.917 7  93705928.39043
     -3081.850       -2401.450
  22254921.873    22254921.8844   22254923.4654  116950408.587 7  91130197.50044
      1710.133        1332.574
  23614832.524    23614832.1234   23614834.1464  124096848.702 6  96698815.58942
      3711.991        2892.506
  21691453.025    21691453.3144   21691454.0344  113989358.540 8  88822890.94745
      1002.228         780.960
  24099650.125    24099650.1064   24099650.4724  126644533.781 6  98684064.53742
      3150.936        2455.302
  22133634.156    22133634.1564   22133632.4384  116313029.286 7  90633542.24745
     -1528.455       -1190.985
  23683707.916    23683707.2154   23683709.4574  124458714.680 6  96980829.10043
     -2328.831       -1814.678
  23578649.091    23578649.5554   23578650.3884  123906629.694 6  96550629.69242
     -3221.756       -2510.424
 06  5 11 13 36 30.0000000  0  9G 2G 4G 6G10G13G16G23G25G30
  21163122.058    21163121.8684   21163121.3994  111212949.570 8  86659455.72046
      -972.219        -757.560
  22901568.735    22901568.8274   22901571.7124  120348551.297 6  93778099.22243
     -3094.000       -2410.898
  22245207.126    22245207.0684   22245208.8264  116899357.690 7  91090417.77644
      1692.363        1318.719
  23593665.371    23593663.8354   23593668.5664  123985614.006 6  96612139.28242
      3702.337        2884.898
  21685792.562    21685792.6854   21685793.2624  113959613.230 8  88799712.91045
       979.668         763.378
  24081693.488    24081692.9174   24081694.3274  126550168.755 6  98610533.45142
      3138.931        2446.009
  22142415.625    22142415.2374   22142413.9554  116359175.323 7  90669500.23445
     -1548.976       -1206.979
  23697041.088    23697041.0014   23697042.4664  124528781.263 6  97035426.39743
     -2343.153       -1825.814
  23597074.635    23597074.5634   23597076.3424  124003453.669 6  96626076.82942
     -3234.161       -2520.123
 06  5 11 13 37  0.0000000  0  9G 2G 4G 6G10G13G16G23G25G30
  21168731.571    21168731.4704   21168730.9424  111242428.421 8  86682426.24746
      -994.054        -774.586
  22919262.197    22919263.0614   22919264.8204  120441531.818 6  93850551.53043
     -3105.815       -2420.097
  22235594.362    22235594.7944   22235596.5354  116848843.999 7  91051056.61144
      1674.333        1304.674
  23572552.871    23572552.6564   23572554.5734  123874668.709 6  96525688.55142
      3692.823        2877.546
  21680260.737    21680260.8494   21680261.2194  113930543.140 8  88777061.01745
       957.302         745.954
  24063803.960    24063804.2614   24063805.7104  126456162.998 6  98537282.30342
      3127.020        2436.703
  22151314.064    22151313.5374   22151312.0274  116405936.781 7  90705937.78745
     -1569.421       -1222.921
  23710455.627    23710456.0534   23710457.5104  124599277.735 6  97090358.67343
     -2357.460       -1836.963
  23615570.064    23615570.2114   23615572.4444  124100650.995 6  96701815.09042
     -3246.507       -2529.705
 06  5 11 13 37 30.0000000  0  9G 2G 4G 6G10G13G16G23G25G30
  21174465.783    21174465.6524   21174465.2044  111272561.783 8  86705906.77146
     -1015.154        -791.015
  22937023.492    22937023.3044   22937025.7844  120534865.945 6  93923279.33843
     -3116.771       -2428.677
  22226083.911    22226083.8444   22226085.6064  116798864.495 7  91012111.67044
      1657.309        1291.416
  23551495.878    23551494.1644   23551497.4924  123764010.021 6  96439461.03542
      3684.030        2870.731
  21674856.311    21674856.6554   21674857.1924  113902144.469 8  88754932.23145
       935.597         729.037
  24045983.345    24045983.4244   24045985.1734  126362514.460 6  98464309.42242
      3115.834        2427.936
  22160328.273    22160327.9774   22160326.5454  116453307.249 7  90742849.88445
     -1588.939       -1238.136
  23723951.554    23723951.3414   23723952.8564  124670197.182 6  97145620.56243
     -2370.784       -1847.364
  23634135.180    23634135.5244   23634137.9054  124198213.296 6  96777837.76342
     -3257.902       -2538.634
 06  5 11 13 38  0.0000000  0  9G 2G 4G 6G10G13G16G23G25G30
  21180321.373    21180321.2014   21180320.8354  111303333.218 8  86729884.58046
     -1036.912        -807.991
  22954848.282    22954848.3644   22954850.3494  120628535.931 6  93996268.89143
     -3128.449       -2437.766
  22216671.851    22216672.0894   22216673.7904  116749405.263 7  90973572.16944
      1639.307        1277.377
  23530490.524    23530490.5784   23530491.9094  123653625.584 6  96353447.19842
      3674.394        2863.150
  21669577.322    21669577.5274   21669578.2774  113874402.797 8  88733315.33345
       913.135         711.516
  24028227.983    24028227.8464   24028229.4654  126269210.597 6  98391605.16242
      3103.694        2418.460
  22169454.916    22169454.6954   22169453.3154  116501269.268 7  90780222.89845
     -1609.196       -1253.914
  23737523.721    23737523.6604   23737525.2914  124741521.856 6  97201198.24343
     -2384.878       -1858.363
  23652766.994    23652767.1954   23652769.0674  124296122.455 6  96854130.83642
     -3269.956       -2548.046
 06  5 11 13 38 30.0000000  0  9G 2G 4G 6G10G13G16G23G25G30
  21186298.489    21186298.4544   21186297.9444  111334743.478 8  86754360.11446
     -1058.083        -824.483
  22972736.228    22972737.3204   22972738.8774  120722541.297 6  94069519.79543
     -3139.563       -2446.425
  22207360.129    22207360.0164   22207360.9434  116700469.342 7  90935440.23244
      1622.036        1263.936
  23509537.314    23509536.9074   23509538.4344  123543520.029 6  96267650.69342
      3665.074        2855.862
  21664424.230    21664424.3624   21664424.8724  113847321.379 8  88712213.03345
       891.293         694.505
  24010539.839    24010538.0524   24010541.0024  126176255.536 6  98319172.65442
      3092.248        2409.524
  22178694.801    22178694.5204   22178693.0824  116549823.054 7  90818056.97145
     -1628.704       -1269.111
  23751173.631    23751173.6744   23751175.4274  124813251.528 6  97257091.50843
     -2398.128       -1868.654
  23671464.272    23671465.0424   23671465.1374  124394376.959 6  96930692.83342
     -3281.361       -2556.894
 06  5 11 13 39  0.0000000  0  9G 2G 4G 6G10G13G16G23G25G30
  21192399.405    21192399.3274   21192398.8064  111366803.781 8  86779342.11746
     -1079.543        -841.202
  22990690.969    22990692.0464   22990693.2284  120816892.470 6  94143040.16443
     -3150.762       -2455.153
  22198150.361    22198150.1734   22198151.8544  116652071.691 7  90897727.61944
      1604.155        1250.003
  23488641.425    23488640.3754   23488643.9514  123433708.866 6  96182083.53342
      3655.426        2848.415
  21659398.791    21659399.0194   21659399.3864  113820913.242 8  88691635.29145
       869.005         677.147
  23992920.251    23992920.2994   23992921.7494  126083665.254 6  98247024.38542
      3080.136        2400.127
  22188048.638    22188048.5664   22188047.1694  116598980.005 7  90856361.07045
     -1648.654       -1284.674
  23764902.189    23764902.6584   23764904.0864  124885396.858 6  97313308.62543
     -2411.875       -1879.382
  23690228.420    23690228.7654   23690231.0184  124492986.844 6  97007531.73942
     -3292.952       -2565.937
 06  5 11 13 39 30.0000000  0  9G 2G 4G 6G10G13G16G23G25G30
  21198619.283    21198619.2394   21198618.8214  111399489.249 8  86804811.29546
     -1100.086        -857.199
  23008706.454    23008706.5744   23008708.8064  120911562.726 6  94216809.15543
     -3161.202       -2463.255
  22189038.653    22189038.3074   22189040.2644  116604190.279 7  90860417.61844
      1587.297        1236.877
  23467797.606    23467796.6704   23467798.5194  123324170.548 6  96096729.04942
      3646.569        2841.473
  21654496.771    21654497.2494   21654497.9184  113795155.463 8  88671564.33145
       847.456         660.344
  23975365.866    23975365.4024   23975367.7634  125991418.147 6  98175143.51142
      3068.787        2391.264
  22197512.674    22197512.5464   22197511.3484  116648713.880 7  90895114.80545
     -1667.715       -1299.533
  23778705.315    23778705.4814   23778707.5154  124957931.166 6  97369828.78543
     -2424.563       -1889.302
  23709056.064    23709056.6844   23709057.3024  124591924.489 6  97084625.77542
     -3303.542       -2574.195
 06  5 11 13 40  0.0000000  0  9G 2G 4G 6G10G13G16G23G25G30
  21204960.555    21204960.5584   21204960.0814  111432813.176 8  86830777.93346
     -1121.332        -873.754
  23026784.733    23026784.7584   23026787.3354  121006564.091 6  94290836.10043
     -3172.511       -2472.078
  22180028.135    22180028.1484   22180029.8144  116556840.144 7  90823521.39344
      1569.682        1223.156
  23447007.853    23447006.9174   23447009.8294  123214922.243 6  96011600.53142
      3636.713        2833.833
  21649721.949    21649722.4384   21649722.9574  113770063.222 8  88652011.94645
       825.424         643.209
  23957880.674    23957880.3404   23957881.8484  125899531.427 6  98103543.46342
      3056.800        2381.945
  22207089.267    22207089.0814   22207087.5144  116699037.388 7  90934327.90845
     -1687.169       -1314.657
  23792584.434    23792584.5484   23792585.5554  125030867.215 6  97426662.00943
     -2437.753       -1899.513
  23727948.452    23727948.6464   23727950.2744  124691202.217 6  97161984.86842
     -3314.915       -2582.994
 06  5 11 13 40 30.0000000  0  9G 2G 4G 6G10G13G16G23G25G30
  21211423.116    21211422.8534   21211422.3014  111466773.336 8  86857240.43846
     -1142.879        -890.569
  23044925.127    23044925.5504   23044927.3494  121101893.008 6  94365118.30443
     -3183.325       -2480.532
  22171119.015    22171118.9104   22171120.6364  116510020.967 7  90787038.52744
      1551.392        1208.880
  23426274.006    23426273.4984   23426276.4104  123105965.414 6  95926699.18542
      3626.703        2826.000
  21645073.620    21645074.0814   21645074.4774  113745636.360 8  88632978.04945
       802.829         625.570
  23940463.905    23940464.0684   23940465.4454  125808006.182 6  98032225.13842
      3044.446        2372.263
  22216776.983    22216776.9004   22216775.2524  116749947.401 7  90973998.06145
     -1707.013       -1330.139
  23806539.848    23806539.8594   23806541.6954  125104201.397 6  97483805.45743
     -2451.402       -1910.165
  23746904.226    23746904.5894   23746905.8804  124790815.670 6  97239605.55542
     -3326.290       -2591.934
 06  5 11 13 41  0.0000000  0  9G 2G 4G 6G10G13G16G23G25G30
  21218010.041    21218009.8584   21218009.3664  111501388.325 8  86884213.17146
     -1164.549        -907.419
  23063131.421    23063131.2914   23063133.9054  121197567.020 6  94439669.39943
     -3194.661       -2489.381
  22162315.173    22162315.1704   22162317.0104  116463755.382 7  90750987.01844
      1533.161        1194.701
  23405600.092    23405598.8054   23405602.4394  122997322.912 6  95842042.73442
      3616.333        2817.940
  21640556.175    21640556.4854   21640556.7304  113721895.846 8  88614479.00145
       780.053         607.849
  23923120.668    23923120.6384   23923120.2734  125716865.358 6  97961206.35642
      3031.798        2362.470
  22226579.807    22226579.6154   22226578.3414  116801462.485 7  91014139.72145
     -1727.076       -1345.776
  23820574.236    23820573.5694   23820576.0184  125177951.443 6  97541272.94543
     -2465.050       -1920.765
  23765927.063    23765927.8944   23765929.2894  124890781.890 6  97317501.07642
     -3337.864       -2600.918
 06  5 11 13 41 30.0000000  0  9G 2G 4G 6G10G13G16G23G25G30
  21224718.118    21224718.0674   21224717.3784  111536639.492 8  86911681.59746
     -1185.160        -923.497
  23081399.492    23081399.7174   23081401.7984  121293566.253 6  94514473.99143
     -3204.674       -2497.158
  22153613.547    22153613.5104   22153615.3834  116418027.574 7  90715354.88944
      1515.469        1180.893
  23384983.026    23384982.0774   23384984.6224  122888979.677 6  95757619.49242
      3606.965        2810.580
  21636165.932    21636166.0614   21636166.7464  113698824.458 8  88596501.31045
       758.386         590.950
  23905847.242    23905846.8524   23905846.9454  125626093.966 6  97890475.44042
      3020.015        2353.244
  22236494.401    22236494.1784   22236492.4304  116853562.727 7  91054737.28345
     -1745.931       -1360.465
  23834683.393    23834683.4534   23834685.3554  125252097.674 6  97599049.18743
     -2477.727       -1930.678
  23785014.008    23785013.8224   23785015.5754  124991080.408 6  97395655.63342
     -3348.499       -2609.272
 06  5 11 13 42  0.0000000  0  9G 2G 4G 6G10G13G16G23G25G30
  21231547.636    21231547.3714   21231546.9354  111572528.494 8  86939647.12746
     -1206.884        -940.418
  23099729.325    23099730.0924   23099731.3404  121389890.654 6  94589531.92243
     -3215.947       -2505.925
  22145014.932    22145015.2074   22145016.8104  116372841.159 7  90680144.57944
      1497.228        1166.691
  23364424.073    23364422.6684   23364425.8584  122780940.726 6  95673433.36642
      3596.269        2802.307
  21631903.671    21631903.5844   21631904.1514  113676425.492 8  88579047.51745
       735.571         573.174
  23888645.762    23888644.2594   23888645.8734  125535697.089 6  97820036.33342
      3007.173        2343.237
  22246520.161    22246519.9134   22246518.5454  116906248.978 7  91095791.40445
     -1765.767       -1375.887
  23848868.779    23848867.9934   23848870.4064  125326640.300 6  97657134.29143
     -2491.223       -1941.200
  23804163.399    23804163.4804   23804165.0664  125091711.020 6  97474068.95242
     -3359.743       -2617.997
 06  5 11 13 42 30.0000000  0  9G 2G 4G 6G10G13G16G23G25G30
  21238496.071    21238495.8374   21238495.3584  111609042.658 8  86968099.68646
     -1227.370        -956.403
  23118118.003    23118118.5454   23118121.0164  121486526.988 6  94664832.91343
     -3226.176       -2513.894
  22136517.327    22136517.5084   22136519.5524  116328186.766 7  90645348.84844
      1479.669        1152.967
  23343920.269    23343920.2634   23343922.4684  122673197.965 6  95589478.06342
      3586.596        2794.705
  21627767.132    21627767.5554   21627767.9574  113654689.247 8  88562110.19445
       713.603         556.021
  23871513.319    23871512.8244   23871514.8424  125445666.744 6  97749882.79842
      2994.838        2333.641
  22256654.998    22256654.9754   22256653.6204  116959508.598 7  91137292.42145
     -1784.783       -1390.754
  23863126.645    23863126.8474   23863128.0904  125401566.308 6  97715518.17843
     -2503.849       -1951.075
  23823372.964    23823373.0574   23823375.2894  125192659.857 6  97552730.41442
     -3370.177       -2626.174
 06  5 11 13 43  0.0000000  0  9G 2G 4G 6G10G13G16G23G25G30
  21245561.228    21245561.0224   21245560.3824  111646169.928 8  86997030.01446
     -1248.458        -972.828
  23136563.993    23136564.8794   23136567.0344  121583461.654 6  94740366.38543
     -3236.936       -2522.312
  22128119.776    22128119.4854   22128121.4174  116284055.188 7  90610960.60844
      1461.765        1139.027
  23323472.256    23323472.2274   23323474.5844  122565742.954 6  95505746.92642
      3576.294        2786.694
  21623755.018    21623755.3724   21623756.0214  113633605.473 8  88545681.31145
       691.226         538.632
  23854449.370    23854448.5134   23854450.2454  125355994.239 6  97680008.10142
      2982.412        2323.986
  22266896.706    22266896.4574   22266895.3384  117013328.696 7  91179230.14345
     -1803.988       -1405.702
  23877454.404    23877455.8804   23877456.9494  125476862.395 6  97774190.41943
     -2516.627       -1961.013
  23842640.685    23842641.2924   23842641.8064  125293912.883 6  97631629.05442
     -3380.779       -2634.373
 06  5 11 13 43 30.0000000  0  9G 2G 4G 6G10G13G16G23G25G30
  21252743.988    21252743.9134   21252743.4734  111683917.382 8  87026443.64646
     -1269.029        -988.862
  23155068.506    23155068.2664   23155071.3644  121680700.513 6  94816136.88443
     -3246.852       -2530.016
  22119822.815    22119822.9224   22119824.6774  116240455.051 7  90576986.40445
      1444.115        1125.268
  23303081.178    23303081.7394   23303083.4264  122458586.597 6  95422248.44242
      3566.390        2779.022
  21619868.544    21619868.7634   21619869.3514  113613182.724 7  88529767.48845
       669.282         521.503
  23837455.130    23837455.0314   23837455.5714  125266690.448 6  97610420.74542
      2970.233        2314.473
  22277246.245    22277245.8604   22277244.4724  117067715.314 7  91221609.31445
     -1822.714       -1420.302
  23891855.285    23891854.5144   23891855.8734  125552534.421 6  97833155.59543
     -2528.940       -1970.605
  23861967.158    23861968.0804   23861969.5494  125395474.824 6  97710768.23542
     -3390.883       -2642.284
 06  5 11 13 44  0.0000000  0  9G 2G 4G 6G10G13G16G23G25G30
  21260047.826    21260047.7854   21260047.2854  111722299.622 8  87056351.93646
     -1289.763       -1005.020
  23173633.489    23173633.7424   23173635.9234  121778257.282 6  94892155.11443
     -3256.697       -2537.673
  22111630.659    22111630.7504   22111632.1634  116197404.936 7  90543440.90944
      1425.952        1111.119
  23282751.049    23282750.2364   23282752.7514  122351747.954 6  95338997.58142
      3556.267        2771.084
  21616111.373    21616111.5794   21616112.0784  113593437.732 8  88514381.77445
       647.144         504.268
  23820534.264    23820534.4544   23820536.4294  125177774.110 6  97541135.33642
      2957.698        2304.676
  22287706.462    22287706.1264   22287704.4104  117122682.557 7  91264440.88145
     -1841.622       -1435.021
  23906328.747    23906328.0664   23906330.4264  125628596.321 6  97892424.58643
     -2541.703       -1980.562
  23881355.089    23881356.0244   23881357.1344  125497359.143 6  97790158.53242
     -3401.225       -2650.299
 06  5 11 13 44 30.0000000  0  9G 2G 4G 6G10G13G16G23G25G30
  21267469.586    21267469.5324   21267468.9084  111761301.305 8  87086742.95446
     -1310.750       -1021.359
  23192255.105    23192255.2124   23192257.3434  121876115.258 6  94968407.98443
     -3267.350       -2545.963
  22103540.456    22103540.4934   22103542.4214  116154891.010 7  90510313.10245
      1407.855        1097.047
  23262477.944    23262477.3554   23262480.2404  122245215.294 6  95255985.18842
      3545.658        2762.875
  21612480.631    21612480.5534   21612481.0754  113574357.092 8  88499513.75245
       624.517         486.652
  23803686.416    23803686.0504   23803687.4744  125089233.805 6  97472142.88442
      2944.667        2294.590
  22298273.961    22298273.4474   22298272.3104  117178214.500 7  91307712.43345
     -1860.868       -1450.011
  23920874.230    23920874.3374   23920875.6594  125705031.625 6  97951984.52143
     -2554.345       -1990.370
  23900800.832    23900801.7754   23900803.0274  125599548.434 6  97869786.31942
     -3411.664       -2658.417
 06  5 11 13 45  0.0000000  0  9G 2G 4G 6G10G13G16G23G25G30
  21275011.844    21275011.9724   21275011.1964  111800936.001 8  87117627.12946
     -1331.604       -1037.605
  23210936.417    23210936.7534   23210938.6034  121974287.307 6  95044905.65143
     -3277.577       -2553.936
  22095555.652    22095555.8584   22095557.9024  116112931.419 7  90477617.42345
      1389.668        1082.861
  23242267.531    23242267.0144   23242270.1014  122139006.813 6  95173225.37642
      3534.992        2754.554
  21608978.784    21608979.0204   21608979.6084  113555956.681 8  88485175.75945
       602.057         469.139
  23786911.900    23786912.0594   23786913.2404  125001087.428 6  97403457.42742
      2931.822        2284.520
  22308950.972    22308950.8444   22308949.2004  117234324.498 7  91351434.49845
     -1879.825       -1464.780
  23935492.258    23935492.5744   23935494.5424  125781853.361 6  98011845.55043
     -2566.958       -2000.258
  23920307.517    23920308.1884   23920310.5984  125702055.710 6  97949662.05542
     -3422.030       -2666.509
 06  5 11 13 45 30.0000000  0  9G 2G 4G 6G10G13G16G23G25G30
  21282672.370    21282672.0744   21282671.3974  111841191.342 8  87148994.98146
     -1352.140       -1053.610
  23229675.152    23229675.1604   23229677.6844  122072759.566 6  95121637.27443
     -3287.309       -2561.541
  22087674.172    22087674.4094   22087676.4074  116071514.812 7  90445344.76145
      1371.281        1068.521
  23222116.484    23222115.5224   23222118.4004  122033113.468 6  95090711.08342
      3524.457        2746.336
  21605604.740    21605605.0214   21605605.3164  113538225.350 8  88471359.07045
       579.909         451.882
  23770211.887    23770211.4744   23770212.3894  124913325.995 6  97335071.86542
      2918.977        2274.532
  22319736.249    22319735.6744   22319734.1354  117290999.048 7  91395596.42044
     -1898.538       -1479.375
  23950182.708    23950182.1394   23950183.8674  125859047.854 6  98071997.07043
     -2579.488       -2010.006
  23939871.750    23939872.5704   23939873.5514  125804866.777 6  98029774.83542
     -3432.167       -2674.397
 06  5 11 13 46  0.0000000  0  9G 2G 4G 6G10G13G16G23G25G30
  21290450.802    21290450.7254   21290450.2034  111882068.474 8  87180847.28046
     -1372.907       -1069.810
  23248471.111    23248471.1924   23248473.3204  122171532.432 6  95198603.09643
     -3297.510       -2569.490
  22079897.741    22079897.3704   22079898.9324  116030645.590 7  90413498.63445
      1353.171        1054.409
  23202026.459    23202026.4014   23202029.4184  121927541.114 6  95008446.91442
      3513.496        2737.821
  21602358.892    21602358.9704   21602359.4574  113521167.173 8  88458066.97645
       557.398         434.329
  23753585.161    23753585.8214   23753586.3944  124825955.069 6  97266990.59842
      2905.679        2264.181
  22330628.282    22330628.0784   22330626.8374  117348239.282 7  91440199.18645
     -1917.482       -1494.163
  23964943.076    23964943.5684   23964945.2644  125936615.612 6  98132439.42743
     -2591.903       -2019.652
  23959493.841    23959494.3894   23959495.9754  125907979.903 6  98110122.26642
     -3442.371       -2682.362
 06  5 11 13 46 30.0000000  0  9G 2G 4G 6G10G13G16G23G25G30
  21298350.051    21298349.8684   21298349.5964  111923579.310 8  87213193.38946
     -1393.848       -1086.098
  23267326.189    23267325.9834   23267328.9064  122270616.716 6  95275811.60043
     -3307.720       -2577.416
  22072227.126    22072227.2294   22072229.2314  115990338.753 7  90382090.75845
      1334.561        1039.926
  23182000.943    23182000.4944   23182002.7644  121822305.371 6  94926445.07443
      3502.683        2729.409
  21599243.403    21599243.5894   21599244.2934  113504795.948 8  88445310.21745
       534.605         416.582
  23737036.788    23737037.6084   23737038.0864  124738990.653 6  97199226.11742
      2892.396        2253.810
  22341630.684    22341630.6054   22341629.1294  117406055.889 7  91485250.92045
     -1936.473       -1508.918
  23979776.947    23979777.0284   23979779.6644  126014567.711 6  98193181.33643
     -2604.474       -2029.522
  23979176.229    23979176.3984   23979178.8704  126011406.596 6  98190714.30742
     -3452.353       -2690.113
 06  5 11 13 47  0.0000000  0  9G 2G 4G 6G10G13G16G23G25G30
  21306367.083    21306367.0114   21306366.6534  111965709.278 8  87246021.95046
     -1414.349       -1102.089
  23286237.963    23286238.5324   23286239.8184  122369996.706 6  95353250.55243
     -3317.088       -2584.766
  22064661.639    22064661.7624   22064663.6364  115950582.009 7  90351111.44245
      1316.267        1025.647
  23162037.994    23162036.9384   23162039.9694  121717395.425 6  94844697.07243
      3492.008        2721.048
  21596256.441    21596256.4774   21596256.7284  113489098.526 8  88433078.48045
       512.219         399.119
  23720563.264    23720563.2954   23720564.6634  124652421.849 6  97131769.90342
      2879.270        2243.585
  22352739.917    22352739.5074   22352738.1714  117464433.909 7  91530740.23545
     -1955.063       -1523.432
  23994681.020    23994680.7234   23994681.9064  126092888.440 6  98254210.43143
     -2616.496       -2038.831
  23998914.112    23998912.9874   23998916.3184  126115131.311 6  98271539.05042
     -3462.034       -2697.766
 06  5 11 13 47 30.0000000  0  9G 2G 4G 6G10G13G16G23G25G30
  21314500.330    21314500.4234   21314500.0504  112008450.390 8  87279326.71246
     -1435.380       -1118.487
  23305203.626    23305203.8964   23305206.2084  122469663.682 6  95430913.18543
     -3327.431       -2592.795
  22057199.848    22057199.9244   22057202.0654  115911370.301 7  90320556.89545
      1297.457        1010.995
  23142135.296    23142134.7644   23142136.9844  121612807.938 6  94763200.34543
      3480.548        2712.118
  21593396.357    21593396.4784   21593397.1644  113474068.932 8  88421367.08045
       489.289         381.265
  23704164.524    23704164.6484   23704165.9044  124566244.704 6  97064618.92942
      2865.476        2232.850
  22363953.607    22363953.3484   22363952.2084  117523364.588 7  91576660.11644
     -1974.115       -1538.287
  24009653.499    24009653.7484   24009655.1404  126171569.236 6  98315520.22442
     -2629.001       -2048.556
  24018707.447    24018706.5254   24018708.5324  126219143.594 6  98352587.66942
     -3472.075       -2705.526
 06  5 11 13 48  0.0000000  0  9G 2G 4G 6G10G13G16G23G25G30
  21322751.340    21322750.9984   21322750.7424  112051807.631 8  87313111.55746
     -1455.627       -1134.256
  23324225.003    23324225.2484   23324227.8504  122569621.313 6  95508802.25143
     -3336.900       -2600.201
  22049843.467    22049843.3894   22049845.3864  115872711.313 7  90290433.02745
      1279.506         997.042
  23122295.471    23122295.1834   23122298.4194  121508551.686 6  94681961.72543
      3469.585        2703.595
  21590664.700    21590665.0354   21590665.3984  113459714.043 8  88410181.43945
       467.155         364.018
  23687842.531    23687841.5904   23687842.9274  124480468.166 6  96997780.05942
      2852.513        2222.685
  22375273.955    22375273.9664   22375272.3834  117582852.713 7  91623014.55244
     -1992.207       -1552.375
  24024694.971    24024695.2344   24024696.7714  126250613.969 6  98377113.55242
     -2640.796       -2057.782
  24038553.711    24038554.6484   24038557.2084  126323446.329 6  98433862.35542
     -3481.602       -2712.914
 06  5 11 13 48 30.0000000  0  9G 2G 4G 6G10G13G16G23G25G30
  21331118.739    21331118.5444   21331118.1274  112095779.632 8  87347375.44746
     -1476.006       -1150.129
  23343301.658    23343301.4354   23343303.8074  122669867.299 6  95586915.95743
     -3346.317       -2607.502
  22042592.387    22042592.2064   22042594.1534  115834606.375 7  90260740.82845
      1260.944         982.562
  23102519.867    23102519.4134   23102521.9564  121404629.405 6  94600983.32143
      3458.442        2694.903
  21588061.495    21588061.9064   21588062.2244  113446034.436 8  88399521.97445
       444.725         346.565
  23671595.592    23671595.6694   23671596.4414  124395095.186 6  96931255.61442
      2839.154        2212.312
  22386699.974    22386699.5104   22386698.6274  117642896.190 7  91669801.67844
     -2010.648       -1566.708
  24039805.437    24039805.5264   24039807.2804  126330020.572 6  98438988.85442
     -2652.774       -2067.055
  24058458.090    24058457.9064   24058460.7664  126428037.469 6  98515361.69542
     -3491.099       -2720.278
 06  5 11 13 49  0.0000000  0  9G 2G 4G 6G10G13G16G23G25G30
  21339603.664    21339603.3974   21339603.0894  112140368.093 8  87382119.68546
     -1496.568       -1166.149
  23362432.294    23362433.0234   23362435.0604  122770402.487 6  95665255.08543
     -3355.952       -2615.009
  22035447.397    22035447.5224   22035449.3144  115797060.396 7  90231484.22745
      1242.229         967.969
  23082809.203    23082808.1304   23082810.6354  121301046.874 6  94520269.62143
      3447.134        2686.079
  21585587.396    21585587.9334   21585588.4324  113433033.678 8  88389391.44745
       421.930         328.795
  23655428.288    23655427.2674   23655429.4884  124310131.310 6  96865050.01242
      2825.248        2201.486
  22398231.479    22398231.4304   22398230.2354  117703496.019 7  91717022.28944
     -2029.350       -1581.313
  24054984.756    24054985.4884   24054987.2554  126409789.741 6  98501146.66643
     -2665.042       -2076.681
  24078416.387    24078416.0254   24078417.4294  126532916.992 6  98597085.74742
     -3500.623       -2727.725
 06  5 11 13 49 30.0000000  0  9G 2G 4G 6G10G13G16G23G25G30
  21348207.372    21348207.3114   21348206.8674  112185581.156 8  87417350.64146
     -1517.230       -1182.249
  23381620.338    23381619.8604   23381622.0784  122871234.157 6  95743825.23243
     -3365.699       -2622.613
  22028411.130    22028410.8794   22028413.0374  115760083.747 7  90202671.15545
      1223.149         953.113
  23063164.680    23063164.3254   23063166.7574  121197816.718 6  94439830.52243
      3435.258        2676.825
  21583245.033    21583244.9304   21583245.5794  113420722.013 8  88379797.92745
       399.236         311.104
  23639339.703    23639340.0264   23639339.9374  124225588.940 6  96799172.83442
      2811.169        2190.491
  22409870.686    22409870.4094   22409869.1664  117764659.661 7  91764682.25944
     -2047.886       -1595.759
  24070234.941    24070234.8734   24070236.7304  126489928.971 6  98563592.80242
     -2677.368       -2086.265
  24098430.115    24098430.8004   24098433.4414  126638092.572 6  98679040.84342
     -3510.722       -2735.653
 06  5 11 13 50  0.0000000  0  9G 2G 4G 6G10G13G16G23G25G30
  21356925.625    21356925.5414   21356925.0374  112231395.355 8  87453049.93146
     -1537.543       -1198.080
  23400859.414    23400859.4674   23400862.0764  122972337.969 6  95822607.45943
     -3375.053       -2629.917
  22021479.135    22021479.2714   22021481.0114  115723656.157 7  90174286.09545
      1204.679         938.700
  23043584.566    23043583.6994   23043586.3204  121094919.351 6  94359650.72743
      3424.037        2668.087
  21581029.162    21581029.3844   21581029.8174  113409077.843 8  88370724.52845
       376.517         293.383
  23623328.845    23623328.9694   23623329.0484  124141448.697 6  96733608.91342
      2797.314        2179.757
  22421612.416    22421612.1204   22421610.9624  117826363.050 7  91812762.77744
     -2066.247       -1610.043
  24085550.688    24085550.6374   24085552.8324  126570413.903 6  98626308.25542
     -2689.084       -2095.367
  24118495.693    24118496.0384   24118499.1204  126743537.980 6  98761205.85242
     -3519.621       -2742.530
 06  5 11 13 50 30.0000000  0  9G 2G 4G 6G10G13G16G23G25G30
  21365759.205    21365759.0334   21365758.4494  112277815.238 8  87489221.19146
     -1557.821       -1213.891
  23420151.324    23420151.6744   23420153.6764  123073717.408 6  95901604.39443
     -3384.350       -2637.180
  22014653.236    22014653.2384   22014654.7394  115687784.269 7  90146333.80945
      1186.105         924.243
  23024069.081    23024068.2384   23024071.0144  120992363.847 6  94279737.32743
      3412.342        2659.003
  21578941.564    21578941.7544   21578942.3904  113398107.924 8  88362176.48845
       354.009         275.852
  23607395.076    23607395.1594   23607396.7734  124057719.390 6  96668365.31142
      2783.657        2169.114
  22433457.857    22433457.5694   22433456.3994  117888610.118 7  91861266.94444
     -2084.402       -1624.211
  24100933.110    24100933.8064   24100934.7034  126651248.468 6  98689296.19042
     -2700.695       -2104.457
  24138612.530    24138613.7494   24138617.2584  126849257.163 6  98843584.38642
     -3528.908       -2749.816
 06  5 11 13 51  0.0000000  0  9G 2G 4G 6G10G13G16G23G25G30
  21374711.386    21374711.3564   21374710.7794  112324859.857 8  87525879.31546
     -1579.118       -1230.486
  23439499.103    23439499.0304   23439502.0584  123175390.560 6  95980830.22242
     -3394.622       -2645.178
  22007937.064    22007936.9544   22007938.8524  115652490.523 7  90118832.17845
      1166.329         908.845
  23004622.047    23004621.7134   23004624.1754  120890173.364 6  94200108.35343
      3399.745        2649.186
  21576986.371    21576986.3664   21576986.9794  113387832.480 8  88354169.60545
       330.229         257.326
  23591545.305    23591544.9564   23591546.7084  123974423.708 6  96603459.62742
      2768.549        2157.300
  22445410.452    22445409.8504   22445408.6524  117951419.417 7  91910209.20344
     -2103.677       -1639.237
  24116386.081    24116385.8934   24116387.4984  126732450.828 6  98752570.73242
     -2713.427       -2114.347
  24158786.866    24158787.6364   24158788.3204  126955267.392 6  98926189.81042
     -3538.982       -2757.552
 06  5 11 13 51 30.0000000  0  9G 2G 4G 6G10G13G16G23G25G30
  21383780.939    21383780.6404   21383780.1914  112372519.232 8  87563016.44546
     -1599.087       -1246.060
  23458900.344    23458901.0224   23458903.3674  123277346.903 6  96060276.77443
     -3403.571       -2652.153
  22001329.629    22001329.4834   22001331.2964  115617767.298 7  90091774.94345
      1147.638         894.241
  22985244.764    22985244.8714   22985245.6954  120788342.048 6  94120759.19443
      3388.062        2640.037
  21575161.714    21575161.8804   21575162.4554  113378244.079 8  88346698.13445
       307.896         239.906
  23575775.543    23575775.1434   23575776.9304  123891556.284 6  96538887.63743
      2754.712        2146.513
  22457467.547    22457467.2304   22457465.9784  118014780.596 7  91959581.50944
     -2121.509       -1653.135
  24131905.241    24131905.3684   24131907.9754  126814010.422 6  98816123.62942
     -2724.930       -2123.310
  24179013.607    24179013.6804   24179014.1114  127061557.077 6  99009012.64642
     -3547.997       -2764.740
 06  5 11 13 52  0.0000000  0  9G 2G 4G 6G10G13G16G23G25G30
  21392964.040    21392963.6024   21392963.1254  112420776.190 8  87600619.24145
     -1618.732       -1261.353
  23478352.424    23478352.9884   23478355.4844  123379568.395 6  96139929.86743
     -3412.048       -2658.732
  21994827.981    21994827.6754   21994830.0184  115583600.885 7  90065151.84045
      1129.605         880.224
  22965933.284    22965932.4324   22965934.8074  120686857.238 6  94041680.13643
      3376.975        2631.367
  21573464.865    21573465.0204   21573465.3534  113369326.813 8  88339749.59445
       285.818         222.719
  23560085.922    23560085.4924   23560086.2784  123809103.708 6  96474638.87943
      2741.344        2136.100
  22469626.164    22469626.0484   22469624.8234  118078675.789 7  92009369.90744
     -2138.885       -1666.672
  24147491.448    24147490.5824   24147491.5234  126895909.315 6  98879940.93142
     -2735.631       -2131.627
  24199289.172    24199289.8104   24199290.8554  127168108.675 6  99092039.93042
     -3556.110       -2770.989
 06  5 11 13 52 30.0000000  0  9G 2G 4G 6G10G13G16G23G25G30
  21402259.569    21402259.3564   21402258.8984  112469625.561 8  87638683.67946
     -1638.146       -1276.485
  23497854.225    23497854.6974   23497856.3984  123482048.759 6  96219784.59742
     -3420.363       -2665.251
  21988431.264    21988431.5704   21988433.1984  115549988.401 7  90038960.35345
      1111.202         865.845
  22946686.707    22946686.0344   22946687.7864  120585717.780 6  93962870.17843
      3365.561        2622.538
  21571894.817    21571895.1944   21571895.8814  113361077.758 8  88333321.79645
       263.826         205.567
  23544474.102    23544474.1014   23544475.0474  123727065.170 6  96410712.79542
      2727.645        2125.374
  22481885.547    22481885.4654   22481884.1994  118143099.190 7  92059569.90244
     -2156.305       -1680.249
  24163138.761    24163139.1834   24163140.6824  126978141.543 6  98944018.00042
     -2746.609       -2140.247
  24219613.576    24219615.3124   24219615.8824  127274915.418 6  99175266.12042
     -3564.468       -2777.499
 06  5 11 13 53  0.0000000  0  9G 2G 4G 6G10G13G16G23G25G30
  21411669.831    21411669.8704   21411669.3534  112519077.457 8  87677217.58046
     -1659.371       -1293.017
  23517406.519    23517407.2244   23517409.4414  123584797.797 6  96299848.82442
     -3430.214       -2672.907
  21982143.119    21982143.1234   21982145.0944  115516942.736 7  90013210.52245
      1091.077         850.170
  22927508.800    22927508.0074   22927511.2404  120484937.990 6  93884340.38843
      3352.305        2612.201
  21570454.825    21570454.7314   21570455.1844  113353508.780 8  88327423.89745
       240.057         187.073
  23528943.595    23528943.7454   23528945.3814  123645454.514 6  96347120.08843
      2712.402        2113.572
  22494247.531    22494247.0334   22494245.8564  118208060.248 7  92110188.86144
     -2175.150       -1694.921
  24178851.597    24178852.7664   24178854.9294  127060716.314 6  99008361.95642
     -2759.170       -2150.062
  24239988.242    24239988.6754   24239989.9904  127381985.415 6  99258697.38142
     -3574.301       -2785.240
 06  5 11 13 53 30.0000000  0  9G 2G 4G 6G10G13G16G23G25G30
  21421196.044    21421195.9804   21421195.2614  112569137.136 8  87716225.04545
     -1678.281       -1307.743
  23537011.504    23537010.7944   23537013.8954  123687819.581 6  96380125.51343
     -3438.048       -2678.999
  21975964.017    21975964.0994   21975966.1824  115484472.221 7  89987908.93945
      1073.264         836.318
  22908401.203    22908401.1844   22908402.5964  120384527.719 6  93806098.61243
      3341.374        2603.663
  21569145.238    21569145.3284   21569145.7334  113346627.140 8  88322061.52845
       218.406         170.196
  23513497.453    23513497.0584   23513498.1014  123564281.477 6  96283868.39043
      2699.084        2103.186
  22506712.078    22506712.0884   22506710.6414  118273563.914 7  92161230.61144
     -2191.927       -1707.971
  24194632.024    24194631.4544   24194632.6564  127143638.440 6  99072976.50542
     -2769.284       -2157.931
  24260413.703    24260414.2074   24260417.1414  127489323.021 6  99342337.22642
     -3581.649       -2790.785
 06  5 11 13 54  0.0000000  0  9G 2G 4G 6G10G13G16G23G25G30
  21430831.283    21430830.7884   21430830.4734  112619769.396 8  87755678.70146
     -1697.953       -1323.086
  23556660.536    23556661.0364   23556663.4344  123791078.543 6  96460587.06843
     -3446.548       -2685.615
  21969888.259    21969888.2394   21969889.9944  115452543.816 7  89963029.64045
      1054.652         821.816
  22889358.679    22889357.8334   22889360.3554  120284455.787 6  93728120.36643
      3329.464        2594.388
  21567960.118    21567960.3504   21567960.5834  113340399.480 8  88317208.76445
       195.974         152.691
  23498127.763    23498127.3844   23498128.4964  123483515.630 6  96220934.01443
      2684.759        2092.020
  22519273.601    22519273.3144   22519272.2694  118339574.501 7  92212667.38944
     -2209.410       -1721.622
  24210470.748    24210471.7994   24210472.8114  127226872.134 6  99137833.92842
     -2780.190       -2166.366
  24280884.860    24280884.8254   24280886.3774  127596891.490 6  99426156.52742
     -3589.972       -2797.346
 06  5 11 13 54 30.0000000  0  9G 2G 4G 6G10G13G16G23G25G30
  21440580.567    21440580.5654   21440580.1434  112671004.832 8  87795602.43345
     -1718.261       -1338.914
  23576360.876    23576361.5004   23576362.9394  123894604.097 6  96541256.35142
     -3455.673       -2692.763
  21963921.802    21963922.1404   21963923.9194  115421191.171 7  89938599.02845
      1035.052         806.527
  22870386.273    22870385.9004   22870388.3034  120184756.745 6  93650432.63243
      3316.671        2584.417
  21566905.313    21566905.7354   21566906.3084  113334857.951 8  88312890.69045
       172.853         134.686
  23482842.628    23482842.6324   23482843.8104  123403191.060 6  96158343.51143
      2669.642        2080.242
  22531937.498    22531936.6784   22531935.9194  118406121.655 7  92264522.25244
     -2227.603       -1735.792
  24226373.958    24226374.5354   24226376.6534  127310447.067 6  99202957.26342
     -2791.971       -2175.562
  24301403.101    24301402.6604   24301405.7124  127704720.304 6  99510179.04642
     -3599.028       -2804.440
 06  5 11 13 55  0.0000000  0  9G 2G 4G 6G10G13G16G23G25G30
  21450444.641    21450444.5484   21450443.7504  112722838.999 8  87835992.72045
     -1738.450       -1354.618
  23596110.978    23596111.6324   23596112.4384  123998390.754 6  96622129.00742
     -3464.543       -2699.615
  21958064.947    21958064.9974   21958067.1124  115390412.232 7  89914615.38345
      1015.654         791.433
  22851485.877    22851485.0594   22851486.7714  120085430.651 6  93573035.42543
      3303.876        2574.482
  21565981.188    21565981.3914   21565981.7724  113329999.820 8  88309105.14545
       149.875         116.812
  23467641.492    23467641.1544   23467642.0014  123323307.191 6  96096096.38743
      2654.785        2068.690
  22544702.148    22544701.8484   22544700.8044  118473200.229 7  92316791.20544
     -2245.467       -1749.706
  24242342.441    24242343.0324   24242344.9374  127394357.819 6  99268342.18442
     -2803.235       -2184.353
  24321971.264    24321971.1054   24321972.9814  127812803.390 6  99594399.31641
     -3607.709       -2811.108
 06  5 11 13 55 30.0000000  0  9G 2G 4G 6G10G13G16G23G25G30
  21460422.590    21460422.3764   21460422.0144  112775273.774 8  87876850.92645
     -1757.912       -1369.800
  23615910.369    23615910.4834   23615912.5284  124102440.934 6  96703207.13642
     -3472.853       -2706.096
  21952318.366    21952318.2104   21952320.2094  115360212.712 7  89891083.36845
       996.858         776.758
  22832656.636    22832656.7854   22832658.5754  119986484.980 6  93495934.88543
      3291.656        2564.921
  21565187.381    21565187.7644   21565188.0544  113325829.413 8  88305855.45545
       127.433          99.288
  23452524.861    23452524.6714   23452525.6314  123243870.650 6  96034197.71643
      2640.202        2057.272
  22557568.381    22557567.8284   22557566.7524  118540812.502 7  92369476.03644
     -2262.792       -1763.224
  24258374.577    24258374.1504   24258376.0894  127478606.324 6  99333990.28842
     -2814.221       -2192.879
  24342586.942    24342587.4054   24342589.5964  127921142.784 6  99678819.79142
     -3615.777       -2817.500
 06  5 11 13 56  0.0000000  0  9G 2G 4G 6G10G13G16G23G25G30
  21470513.068    21470513.0114   21470512.2824  112828299.536 8  87918169.69345
     -1777.521       -1385.107
  23635758.312    23635759.3154   23635761.5254  124206743.258 6  96784481.64242
     -3481.053       -2712.561
  21946680.462    21946680.1754   21946682.5214  115330584.563 7  89867996.37545
       977.838         761.943
  22813899.606    22813898.6584   22813900.5644  119887913.351 7  93419125.78143
      3279.433        2555.356
  21564523.070    21564523.3084   21564523.7054  113322337.836 8  88303134.70845
       104.784          81.651
  23437492.602    23437493.0524   23437493.7114  123164875.929 6  95972643.34143
      2625.512        2045.887
  22570534.124    22570533.7594   22570532.6404  118608947.492 7  92422568.16944
     -2280.192       -1776.787
  24274468.218    24274468.5504   24274470.7114  127563181.976 6  99399893.36242
     -2824.801       -2201.156
  24363249.852    24363249.1154   24363252.5964  128029727.445 6  99763431.76442
     -3623.534       -2823.608
 06  5 11 13 56 30.0000000  0  9G 2G 4G 6G10G13G16G23G25G30
  21480714.489    21480714.1074   21480713.6104  112881907.224 8  87959941.92445
     -1797.017       -1400.265
  23655653.068    23655653.4144   23655656.3484  124311288.624 6  96865945.61942
     -3489.239       -2718.902
  21941150.049    21941149.9064   21941151.6804  115301522.443 7  89845350.59245
       958.866         747.168
  22795212.190    22795211.1354   22795213.4554  119789711.600 6  93342604.94443
      3266.787        2545.523
  21563986.803    21563987.0484   21563987.3994  113319519.101 8  88300938.27145
        82.256          64.095
  23422543.933    23422543.5924   23422544.5924  123086318.511 6  95911429.81243
      2610.849        2034.436
  22583597.246    22583597.0274   22583595.6764  118677596.166 7  92476060.61044
     -2297.311       -1790.105
  24290623.244    24290623.1634   24290625.2994  127648075.321 6  99466043.93542
     -2835.456       -2209.446
  24383956.752    24383956.8094   24383957.5374  128138546.318 6  99848226.02441
     -3631.554       -2829.774
 06  5 11 13 57  0.0000000  0  9G 2G 4G 6G10G13G16G23G25G30
  21491025.709    21491025.5384   21491024.9824  112936094.085 8  88002165.47545
     -1816.449       -1415.396
  23675593.405    23675594.0514   23675595.6384  124416073.613 6  96947596.22942
     -3497.533       -2725.405
  21935727.230    21935727.4904   21935729.1484  115273026.417 7  89823145.97345
       939.808         732.312
  22776596.103    22776595.1714   22776597.8584  119691881.198 6  93266373.40843
      3254.045        2535.628
  21563578.197    21563578.3394   21563579.0024  113317372.198 8  88299265.35545
        59.860          46.635
  23407678.564    23407677.8004   23407680.1704  123008200.191 6  95850558.47343
      2596.035        2022.871
  22596757.972    22596757.8594   22596756.4464  118746755.367 7  92529950.89444
     -2314.304       -1803.370
  24306838.132    24306837.8954   24306839.8504  127733283.020 6  99532439.43142
     -2846.092       -2217.730
  24404708.304    24404707.9384   24404710.1324  128247595.253 6  99933199.21942
     -3639.544       -2836.048
 06  5 11 13 57 30.0000000  0  9G 2G 4G 6G10G13G16G23G25G30
  21501447.115    21501447.0434   21501446.6424  112990859.331 8  88044839.64245
     -1835.097       -1429.939
  23695578.106    23695579.1064   23695580.6174  124521096.446 6  97029432.20942
     -3504.736       -2730.952
  21930412.485    21930412.4384   21930414.2954  115245097.873 8  89801383.52545
       921.622         718.158
  22758050.771    22758050.0234   22758052.2544  119594425.405 6  93190433.78743
      3242.348        2526.487
  21563297.620    21563297.8704   21563298.3104  113315897.676 8  88298116.38045
        37.951          29.580
  23392896.858    23392896.5904   23392897.7834  122930523.348 6  95790031.08443
      2581.920        2011.905
  22610015.481    22610015.1004   22610014.0014  118816423.059 7  92584237.38344
     -2330.672       -1816.104
  24323112.008    24323112.2824   24323114.3244  127818803.608 6  99599078.83342
     -2855.791       -2225.288
  24425503.399    24425504.5774   24425505.5424  128356872.526 6 100018350.27041
     -3646.217       -2841.204
 06  5 11 13 58  0.0000000  0  9G 2G 4G 6G10G13G16G23G25G30
  21511981.966    21511981.9044   21511981.2514  113046220.603 8  88087978.30045
     -1855.128       -1445.565
  23715612.714    23715612.3604   23715614.3514  124626374.015 6  97111466.56742
     -3513.149       -2737.512
  21925209.749    21925209.6174   21925211.6164  115217757.369 7  89780079.30945
       901.730         702.642
  22739580.836    22739580.3094   22739583.0504  119497366.222 6  93114803.16443
      3228.902        2516.034
  21563148.423    21563148.9014   21563149.3724  113315114.468 8  88297506.07445
        14.794          11.533
  23378203.674    23378203.4124   23378204.7114  122853310.045 6  95729864.90943
      2566.349        1999.748
  22623372.851    22623372.7284   22623371.2004  118886616.655 7  92638933.69644
     -2348.196       -1829.782
  24339448.717    24339448.8124   24339449.9844  127904653.951 6  99665975.21542
     -2866.708       -2233.794
  24446344.768    24446344.8644   24446346.0754  128466394.583 6 100103692.11741
     -3654.412       -2847.585
 06  5 11 13 58 30.0000000  0  9G 2G 4G 6G10G13G16G23G25G30
  21522627.257    21522627.0524   21522626.5044  113102160.898 7  88131568.20345
     -1875.228       -1461.213
  23735691.549    23735691.3134   23735693.3664  124731888.656 6  97193685.59042
     -3522.030       -2744.469
  21920116.068    21920116.0974   21920117.9664  115190990.497 7  89759222.01045
       881.613         686.963
  22721184.473    22721183.3534   22721185.7654  119400691.556 6  93039472.27743
      3215.135        2505.309
  21563128.360    21563128.5804   21563128.9654  113315007.721 8  88297422.85645
        -8.668          -6.737
  23363595.753    23363596.2224   23363597.4364  122776547.469 6  95670049.93643
      2550.174        1987.137
  22636826.607    22636826.5544   22636825.6064  118957318.671 7  92694026.16444
     -2366.227       -1843.829
  24355844.992    24355844.8074   24355847.2514  127990816.307 6  99733114.60342
     -2878.314       -2242.856
  24467228.746    24467228.7244   24467232.2064  128576143.404 5 100189210.52441
     -3663.046       -2854.349
 06  5 11 13 59  0.0000000  0  9G 2G 4G 6G10G13G16G23G25G30
  21533384.523    21533384.5364   21533383.8704  113158691.649 8  88175618.08045
     -1893.701       -1475.590
  23755816.977    23755817.3524   23755820.0154  124837651.830 6  97276098.41142
     -3528.922       -2749.808
  21915134.658    21915134.4794   21915136.5044  115164811.651 7  89738822.92445
       863.130         672.556
  22702863.859    22702863.4574   22702866.2164  119304417.377 7  92964453.45943
      3202.918        2495.766
  21563239.129    21563239.4564   21563239.6824  113315590.692 8  88297877.12445
       -30.523         -23.782
  23349077.324    23349077.2764   23349078.1034  122700251.907 6  95610598.85843
      2535.768        1975.961
  22650379.621    22650379.6514   22650378.2684  119028540.070 7  92749523.32644
     -2382.262       -1856.300
  24372303.279    24372303.2164   24372304.7224  128077301.952 6  99800505.94042
     -2887.810       -2250.249
  24488158.272    24488158.4604   24488161.1704  128686129.705 6 100274914.09841
     -3669.679       -2859.421
 06  5 11 13 59 30.0000000  0  9G 2G 4G 6G10G13G16G23G25G30
  21544251.340    21544251.2064   21544250.7214  113215795.231 8  88220114.32945
     -1912.931       -1490.598
  23775987.064    23775987.6694   23775989.7794  124943645.242 6  97358690.54042
     -3536.950       -2756.014
  21910261.984    21910261.9264   21910264.0144  115139206.407 7  89718870.88645
       843.984         657.640
  22684617.947    22684616.6814   22684618.7574  119208530.396 6  92889736.27043
      3189.760        2485.519
  21563478.376    21563478.6664   21563479.1074  113316847.683 8  88298856.57345
       -53.111         -41.402
  23334645.728    23334645.4924   23334646.4914  122624409.960 6  95551501.22543
      2520.472        1964.007
  22664028.488    22664027.9404   22664026.8974  119100262.827 7  92805411.15844
     -2399.034       -1869.386
  24388818.020    24388819.6824   24388820.5014  128164092.773 6  99868135.00642
     -2897.962       -2258.167
  24509130.444    24509131.0474   24509131.9004  128796334.588 6 100360787.82141
     -3677.023       -2865.183
 06  5 11 14  0  0.0000000  0  9G 2G 4G 6G10G13G16G23G25G30
  21555225.886    21555225.7664   21555225.4394  113273468.474 8  88265054.47245
     -1932.123       -1505.566
  23796200.028    23796200.8104   23796202.9004  125049865.326 6  97441459.42142
     -3544.638       -2762.045
  21905498.429    21905498.2894   21905500.0094  115114173.865 7  89699365.10445
       824.695         642.601
  22666444.946    22666444.2114   22666446.4224  119113032.016 6  92815322.02343
      3176.615        2475.269
  21563845.734    21563845.8374   21563846.1664  113318777.113 8  88300360.02045
       -75.763         -59.040
  23320299.564    23320299.0134   23320300.6214  122549022.443 6  95492757.68143
      2504.890        1951.845
  22677771.404    22677771.0594   22677770.0694  119172483.307 7  92861686.83344
     -2415.958       -1882.570
  24405391.541    24405392.0074   24405394.3334  128251184.733 6  99935998.57942
     -2908.514       -2266.394
  24530142.140    24530143.0564   24530143.7284  128906753.945 5 100446828.70241
     -3684.425       -2870.948
 06  5 11 14  0 30.0000000  0  9G 2G 4G 6G10G13G16G23G25G30
  21566311.972    21566311.9084   21566311.4094  113331725.762 7  88310449.76145
     -1952.043       -1521.060
  23816459.043    23816458.8304   23816462.5454  125156325.735 6  97524415.59842
     -3553.026       -2768.603
  21900847.280    21900847.0104   21900848.9154  115089731.119 7  89680318.86445
       804.429         626.828
  22648349.417    22648349.1364   22648350.6994  119017940.583 6  92741224.72043
      3162.476        2464.302
  21564344.060    21564344.0724   21564344.5294  113321395.060 8  88302399.97145
       -99.162         -77.256
  23306044.362    23306044.0164   23306044.7984  122474108.355 6  95434383.05043
      2488.726        1939.318
  22691611.935    22691611.5434   22691610.9374  119245215.770 7  92918361.45844
     -2433.360       -1896.116
  24422025.561    24422025.5764   24422027.6564  128338592.375 6 100004108.36342
     -2919.344       -2274.812
  24551197.747    24551197.5664   24551201.3804  129017401.558 6 100533047.72341
     -3692.354       -2877.166
 06  5 11 14  1  0.0000000  0  9G 2G 4G 6G10G13G16G23G25G30
  21577507.731    21577507.7854   21577507.2214  113390559.859 8  88356294.60245
     -1970.903       -1535.777
  23836762.362    23836761.9734   23836764.3414  125263018.394 6  97607552.65842
     -3560.393       -2774.325
  21896306.741    21896306.8974   21896308.7054  115065874.449 7  89661729.67745
       785.286         611.904
  22630331.342    22630330.0324   22630332.8424  118923253.270 7  92667442.23943
      3149.255        2453.981
  21564972.009    21564972.2214   21564972.7394  113324695.961 8  88304972.09545
      -121.531         -94.702
  23291878.266    23291877.2344   23291878.5214  122399664.351 6  95376374.70843
      2473.519        1927.409
  22705548.357    22705547.8714   22705547.0894  119318451.500 7  92975428.23744
     -2449.672       -1908.843
  24438716.852    24438716.3944   24438718.6954  128426307.193 6 100072457.49342
     -2929.049       -2282.398
  24572295.195    24572294.9634   24572299.7634  129128268.237 5 100619437.26641
     -3699.352       -2882.601
 06  5 11 14  1 30.0000000  0  9G 2G 4G 6G10G13G16G23G25G30
  21588809.313    21588809.1464   21588808.5924  113449950.019 8  88402572.65845
     -1989.190       -1550.026
  23857104.787    23857105.1524   23857108.2884  125369922.619 6  97690854.64642
     -3567.151       -2779.599
  21891875.040    21891875.0994   21891876.6014  115042585.167 7  89643582.39045
       766.469         597.228
  22612386.663    22612386.1554   22612388.0864  118828954.808 6  92593962.93143
      3136.508        2444.056
  21565726.616    21565726.7814   21565727.3244  113328661.178 8  88308061.88645
      -143.521        -111.831
  23277798.217    23277797.2474   23277798.9854  122325674.321 6  95318720.12943
      2458.440        1915.660
  22719576.910    22719576.1394   22719575.1944  119392169.915 7  93032871.12244
     -2465.595       -1921.225
  24455462.717    24455462.8974   24455465.3644  128514308.630 6 100141029.95142
     -2938.362       -2289.656
  24593430.003    24593431.1544   24593430.4734  129239333.242 5 100705981.41341
     -3705.692       -2887.527
 06  5 11 14  2  0.0000000  0  9G 2G 4G 6G10G13G16G23G25G30
  21600218.388    21600218.0244   21600217.8674  113509904.411 8  88449290.33845
     -2007.823       -1564.547
  23877490.549    23877489.9564   23877492.9664  125477045.911 6  97774327.24242
     -3574.370       -2785.240
  21887552.983    21887552.9894   21887554.7334  115019873.973 7  89625885.49545
       747.348         582.336
  22594518.812    22594517.6754   22594520.2434  118735057.237 7  92520795.98243
      3123.176        2433.588
  21566609.277    21566609.7674   21566610.0304  113333300.197 8  88311676.71045
      -165.882        -129.270
  23263807.095    23263807.5804   23263808.4784  122252150.723 6  95261428.94643
      2442.931        1903.614
  22733698.277    22733697.8604   22733696.6774  119466378.837 7  93090696.24044
     -2481.860       -1933.932
  24472264.792    24472265.7544   24472266.8934  128602604.177 6 100209831.57342
     -2948.245       -2297.298
  24614604.396    24614605.3444   24614606.9574  129350603.145 5 100792685.21641
     -3712.400       -2892.813
 06  5 11 14  2 30.0000000  0  9G 2G 4G 6G10G13G16G23G25G30
  21611733.486    21611733.1834   21611732.8194  113570416.363 8  88496442.47145
     -2026.938       -1579.425
  23897915.056    23897916.1364   23897918.0634  125584380.965 6  97857964.81942
     -3581.959       -2791.125
  21883340.582    21883340.5204   21883342.0624  114997737.144 8  89608636.04445
       727.725         567.057
  22576726.084    22576725.9504   22576728.1774  118641558.667 7  92447940.03443
      3109.278        2422.789
  21567619.392    21567619.7184   21567620.0134  113338608.024 8  88315812.67445
      -188.561        -146.919
  23249904.341    23249903.8584   23249905.5364  122179091.053 6  95204499.31143
      2427.047        1891.172
  22747911.551    22747911.2334   22747910.4814  119541070.598 7  93148897.58444
     -2498.237       -1946.678
  24489122.228    24489121.3144   24489124.4274  128691186.470 6 100278856.58542
     -2958.058       -2304.960
  24635815.962    24635816.0124   24635818.8684  129462070.656 5 100879543.01741
     -3719.592       -2898.316
 06  5 11 14  3  0.0000000  0  8G 2G 4G 6G10G13G16G23G25
  21623358.509    21623358.2424   21623357.8514  113631506.568 8  88544045.22245
     -2046.006       -1594.290
  23918384.805    23918384.6324   23918387.0694  125691948.275 6  97941783.46842
     -3589.407       -2796.948
  21879241.793    21879241.8374   21879243.3774  114976198.043 7  89591852.33145
       708.073         551.744
  22559014.695    22559013.7594   22559016.6774  118548483.307 6  92375413.62943
      3095.399        2412.027
  21568760.906    21568761.0764   21568761.4844  113344606.971 8  88320487.18745
      -211.574        -164.870
  23236094.025    23236094.0114   23236095.9934  122106519.974 6  95147950.37143
      2410.972        1878.677
  22762220.629    22762220.2734   22762219.1814  119616265.648 7  93207491.12644
     -2514.869       -1959.627
  24506037.012    24506036.7764   24506039.1484  128780075.912 6 100348121.04942
     -2967.964       -2312.737
 06  5 11 14  3 30.0000000  0  8G 2G 4G 6G10G13G16G23G25
  21635089.872    21635089.8684   21635089.3724  113693156.108 8  88592083.79245
     -2064.148       -1608.467
  23938894.836    23938895.5764   23938897.2074  125799728.429 6  98025767.93542
     -3595.976       -2802.097
  21875253.885    21875253.7304   21875255.3664  114955240.607 7  89575521.82645
       688.996         536.861
  22541381.638    22541380.2164   22541383.2554  118455817.837 6  92303206.73143
      3082.135        2401.644
  21570030.887    21570030.8874   21570031.3934  113351279.809 8  88325686.82045
      -233.542        -181.993
  23222375.078    23222374.3814   23222375.8334  122034423.316 6  95091771.12843
      2395.442        1866.557
  22776621.943    22776621.5984   22776620.6984  119691944.984 7  93266462.04544
     -2530.502       -1971.837
  24523006.703    24523007.1144   24523009.1154  128869253.569 6 100417610.29542
     -2977.166       -2319.898
 06  5 11 14  4  0.0000000  0  8G 2G 4G 6G10G13G16G23G25
  21646928.800    21646928.6354   21646928.1894  113755369.231 8  88640561.50045
     -2084.206       -1624.070
  23959445.694    23959445.9684   23959449.4274  125907725.375 6  98109921.27142
     -3604.597       -2808.785
  21871377.793    21871377.8454   21871379.5334  114934872.355 7  89559650.50745
       667.879         520.432
  22523827.152    22523826.6404   22523828.7944  118363571.059 7  92231326.08343
      3066.752        2389.669
  21571430.125    21571430.3104   21571430.7394  113358632.973 8  88331416.56745
      -257.521        -200.662
  23208746.835    23208747.4374   23208748.0904  121962809.949 6  95035968.51443
      2377.766        1852.788
  22791115.854    22791115.9074   22791114.2604  119768112.268 7  93325813.17844
     -2548.195       -1985.624
  24540032.489    24540032.9664   24540033.8714  128958723.193 6 100487327.04442
     -2988.488       -2328.707
 06  5 11 14  4 30.0000000  0  8G 2G 4G 6G10G13G16G23G25
  21658875.404    21658875.3424   21658874.7884  113818149.430 8  88689481.07745
     -2102.407       -1638.246
  23980039.462    23980039.0154   23980041.9064  126015942.424 6  98194246.10142
     -3611.139       -2813.858
  21867615.201    21867614.9744   21867616.5394  114915099.069 8  89544242.80845
       648.922         505.671
  22506354.113    22506353.3714   22506356.0834  118271750.972 7  92159777.98543
      3053.268        2379.149
  21572959.832    21572959.9494   21572960.4894  113366671.441 8  88337680.29045
      -279.623        -217.881
  23195213.645    23195212.8714   23195213.6644  121891687.620 6  94980548.55743
      2362.299        1840.793
  22805703.236    22805703.2524   22805702.2914  119844770.483 7  93385546.85644
     -2563.646       -1997.657
  24557114.161    24557113.3374   24557115.9874  129048487.239 6 100557273.02742
     -2997.257       -2335.553
 06  5 11 14  5  0.0000000  0  8G 2G 4G 6G10G13G16G23G25
  21670927.601    21670927.6634   21670927.1674  113881483.968 8  88738832.61345
     -2120.432       -1652.270
  24000671.253    24000671.2674   24000674.1994  126124365.220 6  98278730.93642
     -3617.626       -2818.859
  21863963.629    21863963.4644   21863965.0034  114895910.633 7  89529290.85645
       629.826         490.783
  22488960.922    22488960.4554   22488962.8044  118180349.163 7  92088555.95043
      3039.677        2368.635
  21574617.339    21574617.7894   21574618.1494  113375383.403 8  88344468.80145
      -301.672        -235.060
  23181770.763    23181770.6634   23181771.8324  121821047.110 6  94925504.00643
      2346.481        1828.423
  22820381.958    22820381.4714   22820380.3144  119921906.283 7  93445652.71344
     -2579.172       -2009.738
  24574249.052    24574249.3894   24574252.4234  129138532.707 6 100627438.36742
     -3006.276       -2342.589
 06  5 11 14  5 30.0000000  0  8G 2G 4G 6G10G13G16G23G25
  21683083.874    21683083.7114   21683083.1674  113945364.531 8  88788609.69845
     -2138.547       -1666.381
  24021341.964    24021342.2154   24021344.7404  126232986.101 6  98363370.18842
     -3624.238       -2824.083
  21860422.635    21860422.0524   21860423.5944  114877301.145 7  89514790.04145
       610.509         475.749
  22471646.311    22471645.8664   22471648.3914  118089361.683 7  92017656.72643
      3025.885        2357.814
  21576402.229    21576402.4654   21576402.8434  113384762.213 8  88351776.92345
      -323.927        -252.415
  23168419.622    23168418.7494   23168420.2754  121750884.607 6  94870831.99843
      2330.529        1815.991
  22835149.805    22835149.5514   22835147.7464  119999510.806 7  93506123.77744
     -2594.787       -2021.917
  24591436.364    24591435.0824   24591437.1994  129228850.712 6 100697815.99842
     -3015.357       -2349.601
 06  5 11 14  6  0.0000000  0  8G 2G 4G 6G10G13G16G23G25
  21695345.690    21695345.6124   21695345.3634  114009802.405 7  88838821.03845
     -2156.879       -1680.670
  24042051.008    24042051.9544   24042053.7154  126341816.702 6  98448173.14242
     -3630.875       -2829.208
  21856993.844    21856993.9104   21856995.0724  114859285.018 7  89500751.46645
       590.923         460.477
  22454414.172    22454413.3984   22454416.0454  117998804.893 7  91947093.09644
      3011.649        2346.732
  21578316.691    21578316.5124   21578317.2664  113394821.284 8  88359615.11445
      -346.359        -269.867
  23155161.729    23155162.0704   23155163.0724  121681216.437 6  94816545.20743
      2314.203        1803.276
  22850008.863    22850008.3284   22850007.3394  120077595.004 7  93566968.63644
     -2610.590       -2034.228
  24608676.923    24608677.6374   24608678.5674  129319452.614 6 100768414.81442
     -3024.619       -2356.881
 06  5 11 14  6 30.0000000  0  8G 2G 4G 6G10G13G16G23G25
  21707712.267    21707712.0154   21707711.5044  114074788.088 7  88889459.21745
     -2175.270       -1695.035
  24062799.752    24062799.4144   24062802.8544  126450847.059 6  98533131.88442
     -3637.607       -2834.535
  21853677.056    21853677.2424   21853678.6174  114841855.567 7  89487170.01245
       571.436         445.272
  22437262.532    22437262.2724   22437264.8794  117908673.973 7  91876861.37044
      2997.281        2335.474
  21580358.736    21580358.8614   21580359.4514  113405552.752 8  88367977.25845
      -368.784        -287.393
  23141997.591    23141996.9784   23141998.0814  121612036.981 6  94762639.12243
      2298.078        1790.674
  22864956.767    22864956.8374   22864955.5804  120156149.161 7  93628179.66344
     -2626.084       -2046.299
  24625969.200    24625970.5614   24625972.2754  129410328.472 6 100839227.10342
     -3033.477       -2363.752
 06  5 11 14  7  0.0000000  0  8G 2G 4G 6G10G13G16G23G25
  21720182.359    21720182.2204   21720181.6594  114140319.574 7  88940522.69445
     -2194.026       -1709.606
  24083584.895    24083583.7804   24083587.2444  126560074.184 6  98618243.93642
     -3644.612       -2839.948
  21850472.241    21850472.1484   21850473.7204  114825013.232 7  89474046.05545
       551.159         429.494
  22420192.483    22420192.2344   22420194.4384  117818971.115 7  91806963.20744
      2982.520        2324.037
  21582528.628    21582528.8514   21582529.3254  113416956.097 8  88376862.95445
      -391.871        -305.338
  23128926.427    23128926.0044   23128927.1934  121543348.384 6  94709115.52943
      2280.960        1777.372
  22879994.462    22879993.7824   22879992.3214  120235170.716 7  93689754.86744
     -2642.323       -2058.961
  24643314.542    24643315.6564   24643317.1114  129501475.849 6 100910250.95242
     -3043.015       -2371.164
 06  5 11 14  7 30.0000000  0  9G 2G 4G 6G 7G10G13G16G23G25
  21732756.396    21732756.3384   21732755.8574  114206397.334 8  88992011.94445
     -2211.788       -1723.477
  24104407.259    24104407.8864   24104409.7934  126669498.469 6  98703509.87842
     -3650.652       -2844.626
  21847379.649    21847379.6054   21847380.7944  114808761.505 7  89461382.51945
       531.718         414.298
  24832762.062    24832760.7974   24832763.4724  130497083.856 5 101686029.72541
      3404.992        2653.217
  22403204.939    22403204.3344   22403206.6704  117729700.708 7  91737401.78144
      2968.332        2312.966
  21584826.651    21584826.9714   21584827.3504  113429033.119 8  88386273.62245
      -413.963        -322.569
  23115949.365    23115949.5024   23115950.5644  121475155.595 6  94655978.31943
      2264.622        1764.629
  22895120.010    22895119.9294   22895118.7384  120314659.202 7  93751693.92844
     -2657.539       -2070.835
  24660711.319    24660710.7784   24660711.6984  129592894.774 6 100981486.44942
     -3051.943       -2378.111
 06  5 11 14  8  0.0000000  0  9G 2G 4G 6G 7G10G13G16G23G25
  21745434.348    21745434.3974   21745433.5584  114273020.355 8  89043925.97945
     -2230.356       -1737.941
  24125266.282    24125266.4154   24125270.1734  126779118.282 6  98788927.74142
     -3657.751       -2850.219
  21844399.918    21844399.5424   21844401.3024  114793101.741 8  89449180.01345
       511.695         398.719
  24813341.709    24813340.9144   24813343.9614  130395029.761 6 101606507.21641
      3398.225        2647.925
  22386300.718    22386299.4854   22386302.5784  117640867.835 7  91668181.51244
      2953.265        2301.230
  21587253.020    21587253.4374   21587253.9944  113441784.994 8  88396210.14645
      -436.774        -340.365
  23103068.389    23103067.7444   23103069.2164  121407462.360 6  94603230.33043
      2247.717        1751.488
  22910334.836    22910334.6004   22910333.7334  120394613.951 7  93813996.38644
     -2673.330       -2083.099
  24678159.303    24678158.3074   24678160.8744  129684584.584 6 101052933.08842
     -3061.133       -2385.344
 06  5 11 14  8 30.0000000  0  9G 2G 4G 6G 7G10G13G16G23G25
  21758216.154    21758215.9904   21758215.4684  114340188.579 7  89096264.83445
     -2248.278       -1751.912
  24146164.954    24146165.9444   24146168.3094  126888932.233 6  98874496.13042
     -3663.952       -2855.015
  21841533.130    21841532.9474   21841534.5594  114778036.925 7  89437441.23845
       492.008         383.361
  24793958.295    24793956.6414   24793959.7604  130293171.921 5 101527137.45341
      3391.702        2642.838
  22369480.218    22369479.5364   22369481.7254  117552475.908 7  91599304.66844
      2938.743        2289.911
  21589808.485    21589808.6844   21589809.5314  113455212.685 8  88406673.26345
      -459.164        -357.809
  23090282.602    23090282.4234   23090283.4364  121340272.582 6  94550874.63243
      2231.059        1738.486
  22925638.900    22925638.1894   22925637.1674  120475034.635 7  93876661.93943
     -2688.693       -2095.108
  24695658.979    24695658.2104   24695661.1434  129776544.386 6 101124590.07042
     -3070.035       -2392.237
 06  5 11 14  9  0.0000000  0  9G 2G 4G 6G 7G10G13G16G23G25
  21771099.624    21771099.4074   21771099.1624  114407891.297 7  89149020.16845
     -2265.952       -1765.662
  24167096.406    24167097.5314   24167100.4104  126998932.743 6  98960210.83042
     -3669.939       -2859.706
  21838778.073    21838777.6064   21838779.3434  114763558.978 7  89426159.72845
       472.388         368.127
  24774611.747    24774610.6734   24774614.6144  130191504.483 6 101447916.02241
      3385.237        2637.904
  22352742.855    22352742.0134   22352744.4644  117464519.833 7  91530767.65044
      2924.233        2278.621
  21592490.961    21592490.9774   21592491.5684  113469307.572 8  88417656.28945
      -481.318        -375.052
  23077591.053    23077591.1754   23077591.1204  121273579.902 6  94498906.21643
      2214.360        1725.501
  22941028.900    22941028.5664   22941027.4164  120555910.147 7  93939681.86143
     -2703.764       -2106.845
  24713206.967    24713208.0654   24713209.2084  129868763.153 6 101196448.75142
     -3078.670       -2398.994
 06  5 11 14  9 30.0000000  0  9G 2G 4G 6G 7G10G13G16G23G25
  21784086.711    21784086.0194   21784085.7464  114476135.917 7  89202197.63845
     -2284.190       -1779.871
  24188065.067    24188066.0234   24188069.2394  127109126.249 6  99046076.50942
     -3676.735       -2864.955
  21836136.744    21836136.2674   21836138.0534  114749678.100 7  89415343.49145
       452.423         352.522
  24755303.461    24755302.8384   24755307.5484  130090039.380 6 101368852.28141
      3378.462        2632.631
  22336090.426    22336089.6864   22336091.6424  117377011.031 7  91462579.12344
      2909.097        2266.821
  21595301.797    21595301.8194   21595302.3534  113484078.240 8  88429165.90445
      -503.861        -392.614
  23064997.058    23064996.4714   23064997.4824  121207396.428 6  94447334.67843
      2197.355        1712.224
  22956506.409    22956506.3644   22956505.4554  120637247.312 7  94003061.54843
     -2719.129       -2118.781
  24730806.175    24730806.2114   24730809.0174  129961248.300 6 101268515.07242
     -3087.633       -2405.939
 06  5 11 14 10  0.0000000  0  9G 2G 4G 6G 7G10G13G16G23G25
  21797173.857    21797173.8434   21797173.2764  114544912.758 8  89255790.08845
     -2301.582       -1793.462
  24209068.996    24209068.7274   24209072.4874  127219501.030 6  99132083.45842
     -3682.269       -2869.302
  21833606.907    21833607.0804   21833608.5704  114736386.207 8  89404986.18745
       433.012         337.392
  24736032.697    24736033.1664   24736032.9354  129988771.045 6 101289942.06641
      3372.106        2627.626
  22319521.307    22319520.9734   22319523.5664  117289943.688 7  91394734.50744
      2894.701        2255.586
  21598239.148    21598239.4774   21598240.1934  113499515.778 8  88441195.14945
      -525.775        -409.687
  23052498.651    23052498.1514   23052499.5494  121141715.960 6  94396155.13143
      2180.831        1699.321
  22972070.759    22972069.8454   22972068.6994  120719034.966 7  94066792.27343
     -2733.805       -2130.244
  24748455.232    24748456.0504   24748456.1004  130053988.723 6 101340780.22542
     -3095.762       -2412.274
 06  5 11 14 10 30.0000000  0  9G 2G 4G 6G 7G10G13G16G23G25
  21810360.436    21810360.2334   21810359.6664  114614208.219 7  89309786.64545
     -2318.286       -1806.432
  24230103.923    24230104.7724   24230107.3204  127330043.922 6  99218221.23542
     -3687.701       -2873.525
  21831187.724    21831187.7214   21831189.2754  114723673.193 7  89395079.96745
       414.407         322.919
  24716797.988    24716798.0904   24716800.7884  129887690.145 5 101211177.65041
      3366.178        2622.935
  22303036.168    22303034.8204   22303037.7864  117203309.829 7  91327227.62144
      2880.775        2244.784
  21601301.578    21601301.8244   21601302.4324  113515608.996 8  88453735.34345
      -547.213        -426.400
  23040094.054    23040093.2224   23040094.3814  121076529.605 6  94345360.53643
      2164.707        1686.809
  22987717.301    22987716.8074   22987715.5664  120801260.029 6  94130863.76343
     -2748.095       -2141.351
  24766148.717    24766149.9134   24766149.7964  130146972.017 6 101413234.76642
     -3103.506       -2418.359
 06  5 11 14 11  0.0000000  0  9G 2G 4G 6G 7G10G13G16G23G25
  21823643.154    21823643.3344   21823642.7624  114684010.910 8  89364178.36145
     -2335.544       -1819.884
  24251169.537    24251169.5224   24251171.8804  127440743.642 5  99304481.11542
     -3693.218       -2877.860
  21828877.123    21828877.3694   21828878.7124  114711530.586 7  89385618.10345
       395.094         307.872
  24697598.304    24697596.9374   24697598.5434  129786791.119 6 101132555.05941
      3359.822        2618.076
  22286631.512    22286630.2024   22286632.8964  117117103.119 7  91260053.55044
      2866.129        2233.361
  21604486.785    21604487.2244   21604487.8924  113532348.422 8  88466779.08845
      -569.047        -443.397
  23027781.807    23027782.0774   23027783.5134  121011831.090 6  94294946.10343
      2148.106        1673.869
  23003445.279    23003444.8404   23003444.1374  120883911.009 6  94195267.08943
     -2762.438       -2152.527
  24783886.921    24783886.8414   24783888.9444  130240186.057 6 101485868.94242
     -3111.360       -2424.414
 06  5 11 14 11 30.0000000  0  9G 2G 4G 6G 7G10G13G16G23G25
  21837026.752    21837026.9354   21837026.4954  114754341.656 8  89418981.53445
     -2353.657       -1834.011
  24272267.934    24272269.0384   24272271.8714  127551621.012 5  99390879.69142
     -3699.345       -2882.615
  21826679.530    21826679.6194   21826681.0114  114699981.569 7  89376618.74445
       374.567         291.871
  24678435.828    24678435.2074   24678437.7804  129686098.462 5 101054093.24341
      3352.386        2612.207
  22270312.556    22270312.0054   22270314.6844  117031348.411 7  91193231.63744
      2850.370        2221.043
  21607799.587    21607799.6094   21607800.3814  113549755.614 8  88480343.16145
      -591.966        -461.274
  23015567.474    23015567.7024   23015568.5564  120947645.317 6  94244931.30243
      2130.327        1659.988
  23019258.214    23019257.6704   23019256.5904  120967008.356 6  94260018.26243
     -2777.941       -2164.645
  24801673.160    24801673.5344   24801674.6744  130333651.463 5 101558698.99942
     -3120.190       -2431.385
 06  5 11 14 12  0.0000000  0  9G 2G 4G 6G 7G10G13G16G23G25
  21850512.141    21850511.9494   21850511.5864  114825206.793 7  89474201.05845
     -2371.128       -1847.618
  24293402.971    24293401.9664   24293404.8374  127662680.309 6  99477419.08242
     -3704.842       -2886.934
  21824596.626    21824596.4884   21824598.3374  114689035.220 7  89368088.99845
       354.641         276.343
  24659316.146    24659315.7134   24659319.5004  129585623.323 5 100975800.96941
      3345.477        2606.854
  22254082.200    22254081.6554   22254084.3364  116946057.011 7  91126770.85944
      2835.233        2209.284
  21611240.463    21611240.6604   21611241.2994  113567838.539 8  88494433.78645
      -614.190        -478.584
  23003453.117    23003452.9074   23003454.1744  120883982.286 6  94195323.69243
      2113.258        1646.675
  23035157.173    23035156.9734   23035155.6024  121050557.744 6  94325121.63043
     -2792.566       -2175.987
  24819507.824    24819507.6774   24819510.0504  130427374.640 6 101631730.06842
     -3128.325       -2437.645
 06  5 11 14 12 30.0000000  0  9G 2G 4G 6G 7G10G13G16G23G25
  21864097.016    21864096.7674   21864096.3524  114896595.056 7  89529828.22045
     -2388.380       -1861.062
  24314568.732    24314570.1914   24314571.5614  127773912.517 6  99564093.72642
     -3710.881       -2891.591
  21822626.687    21822626.7264   21822628.3864  114678682.803 7  89360022.12745
       335.173         261.174
  24640236.867    24640236.8824   24640238.8304  129485358.570 5 100897672.53141
      3338.462        2601.380
  22237938.525    22237937.8054   22237940.4544  116861222.058 7  91060665.76244
      2820.054        2197.438
  21614808.260    21614808.4004   21614809.0964  113586587.477 8  88509043.37645
      -636.126        -495.691
  22991436.551    22991436.2024   22991437.5104  120820835.361 6  94146118.28443
      2096.106        1633.339
  23051139.344    23051139.3264   23051138.1394  121134547.368 6  94390568.05643
     -2807.160       -2187.404
  24837389.213    24837390.4954   24837393.6694  130521343.517 6 101704952.49842
     -3136.624       -2444.168
 06  5 11 14 13  0.0000000  0  9G 2G 4G 6G 7G10G13G16G23G25
  21877777.918    21877777.5794   21877777.3154  114968490.445 7  89585850.73345
     -2405.576       -1874.470
  24335765.877    24335766.1724   24335768.0474  127885298.344 5  99650886.95142
     -3716.148       -2895.700
  21820767.276    21820767.1194   21820768.6414  114668910.912 8  89352407.68145
       315.315         245.719
  24621194.442    24621194.7654   24621198.8784  129385292.807 6 100819699.18541
      3331.597        2596.089
  22221880.194    22221879.0744   22221881.6964  116776831.787 7  90994907.09744
      2804.890        2185.612
  21618499.930    21618500.3434   21618500.5974  113605987.530 8  88524160.32145
      -658.235        -512.916
  22979516.307    22979515.9754   22979517.1214  120758192.380 6  94097305.48543
      2078.969        1619.990
  23067203.004    23067203.0464   23067201.5714  121218960.805 6  94456344.76043
     -2821.458       -2198.563
  24855314.560    24855314.5124   24855316.9204  130615542.001 6 101778353.89841
     -3144.496       -2450.206
 06  5 11 14 13 30.0000000  0  9G 2G 4G 6G 7G10G13G16G23G25
  21891558.669    21891558.6464   21891558.3744  115040909.151 7  89642280.94645
     -2422.541       -1887.689
  24356994.949    24356995.5594   24356998.4574  127996858.092 5  99737816.56341
     -3721.262       -2899.625
  21819021.673    21819021.6284   21819023.4364  114659738.586 7  89345260.45745
       295.665         230.419
  24602194.460    24602194.3924   24602197.5814  129285447.224 5 100741897.40241
      3324.565        2590.562
  22205909.366    22205908.6884   22205911.7374  116692907.542 7  90929511.55244
      2789.788        2173.882
  21622318.999    21622319.1284   21622319.7834  113626056.620 8  88539798.61245
      -680.026        -529.865
  22967695.795    22967695.1454   22967696.0614  120696075.067 7  94048902.37443
      2061.836        1606.612
  23083350.159    23083350.1354   23083348.6984  121303814.529 6  94522464.51943
     -2835.639       -2209.566
  24873287.500    24873286.0444   24873290.2124  130709986.365 6 101851946.87941
     -3152.177       -2456.239
 06  5 11 14 14  0.0000000  0  9G 2G 4G 6G 7G10G13G16G23G25
  21905439.674    21905439.7844   21905439.3384  115113854.678 7  89699121.65345
     -2439.930       -1901.254
  24378257.374    24378255.9794   24378260.3334  128108595.177 5  99824885.27741
     -3727.284       -2904.362
  21817391.133    21817391.5564   21817393.1164  114651171.273 7  89338584.42645
       275.683         214.813
  24583238.156    24583237.8814   24583240.8424  129185830.010 5 100664273.60842
      3316.917        2584.642
  22190029.514    22190028.6974   22190031.6514  116609457.382 7  90864485.28744
      2774.011        2161.575
  21626266.001    21626266.4294   21626266.8504  113646799.924 8  88555962.28745
      -702.264        -547.223
  22955976.949    22955975.9454   22955977.7864  120634490.763 6  94000914.68043
      2044.199        1592.878
  23099581.908    23099581.3694   23099580.5154  121389111.293 6  94588929.50543
     -2850.243       -2220.972
  24891307.508    24891307.7454   24891309.6464  130804679.864 6 101925734.02141
     -3160.413       -2462.674
 06  5 11 14 14 30.0000000  0  9G 2G 4G 6G 7G10G13G16G23G25
  21919417.822    21919417.6014   21919417.2434  115187308.975 7  89756358.70645
     -2457.170       -1914.682
  24399549.096    24399549.8064   24399551.8884  128220488.055 5  99912074.46041
     -3732.437       -2908.387
  21815873.486    21815873.5704   21815875.3594  114643194.451 7  89332368.68545
       255.710         199.245
  24564321.981    24564322.0474   24564324.9844  129086427.448 6 100586817.09841
      3309.526        2578.822
  22174237.270    22174236.4074   22174239.3724  116526468.278 7  90799818.39244
      2758.343        2149.361
  21630338.569    21630338.7564   21630339.1454  113668200.541 8  88572638.17045
      -724.610        -564.621
  22944356.234    22944356.2244   22944357.2054  120573425.743 7  93953331.65643
      2026.548        1579.122
  23115894.105    23115893.5434   23115892.3784  121474832.920 6  94655725.57143
     -2864.717       -2232.238
  24909370.037    24909369.8144   24909371.6624  130899604.261 6 101999701.05041
     -3168.241       -2468.736
 06  5 11 14 15  0.0000000  0  9G 2G 4G 6G 7G10G13G16G23G25
  21933493.234    21933492.9764   21933492.5364  115261274.641 7  89813994.27945
     -2474.131       -1927.882
  24420872.124    24420873.2704   24420875.2264  128332540.710 5  99999388.13441
     -3737.837       -2912.616
  21814468.638    21814469.1194   21814470.5104  114635812.976 8  89326616.92145
       236.008         183.906
  24545448.634    24545448.5234   24545451.6614  128987247.072 6 100509533.82242
      3302.086        2573.110
  22158534.093    22158533.5764   22158535.6244  116443947.171 7  90735516.19044
      2742.774        2137.226
  21634536.672    21634536.8104   21634537.3134  113690262.299 8  88589829.22445
      -746.480        -581.675
  22932835.665    22932835.6754   22932836.8164  120512886.476 6  93906158.17043
      2009.056        1565.472
  23132287.501    23132287.6174   23132285.9804  121560981.364 6  94722854.20043
     -2878.809       -2243.202
  24927477.733    24927478.0014   24927480.7614  130994761.810 6 102073849.76241
     -3175.995       -2474.738
 06  5 11 14 15 30.0000000  0  9G 2G 4G 6G 7G10G13G16G23G25
  21947666.741    21947666.8264   21947666.5014  115335758.805 7  89872033.85745
     -2491.385       -1941.342
  24442226.567    24442228.6594   24442230.8244  128444760.713 6 100086832.38241
     -3743.255       -2916.782
  21813179.432    21813179.4384   21813181.2404  114629036.442 7  89321336.52745
       215.801         168.150
  24526619.804    24526620.2154   24526623.1924  128888300.365 5 100432432.57641
      3294.385        2567.037
  22142922.667    22142921.6824   22142924.0714  116361905.875 7  90671587.78044
      2726.739        2124.737
  21638862.258    21638862.4344   21638862.9504  113712994.058 8  88607542.35445
      -768.943        -599.191
  22921417.908    22921417.7284   22921418.7244  120452884.951 6  93859403.71043
      1991.017        1551.405
  23148763.740    23148763.0324   23148762.2644  121647563.511 6  94790320.81343
     -2893.276       -2254.479
  24945631.889    24945631.4904   24945634.1504  131090159.898 6 102148185.95941
     -3183.929       -2480.996
 06  5 11 14 16  0.0000000  0  9G 2G 4G 6G 7G10G13G16G23G25
  21961935.681    21961935.3464   21961934.8644  115410740.601 7  89930461.27745
     -2507.998       -1954.303
  24463610.468    24463609.9354   24463612.5124  128557126.724 5 100174390.30041
     -3748.115       -2920.593
  21812001.659    21812001.3564   21812003.0954  114622846.303 7  89316513.08045
       196.180         152.865
  24507831.779    24507831.9274   24507834.7824  128789570.608 5 100355500.25142
      3287.077        2561.391
  22127398.586    22127397.8014   22127400.7294  116280328.579 7  90608021.11444
      2711.184        2112.612
  21643311.819    21643312.0354   21643312.5944  113736375.939 8  88625762.07445
      -790.629        -616.087
  22910099.263    22910098.7734   22910100.4824  120393404.132 7  93813055.04543
      1973.647        1537.893
  23165317.281    23165317.6344   23165316.6924  121734557.853 6  94858108.60543
     -2906.996       -2265.205
  24963826.925    24963827.0554   24963828.9404  131185776.827 6 102222692.56741
     -3191.071       -2486.535
 06  5 11 14 16 30.0000000  0  9G 2G 4G 6G 7G10G13G16G23G25
  21976299.330    21976299.4964   21976298.7104  115486225.092 7  89989280.48245
     -2524.924       -1967.454
  24485022.061    24485021.4864   24485023.6474  128669643.412 5 100262065.45941
     -3753.485       -2924.766
  21810936.813    21810936.3304   21810938.2474  114617250.039 7  89312152.32545
       176.173         137.278
  24489088.541    24489087.4564   24489091.0624  128691068.166 6 100278745.22942
      3279.122        2555.132
  22111964.839    22111964.1274   22111966.4434  116199224.542 7  90544823.38344
      2695.126        2100.097
  21647885.906    21647886.3184   21647886.6564  113760414.241 8  88644493.27745
      -812.608        -633.201
  22898881.412    22898881.0624   22898882.2664  120334453.432 7  93767119.47043
      1955.805        1523.998
  23181951.689    23181951.5894   23181950.4204  121821969.058 6  94926221.23843
     -2921.027       -2276.114
  24982064.890    24982065.7954   24982067.2174  131281617.856 6 102297373.95841
     -3198.871       -2492.696
 06  5 11 14 17  0.0000000  0  9G 2G 4G 6G 7G10G13G16G23G25
  21990762.817    21990762.6374   21990762.2464  115562229.636 7  90048504.72145
     -2542.211       -1980.954
  24506464.064    24506464.8144   24506467.3004  128782329.525 5 100349872.78341
     -3759.118       -2929.115
  21809988.717    21809988.6274   21809990.3174  114612268.371 7  89308270.37245
       155.743         121.375
  24470390.943    24470390.4444   24470392.3224  128592815.369 5 100202184.61242
      3270.669        2548.614
  22096625.957    22096624.9914   22096627.3834  116118616.287 7  90482011.76144
      2678.481        2087.099
  21652589.115    21652589.3184   21652589.4444  113785128.548 8  88663751.20145
      -835.107        -650.749
  22887768.415    22887768.0974   22887769.0124  120276055.323 7  93721614.51943
      1937.250        1509.551
  23198668.184    23198667.8834   23198666.6274  121909815.257 6  94994672.81143
     -2935.581       -2287.460
  25000348.901    25000348.8344   25000350.4714  131377701.137 5 102372244.14441
     -3207.037       -2499.001
 06  5 11 14 17 30.0000000  0  9G 2G 4G 6G 7G10G13G16G23G25
  22005321.457    22005321.2594   22005320.7494  115638735.661 7  90108119.85245
     -2557.986       -1993.236
  24527936.575    24527937.0304   24527939.8524  128895165.598 5 100437796.91541
     -3763.080       -2932.274
  21809154.639    21809154.7454   21809156.1384  114607885.084 7  89304854.70145
       136.434         106.314
  24451738.712    24451738.6734   24451741.2234  128494798.082 6 100125807.55042
      3263.576        2542.985
  22081377.835    22081377.1924   22081379.7524  116038489.683 7  90419575.50344
      2663.264        2075.256
  21657417.268    21657417.6544   21657418.0624  113810501.122 8  88683522.04245
      -856.203        -667.186
  22876758.462    22876757.7784   22876758.5734  120218194.939 7  93676528.54043
      1920.044        1496.132
  23215463.743    23215463.9964   23215462.8004  121998076.873 6  95063448.09343
     -2948.473       -2297.507
  25018674.179    25018675.6624   25018679.3324  131474006.710 5 102447287.29541
     -3213.596       -2504.115
 06  5 11 14 18  0.0000000  0  8G 2G 4G 6G 7G10G13G16G23
  22019970.767    22019970.6524   22019970.2894  115715718.573 7  90168106.51745
     -2574.620       -2006.193
  24549433.464    24549432.4704   24549434.7674  129008127.346 5 100525818.99741
     -3768.043       -2936.183
  21808430.135    21808430.2294   21808431.9824  114604077.627 7  89301887.67045
       116.576          90.861
  24433127.708    24433127.4474   24433130.0294  128396996.305 6 100049598.43042
      3255.742        2536.960
  22066218.074    22066217.4834   22066219.9744  115958824.857 7  90357499.09344
      2647.094        2062.705
  21662366.183    21662366.5144   21662366.9654  113836508.484 8  88703787.50045
      -878.132        -684.228
  22865846.301    22865845.4324   22865847.1814  120160852.214 7  93631845.93744
      1902.113        1482.197
  23232333.999    23232333.7884   23232332.8104  122086729.008 6  95132527.65243
     -2962.176       -2308.190
 06  5 11 14 18 30.0000000  0  8G 2G 4G 6G 7G10G13G16G23
  22034715.289    22034715.2704   22034714.6114  115793201.411 7  90228482.78045
     -2591.214       -2019.126
  24570956.946    24570957.8404   24570958.7824  129121237.076 5 100613956.14641
     -3772.964       -2939.979
  21807820.100    21807820.3974   21807821.9004  114600871.762 7  89299389.44545
        96.688          75.363
  24414562.941    24414562.0964   24414566.0324  128299437.655 6  99973578.77942
      3247.856        2530.778
  22051151.653    22051150.9064   22051153.3314  115879649.713 7  90295804.41544
      2630.806        2049.967
  21667440.836    21667441.1614   21667441.6674  113863174.910 8  88724566.50145
      -900.006        -701.294
  22855037.938    22855037.4144   22855038.7014  120104054.253 7  93587587.84744
      1884.060        1468.099
  23249282.971    23249282.4604   23249281.5134  122175794.414 6  95201929.26043
     -2975.817       -2318.843
 06  5 11 14 19  0.0000000  0  8G 2G 4G 6G 7G10G13G16G23
  22049554.541    22049554.4824   22049553.6894  115871181.369 7  90289246.33745
     -2607.380       -2031.746
  24592509.308    24592509.0304   24592511.8344  129234493.792 5 100702208.15941
     -3777.307       -2943.361
  21807324.657    21807324.6994   21807326.4094  114598267.986 7  89297360.56745
        76.923          59.917
  24396044.810    24396043.7954   24396048.0514  128202124.651 6  99897750.52842
      3239.806        2524.531
  22036178.457    22036177.6534   22036179.7404  115800965.848 7  90234492.42544
      2614.852        2037.530
  21672640.765    21672640.8984   21672641.1934  113890499.685 8  88745858.51045
      -921.574        -718.121
  22844333.094    22844332.7384   22844334.4204  120047802.720 7  93543755.52143
      1866.123        1454.113
  23266309.599    23266308.7954   23266308.0554  122265270.080 6  95271650.54143
     -2989.154       -2329.246
 06  5 11 14 19 30.0000000  0  8G 2G 4G 6G 7G10G13G16G23
  22064486.799    22064486.5014   22064486.3474  115949652.170 7  90350392.38045
     -2623.956       -2044.612
  24614087.034    24614087.2284   24614089.4644  129347889.515 5 100790568.18541
     -3782.394       -2947.344
  21806943.180    21806943.0534   21806945.0064  114596260.556 7  89295795.83545
        56.790          44.282
  24377573.482    24377572.9094   24377576.3444  128105054.982 6  99822111.88142
      3231.542        2518.161
  22021298.520    22021297.7044   22021300.2934  115722771.320 7  90173561.70044
      2598.154        2024.545
  21677964.524    21677964.7204   21677964.9724  113918477.190 8  88767659.12745
      -943.667        -735.303
  22833732.238    22833731.8894   22833733.3884  119992095.249 7  93500347.12944
      1847.661        1439.752
  23283413.194    23283412.0704   23283410.8704  122355149.004 6  95341686.06343
     -3002.846       -2339.878
 06  5 11 14 20  0.0000000  0  8G 2G 4G 6G 7G10G13G16G23
  22079511.881    22079511.9844   22079511.0304  116028608.415 7  90411916.69545
     -2640.008       -2057.142
  24635692.050    24635691.9914   24635693.5504  129461419.991 5 100879033.47941
     -3786.717       -2950.718
  21806674.607    21806674.4594   21806676.5304  114594848.851 7  89294695.76545
        37.101          28.927
  24359147.393    24359146.5154   24359150.9324  128008228.513 5  99746662.84342
      3223.392        2511.704
  22006511.658    22006510.7534   22006513.2744  115645065.762 7  90113011.80844
      2581.931        2011.921
  21683411.850    21683412.0384   21683412.5684  113947103.363 8  88789965.21945
      -965.006        -751.946
  22823235.490    22823235.0004   22823236.0434  119936931.325 7  93457362.30744
      1829.676        1425.731
  23300591.520    23300591.7714   23300590.7964  122445425.988 6  95412031.75943
     -3015.881       -2350.032
 06  5 11 14 20 30.0000000  0  8G 2G 4G 6G 7G10G13G16G23
  22094629.396    22094629.3534   22094628.8214  116108052.135 7  90473820.92645
     -2656.794       -2070.253
  24657321.969    24657322.2834   24657324.5864  129575086.670 5 100967604.83341
     -3791.602       -2954.559
  21806520.199    21806519.8214   21806522.0634  114594035.477 8  89294061.66445
        16.595          12.927
  24340770.233    24340769.9974   24340772.2874  127911651.338 6  99671407.90142
      3214.708        2504.944
  21991819.100    21991818.4164   21991820.6984  115567855.727 7  90052848.13144
      2564.781        1998.530
  21688983.377    21688983.5724   21688983.9134  113976381.318 8  88812779.17545
      -987.373        -769.400
  22812842.258    22812841.8624   22812843.3394  119882316.438 7  93414805.27444
      1810.884        1411.096
  23317847.282    23317846.9194   23317844.7424  122536102.374 6  95482688.67743
     -3029.625       -2360.773
 06  5 11 14 21  0.0000000  0  8G 2G 4G 6G 7G10G13G16G23
  22109839.259    22109839.0234   22109838.4734  116187980.595 7  90536102.90345
     -2671.992       -2082.057
  24678976.439    24678978.9264   24678979.7644  129688886.891 5 101056280.09741
     -3795.389       -2957.475
  21806479.194    21806479.1534   21806481.1264  114593821.503 7  89293894.94545
        -2.512          -1.960
  24322439.339    24322439.3694   24322442.0984  127815325.999 6  99596349.32542
      3206.882        2498.885
  21977220.878    21977220.4194   21977222.7064  115491143.539 7  89993072.52444
      2549.092        1986.277
  21694678.342    21694678.6824   21694679.1754  114006309.683 8  88836099.95045
     -1008.099        -785.541
  22802554.368    22802553.9644   22802555.1084  119828252.621 7  93372677.70544
      1793.182        1397.280
  23335177.470    23335177.1124   23335176.1684  122627175.379 6  95553654.65343
     -3042.100       -2370.490
 06  5 11 14 21 30.0000000  0  8G 2G 4G 6G 7G10G13G16G23
  22125141.335    22125141.0694   22125140.8264  116268394.516 7  90598763.06645
     -2688.743       -2095.156
  24700659.189    24700659.9774   24700664.0064  129802823.113 5 101145061.45941
     -3800.448       -2961.358
  21806553.204    21806553.5324   21806555.5804  114594209.406 7  89294196.56145
       -23.047         -17.991
  24304157.630    24304156.8954   24304160.7954  127719258.644 6  99521491.76642
      3197.852        2491.780
  21962719.332    21962718.2224   21962720.7954  115414935.267 7  89933689.60844
      2531.743        1972.766
  21700497.993    21700498.3494   21700498.7254  114036891.215 8  88859929.69945
     -1030.415        -802.940
  22792372.028    22792371.8584   22792373.2214  119774745.695 7  93330984.07744
      1774.179        1382.463
  23352583.931    23352583.8384   23352582.9544  122718646.096 6  95624930.54043
     -3055.705       -2381.108
 06  5 11 14 22  0.0000000  0  8G 2G 4G 6G 7G10G13G16G23
  22140535.067    22140534.7244   22140534.2454  116349287.111 7  90661796.21744
     -2704.742       -2107.586
  24722365.552    24722365.1774   24722368.2234  129916886.897 5 101233942.06341
     -3804.611       -2964.626
  21806740.951    21806740.9834   21806743.2304  114595196.126 7  89294965.59745
       -43.165         -33.607
  24285925.897    24285925.2654   24285927.7124  127623446.546 6  99446833.13542
      3189.286        2485.138
  21948312.354    21948311.6754   21948313.6714  115339227.332 7  89874696.38144
      2514.830        1959.615
  21706440.760    21706440.7844   21706441.0114  114068119.235 8  88884263.19145
     -1051.891        -819.660
  22782295.292    22782295.0114   22782295.8114  119721792.014 7  93289721.56644
      1755.753        1368.091
  23370064.280    23370063.9244   23370062.6094  122810506.486 6  95696510.05943
     -3068.658       -2391.189
 06  5 11 14 22 30.0000000  0  8G 2G 4G 6G 7G10G13G16G23
  22156015.783    22156015.8704   22156015.5954  116430641.325 7  90725189.14345
     -2719.919       -2119.404
  24744091.247    24744091.6304   24744093.9534  130031061.485 5 101322909.03141
     -3807.944       -2967.207
  21807039.757    21807039.4764   21807041.7874  114596766.279 8  89296189.51745
       -62.651         -48.819
  24267739.428    24267739.4994   24267741.9924  127527876.680 6  99372363.19542
      3181.120        2478.785
  21933998.361    21933997.7854   21933999.9274  115264008.033 7  89816084.12644
      2498.615        1946.979
  21712503.154    21712503.3374   21712503.9624  114099977.962 8  88909088.15245
     -1073.031        -836.130
  22772320.966    22772321.1074   22772321.9164  119669378.589 7  93248880.00444
      1737.555        1353.937
  23387615.493    23387615.1454   23387614.0974  122902739.113 6  95768379.63343
     -3080.964       -2400.726
 06  5 11 14 23  0.0000000  0  9G 2G 4G 6G 7G10G13G16G23G27
  22171587.597    22171587.5094   22171586.8444  116512469.939 7  90788951.71345
     -2735.514       -2131.593
  24765841.248    24765842.5724   24765845.6894  130145360.867 5 101411973.37641
     -3812.196       -2970.588
  21807452.382    21807452.1454   21807453.9154  114598935.113 8  89297879.98745
       -82.252         -64.118
  24249603.416    24249603.0614   24249605.2064  127432567.852 6  99298096.71942
      3172.505        2472.063
  21919780.745    21919780.2004   21919782.5164  115189294.771 7  89757866.06944
      2482.005        1934.038
  21718688.550    21718688.6844   21718689.2784  114132481.876 8  88934415.86845
     -1094.206        -852.646
  22762453.528    22762453.3934   22762454.0954  119617522.961 7  93208473.11344
      1719.232        1339.651
  23405240.120    23405239.1954   23405239.4054  122995357.037 6  95840549.43543
     -3093.683       -2410.696
  25129242.473    25129241.6074   25129245.3144  132055060.721 5 102900064.47741
      3309.370        2578.721
 06  5 11 14 23 30.0000000  0  9G 2G 4G 6G 7G10G13G16G23G27
  22187250.691    22187250.3804   22187249.9934  116594780.027 7  90853089.41244
     -2751.889       -2144.306
  24787617.181    24787619.6904   24787620.5544  130259791.725 5 101501140.12041
     -3816.943       -2974.198
  21807980.093    21807980.0704   21807981.6854  114601711.525 7  89300043.64845
      -102.703         -80.018
  24231517.765    24231517.3274   24231519.6434  127337531.574 6  99224042.53742
      3162.995        2464.664
  21905662.085    21905661.1404   21905663.4954  115115099.268 7  89700051.40545
      2464.421        1920.325
  21724998.187    21724998.3924   21724998.7644  114165639.200 8  88960252.71645
     -1116.317        -869.851
  22752693.735    22752693.5514   22752694.5394  119566236.626 7  93168509.81344
      1699.838        1324.567
  23422939.385    23422939.1084   23422938.5084  123088367.285 6  95913024.94243
     -3107.091       -2421.119
  25110365.733    25110367.5644   25110367.1184  131955868.872 5 102822772.12241
      3302.934        2573.805
 06  5 11 14 24  0.0000000  0  9G 2G 4G 6G 7G10G13G16G23G27
  22203002.578    22203002.2094   22203001.8944  116677556.832 7  90917590.85744
     -2767.491       -2156.496
  24809414.971    24809415.0084   24809418.5294  130374339.447 5 101590398.01241
     -3820.573       -2977.071
  21808621.857    21808621.7554   21808623.7654  114605082.526 8  89302670.27345
      -122.942         -95.781
  24213483.093    24213482.6834   24213484.5424  127242757.481 6  99150192.63242
      3154.191        2457.824
  21891639.784    21891638.8254   21891641.1094  115041411.035 7  89642631.93745
      2447.190        1906.886
  21731429.652    21731429.4174   21731429.9854  114199436.068 8  88986587.91045
     -1137.909        -886.678
  22743040.530    22743040.4964   22743041.5524  119515508.423 7  93128981.39144
      1680.963        1309.875
  23440710.654    23440709.9444   23440709.0114  123181754.193 6  95985793.93443
     -3119.882       -2431.085
  25091521.096    25091521.1924   25091524.2624  131856842.337 5 102745608.68341
      3297.643        2569.607
 06  5 11 14 24 30.0000000  0  9G 2G 4G 6G 7G10G13G16G23G27
  22218842.815    22218843.0604   22218842.1754  116760799.375 7  90982455.28044
     -2782.798       -2168.424
  24831235.180    24831236.3944   24831239.2464  130489003.944 5 101679747.07541
     -3824.323       -2980.051
  21809376.900    21809376.7854   21809378.7934  114609051.025 7  89305762.65745
      -142.500        -111.039
  24195498.122    24195497.3464   24195500.9784  127148250.336 6  99076550.89442
      3145.488        2451.034
  21877714.578    21877713.9264   21877716.3064  114968235.086 7  89585611.86445
      2430.414        1893.831
  21737982.572    21737982.7374   21737983.2544  114233872.953 8  89013421.84745
     -1158.865        -903.017
  22733494.517    22733494.0084   22733494.6734  119465342.076 7  93089890.73144
      1662.603        1295.547
  23458553.424    23458552.8444   23458552.2154  123275517.216 6  96058856.02843
     -3131.930       -2440.452
  25072709.553    25072709.4644   25072712.4874  131757985.594 5 102668577.54441
      3292.214        2565.304
 06  5 11 14 25  0.0000000  0  9G 2G 4G 6G 7G10G13G16G23G27
  22234769.986    22234770.3404   22234769.7854  116844498.762 7  91047675.70644
     -2798.365       -2180.530
  24853076.326    24853075.9844   24853078.5064  130603775.105 5 101769178.90841
     -3828.233       -2983.011
  21810244.418    21810244.4174   21810246.1854  114613609.620 8  89309314.79345
      -162.696        -126.757
  24177564.480    24177564.1404   24177566.9684  127054004.880 6  99003112.84842
      3136.404        2443.941
  21863886.026    21863885.5314   21863887.7464  114895565.684 7  89528986.24645
      2412.993        1880.267
  21744655.981    21744656.1144   21744656.7044  114268941.713 8  89040748.13345
     -1180.188        -919.617
  22724053.952    22724053.7674   22724054.6844  119415732.879 7  93051234.23644
      1643.625        1280.729
  23476465.336    23476465.4064   23476463.4384  123369646.529 6  96132203.51543
     -3144.423       -2450.180
  25053928.469    25053927.6444   25053932.9824  131659293.656 5 102591674.81341
      3286.269        2560.704
 06  5 11 14 25 30.0000000  0  8G 2G 6G 7G10G13G16G23G27
  22250787.153    22250787.2914   22250786.9374  116928668.896 7  91113262.83044
     -2813.252       -2192.139
  21811227.215    21811227.3774   21811229.2184  114618775.129 7  89313339.85145
      -182.162        -141.930
  24159682.564    24159682.7454   24159686.0474  126960040.946 6  98929894.25242
      3127.639        2437.139
  21850157.803    21850157.2684   21850159.4164  114823422.283 7  89472770.55045
      2396.169        1867.161
  21751452.348    21751452.7744   21751453.2464  114304658.184 8  89068579.14745
     -1201.086        -935.909
  22714723.084    22714722.9264   22714723.5514  119366698.801 7  93013025.86644
      1625.100        1266.343
  23494449.910    23494449.1544   23494448.5454  123464156.200 6  96205847.37943
     -3156.299       -2459.418
  25035184.029    25035182.6264   25035186.0794  131560785.471 5 102514915.19641
      3280.969        2556.619
 06  5 11 14 26  0.0000000  0  8G 2G 6G 7G10G13G16G23G27
  22266893.949    22266893.9024   22266893.0984  117013309.803 7  91179216.84144
     -2830.060       -2205.242
  21812326.313    21812326.2254   21812328.0214  114624549.548 7  89317839.37245
      -203.543        -158.623
  24141857.109    24141856.5994   24141859.6024  126866362.960 6  98856898.53742
      3116.988        2428.823
  21836530.213    21836529.9084   21836531.8474  114751809.388 8  89416968.19245
      2377.268        1852.381
  21758372.271    21758372.6934   21758373.0974  114341022.631 8  89096915.05845
     -1223.663        -953.513
  22705502.544    22705502.1204   22705502.4544  119318244.010 7  92975268.90044
      1604.754        1250.450
  23512506.852    23512506.7274   23512505.1594  123559046.241 6  96279787.64943
     -3170.006       -2470.134
  25016474.099    25016473.8194   25016476.8164  131462465.856 5 102438302.49741
      3273.480        2550.713
 06  5 11 14 26 30.0000000  0  8G 2G 6G 7G10G13G16G23G27
  22283088.225    22283088.0244   22283087.4924  117098412.137 7  91245530.45744
     -2844.627       -2216.580
  21813539.833    21813539.6294   21813541.4154  114630926.254 7  89322808.38345
      -222.780        -173.600
  24124083.173    24124083.8584   24124086.2854  126772966.156 6  98784121.87242
      3108.332        2422.115
  21823002.879    21823002.1064   21823004.6354  114680722.302 7  89361575.66645
      2360.565        1839.395
  21765414.174    21765414.2004   21765414.6094  114378026.902 8  89125749.52745
     -1244.400        -969.676
  22696390.614    22696390.7214   22696391.6904  119270363.285 7  92937959.26044
      1586.226        1236.002
  23530633.706    23530634.4554   23530632.6734  123654306.374 6  96354016.29343
     -3181.687       -2479.263
  24997799.989    24997800.7294   24997801.0764  131364330.140 5 102361833.16341
      3267.890        2546.461
 06  5 11 14 27  0.0000000  0  8G 2G 6G 7G10G13G16G23G27
  22299368.737    22299368.5884   22299367.8644  117183966.583 7  91312196.24744
     -2859.219       -2227.972
  21814866.565    21814866.0724   21814868.2394  114637897.763 7  89328240.52545
      -242.244        -188.752
  24106362.900    24106364.3954   24106366.1124  126679846.687 6  98711561.26342
      3099.367        2415.062
  21809574.672    21809574.0894   21809576.1724  114610156.690 7  89306589.57445
      2343.603        1826.174
  21772576.281    21772576.2814   21772577.0514  114415663.314 8  89155076.58745
     -1264.914        -985.650
  22687387.890    22687387.3224   22687388.7124  119223051.919 7  92901093.28644
      1567.684        1221.556
  23548830.373    23548830.2934   23548829.6744  123749927.836 6  96428526.51643
     -3193.187       -2488.191
  24979158.770    24979158.5054   24979162.5594  131266374.589 5 102285504.29741
      3262.280        2541.995
 06  5 11 14 27 30.0000000  0  8G 2G 6G 7G10G13G16G23G27
  22315733.380    22315733.1564   22315732.8164  117269963.205 7  91379206.61844
     -2873.859       -2239.359
  21816304.953    21816304.9264   21816306.5684  114645457.045 7  89334130.91445
      -261.781        -204.005
  24088695.811    24088694.6444   24088698.0324  126586999.041 5  98639212.49642
      3090.272        2407.968
  21796244.502    21796243.8574   21796246.2894  114540106.765 7  89252005.28645
      2326.436        1812.804
  21779856.392    21779856.7484   21779857.4544  114453922.401 8  89184888.87345
     -1285.704       -1001.861
  22678492.467    22678491.5354   22678493.1624  119176303.747 7  92864666.13344
      1548.802        1206.858
  23567093.557    23567093.6244   23567092.1014  123845900.200 6  96503310.15043
     -3205.076       -2497.467
  24960553.116    24960552.4234   24960553.2494  131168593.344 5 102209311.17741
      3256.403        2537.506
 06  5 11 14 28  0.0000000  0  8G 2G 6G 7G10G13G16G23G27
  22332183.101    22332183.4914   22332183.0684  117356409.461 7  91446567.23044
     -2888.646       -2250.920
  21817856.990    21817856.9394   21817858.8934  114653613.961 7  89340486.99845
      -281.602        -219.441
  24071081.457    24071081.0194   24071085.2374  126494436.061 6  98567085.51142
      3080.812        2400.607
  21783015.009    21783014.3374   21783016.6394  114470585.052 7  89197832.64145
      2308.871        1799.102
  21787257.214    21787257.4584   21787257.8964  114492813.405 8  89215193.59045
     -1306.515       -1018.083
  22669705.896    22669705.6964   22669706.5334  119130130.814 7  92828687.22444
      1529.754        1192.012
  23585424.709    23585424.5824   23585423.6434  123942231.210 6  96578373.23943
     -3216.716       -2506.530
  24941979.835    24941980.3434   24941983.4934  131070999.455 5 102133264.01341
      3250.366        2532.823
 06  5 11 14 28 30.0000000  0  8G 2G 6G 7G10G13G16G23G27
  22348717.672    22348717.3724   22348716.6984  117443295.043 7  91514270.26444
     -2903.542       -2262.497
  21819521.587    21819521.1164   21819523.3014  114662359.616 7  89347301.71045
      -301.236        -234.699
  24053520.219    24053519.2874   24053523.1994  126402151.618 6  98495175.57042
      3071.484        2393.384
  21769884.910    21769883.9754   21769886.0884  114401585.544 7  89144066.91945
      2291.244        1785.386
  21794776.137    21794776.6484   21794777.1474  114532326.528 8  89245983.04445
     -1327.407       -1034.335
  22661027.734    22661027.8734   22661028.0534  119084526.355 7  92793151.20544
      1510.701        1177.158
  23603821.937    23603821.4704   23603819.9264  124038909.468 6  96653706.93743
     -3228.372       -2515.604
  24923443.841    24923442.6704   24923445.7594  130973586.563 5 102057357.95841
      3243.949        2527.812
 06  5 11 14 29  0.0000000  0  8G 2G 6G 7G10G13G16G23G27
  22365335.213    22365334.4944   22365334.3054  117530621.479 7  91582316.81944
     -2918.381       -2274.055
  21821298.417    21821298.4374   21821300.1834  114671698.290 7  89354578.55545
      -321.384        -250.445
  24036013.067    24036013.2554   24036015.6044  126310152.338 6  98423487.84042
      3061.681        2385.698
  21756854.909    21756854.2224   21756856.3844  114333114.200 7  89090712.69645
      2273.336        1771.425
  21802414.266    21802414.4394   21802414.9904  114572464.286 8  89277259.22545
     -1348.487       -1050.776
  22652458.708    22652457.9574   22652458.9904  119039496.270 7  92758062.83844
      1491.220        1161.996
  23622285.371    23622285.2814   23622284.2774  124135936.439 6  96729312.34343
     -3240.247       -2524.867
  24904941.424    24904942.0214   24904944.6364  130876361.631 5 101981598.37041
      3237.534        2522.720
 06  5 11 14 29 30.0000000  0  8G 2G 6G 7G10G13G16G23G27
  22382035.249    22382034.8614   22382034.5354  117618379.924 7  91650699.99244
     -2932.705       -2285.226
  21823186.969    21823187.0604   21823188.7514  114681623.558 7  89362312.56145
      -340.760        -265.525
  24018560.154    24018559.2894   24018561.9704  126218434.506 6  98352019.45942
      3052.521        2378.570
  21743925.086    21743924.3344   21743926.3664  114265166.846 7  89037766.69445
      2255.938        1757.878
  21810169.733    21810169.8264   21810170.0594  114613218.937 8  89309016.05945
     -1369.137       -1066.861
  22643998.236    22643997.5354   22643998.5934  118995035.791 7  92723418.30944
      1472.244        1147.209
  23640814.433    23640813.2914   23640812.5124  124233303.500 6  96805182.76143
     -3251.443       -2533.561
  24886475.157    24886475.2984   24886479.3524  130779320.558 5 101905982.01641
      3231.430        2517.992
 06  5 11 14 30  0.0000000  0  8G 2G 6G 7G10G13G16G23G27
  22398819.397    22398819.2874   22398818.3174  117706582.209 7  91719429.03944
     -2947.333       -2296.622
  21825189.995    21825190.2304   21825192.0914  114692149.207 7  89370514.32545
      -360.739        -281.087
  24001163.086    24001162.8954   24001166.1904  126127014.581 6  98280783.18742
      3042.521        2370.810
  21731098.099    21731097.2814   21731099.6054  114197759.883 8  88985241.66845
      2237.963        1743.858
  21818044.832    21818045.1554   21818045.6614  114654603.396 8  89341263.67545
     -1389.852       -1082.991
  22635649.158    22635648.4364   22635649.7014  118951160.775 7  92689229.97644
      1452.899        1132.116
  23659408.868    23659408.9614   23659408.1624  124331022.016 6  96881327.04743
     -3262.973       -2542.610
  24868047.432    24868047.8064   24868049.2934  130682479.954 5 101830521.85741
      3224.835        2512.924
 06  5 11 14 30 30.0000000  0  8G 2G 6G 7G10G13G16G23G27
  22415687.402    22415687.5464   22415686.9524  117795224.833 7  91788501.14844
     -2962.044       -2308.079
  21827306.906    21827307.2344   21827309.3034  114703274.109 7  89379183.05745
      -380.818        -296.754
  23983823.502    23983823.4684   23983826.8764  126035894.162 6  98209780.30642
      3032.288        2362.785
  21718373.840    21718373.0444   21718375.4934  114130894.883 7  88933139.07445
      2219.775        1729.696
  21826039.118    21826039.6804   21826040.1654  114696615.162 7  89374000.10345
     -1410.792       -1099.311
  22627411.372    22627411.2084   22627411.8294  118907871.868 7  92655498.34444
      1433.177        1116.763
  23678070.180    23678070.0004   23678068.9634  124429088.379 6  96957742.36443
     -3274.609       -2551.638
  24849657.631    24849656.8854   24849660.4054  130585841.256 5 101755219.01941
      3217.979        2507.550
 06  5 11 14 31  0.0000000  0  8G 2G 6G 7G10G13G16G23G27
  22432639.792    22432639.4764   22432638.8654  117884308.810 7  91857917.17144
     -2976.274       -2319.165
  21829538.799    21829538.7804   21829540.6374  114715001.427 7  89388321.09645
      -400.361        -311.955
  23966542.066    23966541.7504   23966544.9564  125945079.044 6  98139015.28342
      3022.603        2355.262
  21705754.162    21705753.6364   21705755.8824  114064577.509 7  88881463.24545
      2201.943        1715.796
  21834154.044    21834154.0374   21834154.5204  114739256.373 8  89407226.97545
     -1431.311       -1115.291
  22619286.186    22619285.6814   22619286.8374  118865174.415 7  92622227.57544
      1413.893        1101.760
  23696798.052    23696797.5984   23696796.7824  124527503.418 6  97034429.40543
     -3285.822       -2560.379
  24831307.003    24831307.4294   24831309.6914  130489410.673 5 101680078.30841
      3211.279        2502.210
 06  5 11 14 31 30.0000000  0  8G 2G 6G 7G10G13G16G23G27
  22449670.990    22449671.0414   22449670.2084  117973809.649 7  91927658.06044
     -2990.626       -2330.352
  21831880.766    21831880.9114   21831882.5834  114727309.600 7  89397912.11245
      -420.329        -327.533
  23949315.043    23949314.0764   23949317.7754  125854549.819 6  98068473.04742
      3012.555        2347.462
  21693234.754    21693234.1434   21693236.3994  113998787.507 7  88830198.32045
      2183.742        1701.591
  21842383.332    21842383.6384   21842384.2504  114782502.926 8  89440925.52445
     -1452.099       -1131.521
  22611269.716    22611269.0254   22611270.2604  118823047.692 7  92589401.50844
      1394.245        1086.411
  23715587.584    23715587.3194   23715586.5584  124626242.370 6  97111368.81843
     -3297.069       -2569.116
  24812992.621    24812993.4814   24812995.2104  130393168.330 5 101605084.31141
      3204.604        2497.060
 06  5 11 14 32  0.0000000  0  8G 2G 6G 7G10G13G16G23G27
  22466783.768    22466783.4404   22466783.4454  118063737.021 7  91997731.21644
     -3004.518       -2341.200
  21834335.651    21834335.7834   21834337.7484  114740209.152 7  89407963.60145
      -439.588        -342.531
  23932144.999    23932144.8624   23932147.3714  125764320.790 6  97998164.66842
      3002.878        2339.941
  21680818.332    21680817.6974   21680819.8384  113933539.191 7  88779355.57545
      2166.111        1687.880
  21850730.365    21850730.9294   21850731.0244  114826365.925 8  89475104.40145
     -1472.240       -1147.192
  22603364.387    22603364.2414   22603365.1764  118781505.414 7  92557030.87544
      1375.150        1071.534
  23734440.674    23734440.0014   23734439.0054  124725314.954 6  97188568.20843
     -3307.796       -2577.489
  24794716.693    24794718.0314   24794718.2984  130297128.887 5 101530248.41741
      3198.004        2491.961
 06  5 11 14 32 30.0000000  0  8G 2G 6G 7G10G13G16G23G27
  22483974.454    22483974.7314   22483974.2904  118154074.961 7  92068124.33644
     -3018.453       -2352.055
  21836900.326    21836900.2544   21836902.3594  114753687.041 7  89418465.85845
      -459.259        -357.891
  23915030.135    23915029.0514   23915032.8694  125674380.978 6  97928081.72742
      2992.826        2332.063
  21668502.715    21668502.0934   21668504.3634  113868820.923 8  88728925.80345
      2148.062        1673.794
  21859191.691    21859191.9024   21859192.4154  114870830.109 8  89509751.75245
     -1492.550       -1163.032
  22595568.153    22595568.3044   22595568.6444  118740535.622 7  92525106.34244
      1355.729        1056.389
  23753353.390    23753353.6754   23753352.2244  124824704.824 6  97266014.83943
     -3318.645       -2585.981
  24776477.917    24776478.3804   24776481.4754  130201281.097 5 101455561.89441
      3191.319        2486.746
 06  5 11 14 33  0.0000000  0  8G 2G 6G 7G10G13G16G23G27
  22501246.537    22501245.8634   22501245.8344  118244837.365 7  92138848.15344
     -3032.761       -2363.176
  21839578.518    21839578.1384   21839580.1914  114767759.488 7  89429431.44045
      -479.331        -373.522
  23897973.404    23897973.1924   23897975.7144  125584749.483 6  97858239.06742
      2982.187        2323.784
  21656291.641    21656291.0424   21656293.3524  113804651.388 8  88678923.60045
      2129.515        1659.374
  21867770.314    21867770.2504   21867770.9194  114915910.553 8  89544879.33945
     -1513.315       -1179.224
  22587884.346    22587884.3064   22587885.3104  118700156.354 7  92493641.93044
      1335.734        1040.834
  23772329.594    23772330.1124   23772328.8584  124924425.628 6  97343719.35143
     -3329.904       -2594.712
  24758278.994    24758279.4784   24758282.1854  130105643.943 5 101381039.46042
      3183.992        2481.047
 06  5 11 14 33 30.0000000  0  8G 2G 6G 7G10G13G16G23G27
  22518599.852    22518599.1164   22518599.0164  118336029.488 7  92209906.86344
     -3047.365       -2374.568
  21842370.927    21842370.5504   21842372.7304  114782433.501 7  89440865.67645
      -499.656        -389.312
  23880977.942    23880977.3534   23880980.7684  125495436.075 6  97788644.18342
      2971.095        2315.192
  21644186.877    21644186.3044   21644188.3584  113741040.355 7  88629356.50445
      2110.553        1644.560
  21876467.172    21876467.4774   21876467.8624  114961613.742 8  89580492.24445
     -1534.127       -1195.420
  22580314.795    22580314.1954   22580315.3214  118660377.147 7  92462645.10144
      1315.496        1025.063
  23791370.938    23791369.7194   23791369.1344  125024482.625 6  97421685.80543
     -3341.404       -2603.710
  24740121.925    24740121.5254   24740125.8334  130010227.586 5 101306689.05041
      3176.261        2475.011
 06  5 11 14 34  0.0000000  0  8G 2G 6G 7G10G13G16G23G27
  22536032.327    22536032.0004   22536031.2864  118427636.516 7  92281288.85944
     -3060.496       -2384.803
  21845275.390    21845275.4514   21845277.1804  114797696.504 7  89452758.73145
      -518.553        -404.102
  23864040.959    23864040.6274   23864043.6364  125406431.280 6  97719289.75742
      2961.782        2307.822
  21632186.725    21632185.9794   21632188.0954  113677977.837 7  88580216.80245
      2092.888        1630.814
  21885279.821    21885280.3554   21885280.7244  115007925.103 8  89616578.98145
     -1553.811       -1210.761
  22572856.990    22572856.7294   22572857.6134  118621187.017 7  92432107.29144
      1296.607        1010.339
  23810472.211    23810471.4314   23810469.9584  125124860.822 6  97499902.57543
     -3351.176       -2611.339
  24722004.415    24722004.5584   24722007.0504  129915022.487 5 101232503.28342
      3169.885        2470.075
 06  5 11 14 34 30.0000000  0  8G 2G 6G 7G10G13G16G23G27
  22553543.102    22553543.0834   22553543.2154  118519659.161 7  92352994.68344
     -3074.518       -2395.729
  21848292.413    21848292.3314   21848294.2554  114813551.956 7  89465113.72245
      -538.717        -419.793
  23847163.654    23847163.7384   23847165.9894  125317740.626 6  97650180.13142
      2950.620        2299.212
  21620291.407    21620291.0634   21620293.0144  113615469.026 8  88531508.58645
      2074.182        1616.240
  21894208.921    21894209.1464   21894209.7984  115054846.473 8  89653141.05245
     -1574.312       -1226.747
  22565512.006    22565512.1824   22565513.0254  118582590.681 7  92402032.18144
      1276.351         994.546
  23829634.434    23829633.7644   23829632.9884  125225560.877 6  97578370.11643
     -3362.350       -2620.039
  24703929.488    24703928.8244   24703931.3374  129820034.144 5 101158486.47441
      3162.405        2464.153
 06  5 11 14 35  0.0000000  0  8G 2G 6G 7G10G13G16G23G27
  22571134.494    22571134.0704   22571134.0484  118612100.062 7  92425026.50744
     -3088.774       -2406.822
  21851422.755    21851422.7354   21851424.8894  114830003.673 7  89477933.30745
      -558.836        -435.415
  23830347.680    23830347.1494   23830349.8254  125229371.286 6  97581320.85242
      2939.787        2290.768
  21608503.392    21608502.7804   21608504.6354  113553520.975 8  88483237.38745
      2055.045        1601.338
  21903254.252    21903254.5104   21903255.1504  115102381.326 8  89690181.27545
     -1595.148       -1242.963
  22558282.082    22558281.7334   22558282.9224  118544594.276 7  92372424.51244
      1256.047         978.732
  23848858.576    23848858.1984   23848856.6654  125326584.973 6  97657090.16243
     -3373.308       -2628.521
  24685895.834    24685895.1694   24685898.1384  129725269.731 5 101084644.08242
      3154.529        2458.087
 06  5 11 14 35 30.0000000  0  8G 2G 6G 7G10G13G16G23G27
  22588803.862    22588804.0614   22588803.8654  118704955.159 7  92497381.06844
     -3102.676       -2417.755
  21854666.684    21854666.6164   21854668.6694  114847050.149 7  89491216.43145
      -578.777        -451.034
  23813592.991    23813592.6154   23813594.8954  125141324.272 6  97512712.75242
      2928.839        2282.247
  21596821.639    21596820.8724   21596823.1914  113492134.050 8  88435403.50245
      2036.227        1586.654
  21912416.149    21912416.3254   21912416.8794  115150526.382 8  89727696.93645
     -1615.766       -1259.053
  22551165.726    22551165.5154   22551166.4254  118507198.205 7  92343284.72544
      1235.819         962.975
  23868143.789    23868143.0324   23868142.6544  125427928.942 6  97736059.47543
     -3384.133       -2637.037
  24667905.375    24667905.7744   24667908.0594  129630730.234 5 101010977.04241
      3146.779        2452.021
 06  5 11 14 36  0.0000000  0  8G 2G 6G 7G10G13G16G23G27
  22606552.969    22606553.2344   22606552.9194  118798229.616 7  92570062.36444
     -3116.684       -2428.575
  21858024.987    21858025.1404   21858026.7914  114864698.433 7  89504968.32345
      -598.831        -466.639
  23796900.688    23796900.6354   23796903.0444  125053610.104 6  97444363.99342
      2917.773        2273.638
  21585248.733    21585247.9064   21585250.0354  113431318.316 8  88388014.74645
      2017.130        1571.803
  21921694.960    21921694.9484   21921695.7194  115199287.917 7  89765692.94045
     -1636.198       -1274.944
  22544165.318    22544165.4814   22544165.8384  118470411.418 7  92314619.66844
      1215.594         947.234
  23887491.751    23887491.2504   23887489.6054  125529598.382 6  97815282.35943
     -3394.917       -2645.363
  24649959.601    24649960.0614   24649963.3174  129536425.986 5 100937493.22242
      3138.898        2445.888
 06  5 11 14 36 30.0000000  0  8G 2G 6G 7G10G13G16G23G27
  22624381.060    22624380.8024   22624380.6144  118891912.858 7  92643062.34344
     -3129.585       -2438.618
  21861496.086    21861496.0094   21861497.8754  114882940.959 7  89519183.78845
      -617.921        -481.495
  23780272.070    23780271.3174   23780274.4394  124966222.774 6  97376269.91242
      2907.386        2265.514
  21573783.223    21573782.4894   21573784.5554  113371067.046 8  88341065.79245
      1998.930        1557.624
  21931089.322    21931089.7794   21931090.2094  115248655.741 8  89804161.38645
     -1655.808       -1290.236
  22537279.493    22537279.7404   22537280.4824  118434227.146 7  92286424.13544
      1196.027         931.994
  23906897.566    23906896.6734   23906896.9354  125631582.031 6  97894750.09642
     -3404.796       -2653.060
  24632058.299    24632059.4784   24632062.6514  129442351.052 5 100864188.10642
      3131.979        2440.533
 06  5 11 14 37  0.0000000  0  8G 2G 6G 7G10G13G16G23G27
  22642281.742    22642281.7034   22642282.2204  118985984.032 6  92716364.65344
     -3142.428       -2448.653
  21865076.548    21865076.5854   21865078.2204  114901757.026 7  89533845.71545
      -637.160        -496.489
  23763702.801    23763701.8704   23763704.4854  124879146.090 6  97308417.78642
      2897.063        2257.479
  21562422.064    21562421.5164   21562423.3344  113311364.031 8  88294544.02645
      1980.633        1543.345
  21940595.368    21940595.6014   21940596.1704  115298609.837 8  89843086.67245
     -1675.102       -1305.280
  22530505.447    22530505.6884   22530506.4294  118398628.525 7  92258684.95744
      1176.631         916.849
  23926359.982    23926360.0364   23926358.7244  125733858.969 6  97974446.36642
     -3414.286       -2660.481
  24614197.063    24614197.9384   24614199.7654  129348489.711 6 100791049.47042
      3124.952        2435.005
 06  5 11 14 37 30.0000000  0  8G 2G 6G 7G10G13G16G23G27
  22660258.632    22660257.9314   22660257.5074  119080450.863 7  92789975.13944
     -3155.728       -2459.024
  21868768.292    21868768.2944   21868770.0864  114921157.702 7  89548963.24745
      -656.821        -511.820
  23747193.433    23747193.1454   23747195.3024  124792393.169 6  97240817.96942
      2885.924        2248.806
  21551167.555    21551166.9584   21551169.0414  113252221.789 8  88248459.24345
      1961.681        1528.571
  21950214.350    21950214.5444   21950214.8914  115349159.323 7  89882476.00745
     -1695.206       -1320.949
  22523845.237    22523845.0694   22523845.9184  118363627.193 7  92231411.17444
      1156.296         901.022
  23945879.979    23945879.5184   23945878.9984  125836436.617 6  98054376.96342
     -3424.624       -2668.543
  24596379.138    24596379.4854   24596381.6064  129254854.673 5 100718087.11442
      3117.019        2428.790
 06  5 11 14 38  0.0000000  0  8G 2G 6G 7G10G13G16G23G27
  22678310.242    22678309.9854   22678309.8484  119175313.807 7  92863894.25743
     -3169.252       -2469.521
  21872571.538    21872571.5774   21872573.4524  114941145.025 7  89564537.93645
      -676.508        -527.130
  23730747.499    23730747.9184   23730751.2624  124705969.057 6  97173474.20742
      2874.838        2240.154
  21540020.730    21540020.2424   21540022.0704  113193644.923 8  88202815.00045
      1942.573        1513.703
  21959947.166    21959947.3954   21959947.8844  115400304.677 7  89922329.54845
     -1715.295       -1336.597
  22517299.289    22517298.9384   22517299.5804  118329227.358 7  92204606.08544
      1136.118         885.275
  23965457.417    23965456.7664   23965455.7424  125939315.659 6  98134542.39942
     -3434.847       -2676.496
  24578603.961    24578604.7104   24578607.4104  129161451.158 6 100645305.17242
      3109.087        2422.682
 06  5 11 14 38 30.0000000  0  8G 2G 6G 7G10G13G16G23G27
  22696437.371    22696436.7684   22696436.2224  119270569.713 7  92938119.61944
     -3181.135       -2478.828
  21876486.651    21876486.5244   21876488.1144  114961718.320 7  89580569.22645
      -694.895        -541.490
  23714365.137    23714365.0984   23714367.6584  124619876.467 6  97106388.97842
      2864.762        2232.315
  21528981.767    21528981.2564   21528983.2404  113135635.216 8  88157612.62945
      1924.809        1499.866
  21969792.734    21969793.2654   21969793.4394  115452044.284 8  89962646.12945
     -1733.914       -1351.107
  22510867.998    22510867.5304   22510868.5554  118295430.105 7  92178270.51544
      1117.189         870.551
  23985091.045    23985090.9114   23985090.1384  126042493.015 6  98214940.29242
     -3443.677       -2683.347
  24560875.124    24560874.7494   24560877.8364  129068281.456 6 100572705.43342
      3102.289        2417.391
 06  5 11 14 39  0.0000000  0  8G 2G 6G 7G10G13G16G23G27
  22714636.120    22714636.1384   22714635.7404  119366207.373 6  93012642.51943
     -3195.195       -2489.777
  21880511.324    21880511.1104   21880512.7884  114982867.740 8  89597049.39945
      -715.591        -557.625
  23698044.438    23698043.5594   23698046.8114  124534108.345 6  97039556.59342
      2852.678        2222.860
  21518049.547    21518048.9604   21518051.1634  113078185.501 8  88112846.65945
      1904.669        1484.160
  21979749.907    21979749.9424   21979750.3414  115504367.129 7  90003417.15745
     -1754.767       -1367.358
  22504549.690    22504549.2984   22504550.2674  118262227.582 7  92152398.36544
      1095.881         853.926
  24004780.314    24004780.1134   24004778.3044  126145957.025 6  98295561.53942
     -3454.477       -2691.816
  24543189.152    24543188.4214   24543190.5704  128975338.870 6 100500282.69542
      3093.399        2410.451
 06  5 11 14 39 30.0000000  0  8G 2G 6G 7G10G13G16G23G27
  22732910.576    22732910.6614   22732910.2324  119462239.851 6  93087473.04344
     -3207.560       -2499.393
  21884648.059    21884648.1404   21884649.7484  115004608.622 7  89613990.40045
      -734.498        -572.336
  23681787.957    23681787.8954   23681790.8334  124448682.625 6  96972990.86642
      2841.619        2214.229
  21507227.211    21507226.6044   21507228.3364  113021313.531 8  88068530.88845
      1886.201        1469.776
  21989820.095    21989820.1314   21989820.6984  115557287.257 8  90044653.64445
     -1773.849       -1382.211
  22498347.887    22498347.9864   22498348.7324  118229636.699 7  92127002.83344
      1076.118         838.535
  24024525.462    24024525.8954   24024524.8204  126249720.672 6  98376416.29342
     -3463.915       -2699.171
  24525548.115    24525549.1784   24525550.5704  128882641.583 6 100428051.10442
      3085.798        2404.530
 06  5 11 14 40  0.0000000  0  8G 2G 6G 7G10G13G16G23G27
  22751256.240    22751256.1284   22751256.1444  119558648.531 6  93162596.71043
     -3219.775       -2508.897
  21888894.561    21888894.8054   21888896.1564  115026924.103 7  89631379.07645
      -753.323        -586.998
  23665594.873    23665594.5204   23665597.8014  124363586.454 6  96906682.20842
      2831.058        2206.017
  21496511.976    21496511.2654   21496513.1144  112965005.000 8  88024654.17145
      1867.680        1455.339
  22000000.711    22000000.9324   22000001.4854  115610786.823 8  90086341.59545
     -1792.816       -1397.003
  22492259.754    22492259.2144   22492260.7374  118197643.219 7  92102072.82544
      1056.541         823.289
  24044324.473    24044324.4894   24044323.2944  126353765.316 6  98457489.99842
     -3472.734       -2706.057
  24507953.177    24507952.7174   24507954.2844  128790176.061 6 100356000.11242
      3078.346        2398.725
 06  5 11 14 40 30.0000000  0  8G 2G 6G 7G10G13G16G23G27
  22769674.646    22769674.5664   22769673.5504  119655435.631 6  93238015.28243
     -3232.898       -2519.114
  21893251.046    21893251.2424   21893252.9654  115049818.435 7  89649218.83545
      -773.260        -602.541
  23649466.059    23649465.2924   23649468.1454  124278826.352 6  96840635.40442
      2819.380        2196.913
  21485905.266    21485904.6654   21485906.5784  112909266.187 8  87981221.28445
      1847.960        1439.980
  22010292.292    22010292.2584   22010292.8334  115664868.647 8  90128483.27044
     -1812.826       -1412.574
  22486285.747    22486285.8434   22486287.0354  118166252.674 7  92077612.63244
      1035.983         807.256
  24064177.647    24064176.7804   24064176.7224  126458092.953 6  98538784.25642
     -3482.462       -2713.592
  24490402.841    24490402.3984   24490405.4724  128697949.144 6 100284135.04042
      3069.933        2392.195
 06  5 11 14 41  0.0000000  0  8G 2G 6G 7G10G13G16G23G27
  22788169.688    22788169.4034   22788169.1364  119752627.640 6  93313749.32543
     -3246.799       -2530.009
  21897723.498    21897723.5534   21897725.0144  115073320.200 7  89667531.95345
      -793.886        -618.617
  23633406.672    23633405.2554   23633409.0474  124194434.091 6  96774875.34143
      2806.487        2186.829
  21475413.033    21475412.2124   21475414.2364  112854128.096 8  87938256.50345
      1827.523        1424.031
  22020699.511    22020699.8854   22020699.9584  115719559.776 7  90171099.69745
     -1833.465       -1428.707
  22480433.309    22480432.7094   22480434.4094  118135495.286 7  92053645.83444
      1014.311         790.340
  24084089.397    24084088.7054   24084087.6774  126562730.042 6  98620319.60842
     -3493.381       -2722.152
  24472903.461    24472903.7844   24472905.9974  128605992.639 5 100212480.67842
      3060.276        2384.626
 06  5 11 14 41 30.0000000  0  8G 2G 6G 7G10G13G16G23G27
  22806735.977    22806736.0944   22806735.3114  119850195.905 6  93389776.52843
     -3258.032       -2538.724
  21902305.976    21902306.3724   21902307.8344  115097402.621 7  89686297.40845
      -812.067        -632.778
  23617412.073    23617412.0784   23617414.7804  124110385.737 6  96709383.18043
      2796.189        2178.839
  21465030.208    21465029.5064   21465031.3744  112799566.957 8  87895741.30545
      1809.502        1410.020
  22031217.655    22031218.0494   22031218.3104  115774833.064 7  90214169.78144
     -1851.613       -1442.820
  22474695.975    22474696.0464   22474697.0914  118105346.983 7  92030153.65744
       995.182         775.461
  24104054.769    24104054.1944   24104053.9934  126667648.025 6  98702073.86542
     -3501.413       -2728.381
  24455452.876    24455451.5404   24455454.8264  128514283.237 6 100141018.83742
      3053.354        2379.224
 06  5 11 14 42  0.0000000  0  8G 2G 6G 7G10G13G16G23G27
  22825371.555    22825371.1794   22825371.1974  119948127.466 6  93466086.80043
     -3270.332       -2548.335
  21906997.020    21906997.4244   21906998.9844  115122054.588 7  89705506.76445
      -831.163        -647.669
  23601481.928    23601481.5754   23601485.0644  124026673.074 6  96644152.57543
      2784.765        2169.891
  21454755.758    21454754.9274   21454757.1254  112745573.506 8  87853668.39145
      1790.396        1395.121
  22041843.698    22041844.3104   22041844.7284  115830675.388 7  90257683.28944
     -1870.693       -1457.688
  22469073.108    22469072.8714   22469074.2304  118075797.671 7  92007128.22644
       975.009         759.749
  24124071.051    24124069.6054   24124068.8194  126772833.376 6  98784036.43342
     -3510.676       -2735.650
  24438045.256    24438045.6894   24438048.8094  128422812.158 6 100069742.71442
      3045.195        2372.850
 06  5 11 14 42 30.0000000  0  8G 2G 6G 7G10G13G16G23G27
  22844079.518    22844079.2974   22844079.0734  120046436.703 6  93542691.35443
     -3283.275       -2558.393
  21911799.688    21911799.9754   21911801.4014  115147292.300 7  89725172.55645
      -851.094        -663.221
  23585619.907    23585619.8464   23585622.4934  123943315.395 6  96579198.46943
      2772.633        2160.475
  21444592.687    21444592.0704   21444594.0274  112692167.104 8  87812053.03945
      1770.372        1379.500
  22052581.705    22052581.9204   22052582.3354  115887102.009 7  90301652.08344
     -1890.679       -1473.238
  22463567.743    22463567.0224   22463568.3064  118046865.488 7  91984583.66544
       954.024         743.395
  24144141.321    24144140.3964   24144138.7684  126878300.887 6  98866218.87142
     -3520.404       -2743.185
  24420688.312    24420688.9334   24420690.6134  128331599.286 6  99998667.80142
      3035.984        2365.659
 06  5 11 14 43  0.0000000  0  8G 2G 6G 7G10G13G16G23G27
  22862857.588    22862856.7944   22862856.8444  120145114.943 6  93619583.45343
     -3295.448       -2567.904
  21916712.544    21916712.7464   21916714.0964  115173108.952 7  89745289.43045
      -870.179        -678.066
  23569824.258    23569823.4984   23569826.5724  123860309.569 6  96514518.69743
      2761.009        2151.399
  21434540.542    21434540.0744   21434542.1324  112639343.101 8  87770891.38445
      1751.078        1364.473
  22063429.006    22063429.3824   22063429.6644  115944105.099 7  90346070.09744
     -1909.595       -1488.002
  22458177.962    22458178.0904   22458178.9304  118018545.516 7  91962516.14044
       933.852         727.666
  24164262.192    24164262.0764   24164261.8694  126984041.618 6  98948614.19342
     -3529.146       -2750.039
  24403379.574    24403378.8964   24403381.7744  128240640.536 6  99927790.86942
      3027.585        2359.149
 06  5 11 14 43 30.0000000  0  8G 2G 6G 7G10G13G16G23G27
  22881704.111    22881703.6594   22881703.5094  120244154.078 7  93696756.78943
     -3307.286       -2577.114
  21921734.474    21921734.3484   21921736.1014  115199497.494 7  89765851.63745
      -889.110        -692.778
  23554095.234    23554094.8924   23554097.6484  123777651.906 6  96450110.16843
      2749.309        2142.338
  21424598.816    21424597.9904   21424600.4444  112587097.778 8  87730180.65545
      1731.806        1349.464
  22074384.581    22074384.8554   22074385.0414  116001676.887 7  90390931.23744
     -1928.641       -1502.814
  22452904.899    22452904.8174   22452905.8384  117990833.477 7  91940922.34644
       913.451         711.770
  24184434.634    24184434.5764   24184433.5454  127090047.330 6  99031215.99942
     -3538.096       -2756.936
  24386118.110    24386119.4194   24386120.4654  128149932.889 5  99857109.61042
      3019.288        2352.685
 06  5 11 14 44  0.0000000  0  8G 2G 6G 7G10G13G16G23G27
  22900617.508    22900617.2614   22900617.2304  120343547.134 6  93774205.91243
     -3319.577       -2586.676
  21926864.166    21926864.0644   21926866.0364  115226453.846 7  89786856.32945
      -908.783        -708.111
  23538431.889    23538431.5484   23538434.5984  123695340.299 6  96385971.21343
      2737.211        2132.875
  21414766.413    21414765.6434   21414767.6344  112535428.849 8  87689919.26345
      1711.904        1333.956
  22085447.181    22085447.3524   22085447.8304  116059811.269 8  90436230.81144
     -1947.938       -1517.863
  22447746.472    22447746.7264   22447747.3724  117963726.194 7  91919799.81044
       892.727         695.627
  24204656.244    24204655.4824   24204655.4514  127196310.773 6  99114018.63042
     -3547.082       -2763.925
  24368904.403    24368904.8164   24368907.0794  128059474.474 6  99786622.53642
      3010.570        2345.966
 06  5 11 14 44 30.0000000  0  8G 2G 6G 7G10G13G16G23G27
  22919596.543    22919597.1534   22919595.9564  120443281.409 6  93851920.87243
     -3329.900       -2594.685
  21932099.896    21932099.9894   21932101.8104  115253967.080 7  89808295.02245
      -926.130        -721.636
  23522833.292    23522832.3114   23522835.2464  123613367.430 6  96322096.18543
      2726.931        2124.906
  21405042.107    21405041.5124   21405043.5254  112484327.535 8  87650100.04045
      1694.119        1320.106
  22096614.265    22096614.5774   22096615.2894  116118496.278 8  90481959.46144
     -1965.199       -1531.332
  22442701.357    22442701.3534   22442702.3284  117937214.517 7  91899141.35944
       873.955         681.015
  24224924.244    24224924.9524   24224923.8934  127302819.763 6  99197012.60541
     -3554.198       -2769.503
  24351736.960    24351737.6104   24351738.9874  127969257.761 6  99716323.79642
      3003.343        2340.333
 06  5 11 14 45  0.0000000  0  8G 2G 6G 7G10G13G16G23G27
  22938644.405    22938644.1264   22938644.1144  120543377.242 7  93929917.58343
     -3342.635       -2604.656
  21937445.858    21937445.8894   21937447.5544  115282059.292 7  89830184.95945
      -946.297        -737.357
  23507303.315    23507303.0074   23507306.0594  123531758.298 6  96258504.53643
      2713.979        2114.790
  21395430.724    21395430.1394   21395432.2674  112433818.513 8  87610742.32245
      1673.505        1304.015
  22107890.567    22107890.6924   22107891.0774  116177752.698 7  90528133.30444
     -1984.919       -1546.687
  22437774.660    22437774.1624   22437775.0284  117911322.483 7  91878965.80644
       852.409         664.209
  24245242.020    24245242.1204   24245241.5014  127409594.471 6  99280213.59242
     -3563.717       -2776.944
  24334620.616    24334620.6324   24334622.4874  127879307.999 6  99646233.05442
      2993.672        2332.723
 06  5 11 14 45 30.0000000  0  9G 2G 6G 7G10G13G16G21G23G27
  22957760.418    22957760.1724   22957760.3204  120643833.792 6  94008195.36543
     -3355.024       -2614.275
  21942901.913    21942901.9804   21942903.9714  115310731.032 7  89852526.40745
      -965.887        -752.637
  23491843.234    23491843.6564   23491846.4514  123450517.322 6  96195199.89743
      2701.237        2104.871
  21385932.550    21385931.8974   21385933.8254  112383905.181 8  87571848.87645
      1653.439        1288.396
  22119275.416    22119275.6674   22119276.1724  116237580.185 7  90574752.10844
     -2004.208       -1561.729
  22432965.859    22432966.0164   22432966.6394  117886052.651 7  91859275.01044
       831.376         647.847
  25020778.447    25020778.3684   25020781.4334  131485505.944 5 102455927.07041
      3786.037        2950.169
  24265611.979    24265611.1834   24265610.6194  127516633.596 6  99363620.63342
     -3572.975       -2784.117
  24317555.330    24317555.2564   24317556.5494  127789629.200 6  99576353.46542
      2984.329        2325.466
 06  5 11 14 46  0.0000000  0  9G 2G 6G 7G10G13G16G21G23G27
  22976946.391    22976946.4304   22976946.0534  120744656.576 7  94086758.56043
     -3367.036       -2623.656
  21948470.095    21948469.8114   21948471.7594  115339989.400 7  89875324.95245
      -985.309        -767.755
  23476455.728    23476456.1704   23476458.3374  123369654.446 6  96132189.94243
      2688.964        2095.298
  21376549.644    21376548.7704   21376550.8784  112334596.848 8  87533426.77045
      1633.257        1272.687
  22130769.933    22130770.0674   22130770.4084  116297984.372 7  90621820.33144
     -2023.389       -1576.660
  22428277.101    22428276.9224   22428278.1444  117861413.782 7  91840075.88644
       810.526         631.589
  24999176.016    24999173.9874   24999178.0064  131371977.054 5 102367462.90041
      3781.802        2946.770
  24286032.007    24286031.6544   24286029.7784  127623942.233 6  99447237.67142
     -3581.640       -2790.837
  24300543.720    24300542.2674   24300546.1024  127700231.324 6  99506692.78742
      2975.076        2318.220
 06  5 11 14 46 30.0000000  0  9G 2G 6G 7G10G13G16G21G23G27
  22996197.481    22996197.6234   22996197.2844  120845822.795 6  94165589.40443
     -3378.094       -2632.262
  21954145.316    21954145.4684   21954147.0934  115369814.261 7  89898565.12245
     -1003.454        -781.896
  23461136.694    23461136.8634   23461139.9954  123289152.190 6  96069460.97243
      2677.383        2086.299
  21367278.111    21367277.5184   21367279.3734  112285875.722 8  87495462.30945
      1614.325        1257.898
  22142370.262    22142370.4234   22142370.7874  116358943.756 8  90669321.15744
     -2041.235       -1590.569
  22423705.032    22423705.0524   22423705.9704  117837387.306 7  91821354.02144
       790.791         616.189
  24977595.040    24977593.3464   24977596.5814  131258565.198 5 102279090.08441
      3778.268        2944.000
  24306498.535    24306498.9614   24306499.9534  127731498.427 6  99531047.65442
     -3589.615       -2797.098
  24283582.016    24283581.4934   24283583.5434  127611097.153 6  99437237.61242
      2966.526        2311.588
 06  5 11 14 47  0.0000000  0  9G 2G 6G 7G10G13G16G21G23G27
  23015514.662    23015513.9614   23015514.0024  120947332.430 7  94244687.79743
     -3389.309       -2641.000
  21959928.654    21959928.9124   21959930.6844  115400206.856 7  89922247.58745
     -1022.636        -796.880
  23445887.212    23445887.4044   23445889.6964  123209015.544 6  96007016.93243
      2665.005        2076.619
  21358119.241    21358118.8834   21358120.7424  112237745.833 8  87457958.45545
      1594.346        1242.340
  22154075.991    22154076.1624   22154076.7354  116420458.971 7  90717255.11444
     -2059.767       -1605.028
  22419250.170    22419250.1584   22419251.1164  117813976.902 7  91803112.17844
       769.972         599.970
  24956036.157    24956034.9774   24956038.0554  131145274.714 5 102190811.88441
      3774.456        2941.207
  24327013.712    24327012.9824   24327013.5024  127839302.034 6  99615050.38942
     -3597.540       -2803.289
  24266671.420    24266670.4904   24266672.5374  127522231.898 6  99367991.98742
      2957.843        2304.823
 06  5 11 14 47 30.0000000  0  9G 2G 6G 7G10G13G16G21G23G27
  23034895.824    23034896.2344   23034896.2514  121049184.025 6  94324052.73643
     -3401.148       -2650.242
  21965820.562    21965820.4414   21965822.2734  115431167.146 7  89946372.46545
     -1041.916        -811.881
  23430708.024    23430708.0294   23430710.8274  123129247.448 6  95944859.94943
      2652.242        2066.698
  21349073.446    21349072.8904   21349074.9964  112190209.611 8  87420917.17945
      1574.253        1226.692
  22165887.527    22165887.5184   22165888.0844  116482528.647 7  90765621.09444
     -2078.634       -1619.708
  22414913.073    22414912.5194   22414913.5654  117791184.099 7  91785351.61644
       749.005         583.665
  24934499.899    24934500.0614   24934503.6954  131032109.693 5 102102631.57041
      3769.555        2937.338
  24347575.017    24347574.2094   24347573.1254  127947351.098 5  99699244.40642
     -3606.238       -2810.037
  24249813.051    24249813.3594   24249815.7774  127433638.833 6  99298958.44642
      2948.176        2297.285
 06  5 11 14 48  0.0000000  0  9G 2G 6G 7G10G13G16G21G23G27
  23054343.190    23054343.6404   23054343.5314  121151380.889 6  94403686.69043
     -3412.423       -2659.040
  21971820.911    21971821.1554   21971822.8654  115462700.182 7  89970943.59545
     -1060.785        -826.595
  23415600.556    23415600.5544   23415603.0884  123049856.238 6  95882996.57743
      2639.973        2057.089
  21340142.014    21340141.4214   21340143.4684  112143275.263 8  87384345.13045
      1554.304        1211.130
  22177805.473    22177805.2444   22177806.0244  116545156.668 7  90814422.13244
     -2097.097       -1634.109
  22410694.572    22410694.5864   22410695.2114  117769015.651 7  91768077.55044
       728.364         567.533
  24912992.583    24912990.9544   24912994.1134  130919077.399 5 102014554.40941
      3765.508        2934.174
  24368183.077    24368183.2714   24368181.3474  128055648.997 5  99783632.29942
     -3614.165       -2816.215
  24233007.069    24233006.9644   24233009.1474  127345325.858 6  99230143.14442
      2938.860        2290.030
 06  5 11 14 48 30.0000000  0  9G 2G 6G 7G10G13G16G21G23G27
  23073857.493    23073857.2284   23073857.1494  121253926.548 6  94483592.46643
     -3424.056       -2668.108
  21977931.732    21977931.8014   21977933.9814  115494811.264 7  89995965.14645
     -1080.015        -841.568
  23400566.305    23400565.2854   23400569.0164  122970850.386 6  95821433.44843
      2626.979        2047.020
  21331326.650    21331325.9394   21331328.0694  112096949.759 8  87348247.39345
      1534.007        1195.321
  22189830.226    22189830.4014   22189830.8424  116608347.278 7  90863661.55844
     -2115.705       -1648.586
  22406595.763    22406595.6114   22406596.7224  117747478.838 7  91751295.64844
       707.327         551.177
  24891510.105    24891508.5864   24891510.4614  130806187.539 5 101926588.39841
      3760.449        2930.184
  24388839.124    24388839.0244   24388837.7424  128164199.354 5  99868216.93642
     -3622.630       -2822.803
  24216256.299    24216256.3424   24216259.0114  127257301.862 6  99161553.07242
      2929.129        2282.440
 06  5 11 14 49  0.0000000  0  9G 2G 6G 7G10G13G16G21G23G27
  23093436.105    23093436.5194   23093436.0574  121356816.447 6  94563766.62543
     -3434.798       -2676.470
  21984151.885    21984151.7124   21984153.6414  115527497.596 7  90021435.10645
     -1098.783        -856.179
  23385605.041    23385604.4854   23385608.0714  122892230.865 6  95760171.70643
      2614.439        2037.243
  21322627.083    21322626.3184   21322628.3224  112051232.463 8  87312623.44945
      1514.180        1179.907
  22201960.745    22201961.1914   22201961.6634  116672095.999 7  90913335.89244
     -2133.876       -1662.743
  22402617.465    22402617.4114   22402618.1994  117726572.136 7  91735004.77244
       686.646         535.065
  24870052.616    24870053.7074   24870055.0704  130693439.163 5 101838732.63241
      3756.218        2926.877
  24409542.667    24409542.5304   24409542.9414  128272996.897 5  99952994.18741
     -3630.340       -2828.904
  24199561.190    24199561.1204   24199563.5514  127169567.105 6  99093188.42042
      2920.157        2275.487
 06  5 11 14 49 30.0000000  0  9G 2G 6G 7G10G13G16G21G23G27
  23113075.686    23113075.7594   23113074.7734  121460023.236 7  94644187.56143
     -3445.605       -2684.906
  21990476.327    21990476.2674   21990478.1694  115560733.775 7  90047333.53745
     -1117.233        -870.627
  23370713.264    23370713.3774   23370715.7564  122813974.847 6  95699193.06543
      2602.223        2027.684
  21314038.631    21314038.1364   21314039.9684  112006101.107 8  87277456.17645
      1494.405        1164.432
  22214192.912    22214193.6514   22214194.0184  116736376.693 7  90963424.73844
     -2151.859       -1676.788
  22398754.396    22398754.6344   22398755.0744  117706272.534 7  91719186.95744
       666.174         519.054
  24848621.394    24848622.7754   24848622.3614  130580811.269 5 101750970.69541
      3752.050        2923.623
  24430288.338    24430289.0584   24430287.1414  128382015.451 5 100037943.63941
     -3637.961       -2834.824
  24182916.613    24182916.9114   24182918.8764  127082099.790 6  99025032.15142
      2910.873        2268.209
 06  5 11 14 50  0.0000000  0  9G 2G 6G 7G10G13G16G21G23G27
  23132776.894    23132776.9794   23132776.9294  121563555.129 6  94724861.78343
     -3456.462       -2693.330
  21996907.264    21996907.3264   21996908.9684  115594529.632 7  90073668.19645
     -1135.889        -885.103
  23355893.592    23355893.0094   23355895.2434  122736095.613 6  95638508.02643
      2589.586        2017.855
  21305564.344    21305563.5984   21305565.5304  111961567.524 8  87242754.69845
      1474.503        1148.982
  22226527.996    22226528.7074   22226528.8514  116801197.747 7  91013934.61344
     -2169.633       -1690.616
  22395009.269    22395009.0674   22395009.8164  117686591.256 7  91703850.93444
       645.717         503.163
  24827215.827    24827216.1764   24827216.3464  130468316.311 5 101663312.19841
      3747.530        2920.229
  24451077.905    24451077.7904   24451077.3594  128491262.753 5 100123071.30341
     -3645.369       -2840.578
  24166324.835    24166324.7844   24166329.0154  126994912.605 6  98957094.13942
      2901.654        2260.971
 06  5 11 14 50 30.0000000  0  9G 2G 6G 7G10G13G16G21G23G27
  23152542.568    23152542.0654   23152542.0124  121667420.000 6  94805795.46543
     -3467.584       -2702.006
  22003446.770    22003446.6684   22003448.4204  115628893.404 7  90100445.04245
     -1154.942        -899.944
  23341147.618    23341146.7744   23341149.6034  122658605.528 6  95578126.17743
      2576.483        2007.617
  21297205.614    21297205.1064   21297207.0284  111917643.778 8  87208528.42945
      1453.970        1132.952
  22238967.793    22238968.1414   22238968.4744  116866567.506 7  91064872.07444
     -2188.206       -1705.125
  22391383.812    22391383.4994   22391384.1754  117667539.266 7  91689005.27844
       624.486         486.607
  24805835.605    24805835.1164   24805837.7444  130355967.651 5 101575767.94641
      3742.644        2916.372
  24471911.742    24471912.2394   24471911.5294  128600746.218 5 100208383.02241
     -3653.393       -2846.751
  24149790.364    24149789.9864   24149792.0004  126908018.228 6  98889384.29442
      2891.536        2253.116
 06  5 11 14 51  0.0000000  0  9G 2G 6G 7G10G13G16G21G23G27
  23172366.934    23172366.8104   23172366.7444  121771598.958 6  94886973.87343
     -3477.532       -2709.771
  22010090.623    22010090.7114   22010092.5404  115663809.249 7  90127652.33445
     -1172.832        -913.883
  23326473.023    23326473.0784   23326475.5604  122581490.915 6  95518036.89143
      2564.437        1998.212
  21288960.641    21288959.8164   21288961.9614  111874314.756 8  87174765.53745
      1434.487        1117.778
  22251507.800    22251508.2224   22251508.7014  116932467.418 7  91116222.64044
     -2205.318       -1718.412
  22387875.210    22387874.9854   22387875.9084  117649101.064 7  91674637.87744
       604.527         471.068
  24784481.154    24784481.0574   24784482.1814  130243751.140 5 101488326.60241
      3738.618        2913.232
  24492786.787    24492786.9864   24492786.3304  128710447.629 5 100293864.59541
     -3660.007       -2851.975
  24133307.955    24133307.6334   24133309.5034  126821402.936 6  98821891.96942
      2882.777        2246.324
 06  5 11 14 51 30.0000000  0  9G 2G 6G 7G10G13G16G21G23G27
  23192251.172    23192250.7364   23192250.5874  121876090.844 6  94968396.12243
     -3488.809       -2718.524
  22016839.927    22016839.7574   22016841.5044  115699276.946 7  90155289.61145
     -1191.928        -928.772
  23311870.637    23311870.3764   23311873.1604  122504755.172 6  95458242.79943
      2551.060        1987.822
  21280829.184    21280828.4304   21280830.4724  111831583.658 8  87141468.63345
      1413.891        1101.728
  22264148.975    22264149.4244   22264149.9174  116998896.468 7  91167985.52644
     -2223.777       -1732.842
  22384483.911    22384483.6464   22384483.8814  117631279.118 7  91660750.69944
       583.218         454.454
  24763152.429    24763152.3624   24763154.6764  130131670.559 6 101400991.17841
      3733.232        2908.940
  24513703.492    24513703.8554   24513702.8524  128820365.360 5 100379514.68541
     -3668.066       -2858.220
  24116879.006    24116878.7084   24116881.6824  126735070.511 6  98754620.02242
      2872.407        2238.269
 06  5 11 14 52  0.0000000  0  9G 2G 6G 7G10G13G16G21G23G27
  23212195.592    23212195.9894   23212195.2684  121980900.107 6  95050065.59043
     -3499.064       -2726.564
  22023695.277    22023695.2624   22023697.1794  115735302.563 7  90183361.51745
     -1210.273        -943.080
  23297342.607    23297342.2174   23297345.3264  122428408.357 6  95398751.82243
      2538.268        1977.846
  21272813.131    21272812.3574   21272814.5004  111789459.395 8  87108644.57545
      1393.884        1086.140
  22276891.935    22276892.3454   22276892.9334  117065860.338 7  91220165.12644
     -2241.115       -1746.340
  22381210.986    22381210.9614   22381211.4494  117614081.571 7  91647350.03844
       562.750         438.486
  24741852.587    24741850.6564   24741853.3804  130019735.906 6 101313769.53041
      3728.600        2905.309
  24534662.972    24534662.4014   24534661.9124  128930504.259 5 100465337.17941
     -3675.018       -2863.598
  24100506.411    24100506.2104   24100508.0794  126649031.013 6  98687576.34242
      2862.978        2230.903
 06  5 11 14 52 30.0000000  0  9G 2G 6G 7G10G13G16G21G23G27
  23232200.454    23232200.2764   23232200.1034  122086026.954 6  95131982.59743
     -3509.313       -2734.554
  22030657.170    22030656.9154   22030659.0854  115771887.987 7  90211869.81945
     -1228.818        -957.530
  23282888.647    23282888.6664   23282891.4424  122352454.716 6  95339567.19043
      2525.233        1967.685
  21264913.200    21264912.6204   21264914.4234  111747945.174 8  87076295.81445
      1373.720        1070.432
  22289736.360    22289736.9754   22289737.4394  117133359.088 7  91272761.53344
     -2258.737       -1760.065
  22378058.205    22378057.6204   22378058.1774  117597511.444 7  91634438.25544
       541.917         422.279
  24720581.159    24720581.1904   24720581.1784  129907951.279 5 101226664.65241
      3723.580        2901.436
  24555663.856    24555663.1034   24555662.7924  129040863.695 5 100551331.45341
     -3682.218       -2869.271
  24084190.301    24084190.0954   24084191.1964  126563288.802 6  98620764.30742
      2853.251        2223.265
 06  5 11 14 53  0.0000000  0  9G 2G 6G 7G10G13G16G21G23G27
  23252262.530    23252262.4804   23252262.0424  122191453.220 6  95214132.87043
     -3518.869       -2741.963
  22037722.488    22037722.4444   22037724.1494  115809015.942 7  90240800.69445
     -1246.480        -971.295
  23268507.702    23268507.0424   23268509.8624  122276881.283 6  95280678.82443
      2512.894        1958.105
  21257126.850    21257126.3294   21257128.2294  111707027.389 8  87044411.80445
      1354.238        1055.250
  22302679.251    22302679.9694   22302679.9434  117201375.024 7  91325760.93744
     -2275.552       -1773.145
  22375021.309    22375021.0714   22375021.7774  117581553.769 7  91622003.69644
       521.863         406.633
  24699335.452    24699334.4074   24699336.3714  129796303.901 6 101139666.77741
      3719.567        2898.368
  24576702.602    24576702.8434   24576702.6124  129151425.793 5 100637483.63041
     -3688.534       -2874.262
  24067928.109    24067927.3584   24067928.9444  126477830.606 6  98554173.55342
      2844.083        2216.146
 06  5 11 14 53 30.0000000  0  8G 2G 6G 7G10G13G16G21G27
  23272384.253    23272384.3194   23272384.3544  122297194.616 6  95296528.93443
     -3530.626       -2751.185
  22044894.242    22044893.8304   22044895.9084  115846703.818 7  90270167.80745
     -1266.260        -986.695
  23254202.557    23254202.5374   23254205.0324  122201708.521 6  95222102.79843
      2498.363        1946.776
  21249457.577    21249456.9604   21249458.9184  111666725.399 8  87013007.66445
      1332.497        1038.302
  22315724.241    22315724.4014   22315724.7894  117269923.976 7  91379175.69644
     -2294.447       -1787.933
  22372104.662    22372104.6194   22372105.6254  117566227.433 7  91610061.10144
       499.731         389.407
  24678119.212    24678118.7034   24678119.3714  129684814.896 6 101052792.26341
      3712.838        2893.112
  24051723.853    24051723.4174   24051725.5364  126392677.279 6  98487820.40442
      2832.754        2207.322
 06  5 11 14 54  0.0000000  0  8G 2G 6G 7G10G13G16G21G27
  23292564.714    23292564.9924   23292564.8204  122403245.825 6  95379166.43343
     -3539.836       -2758.293
  22052171.911    22052172.0634   22052173.7184  115884948.224 7  90299968.57145
     -1283.921       -1000.471
  23239974.150    23239974.0844   23239975.7374  122126936.293 6  95163838.79143
      2485.742        1936.940
  21241905.349    21241904.7394   21241906.6544  111627038.319 8  86982082.65145
      1312.988        1023.105
  22328868.899    22328869.2724   22328869.5544  117339001.562 7  91433002.39644
     -2311.091       -1800.851
  22369307.743    22369307.7174   22369308.7524  117551530.623 7  91598609.04344
       479.540         373.658
  24656933.269    24656932.7144   24656934.0034  129573484.218 6 100966041.05341
      3708.331        2889.615
  24035577.789    24035577.1604   24035579.0534  126307828.668 6  98421704.65342
      2823.459        2200.065
 06  5 11 14 54 30.0000000  0  8G 2G 6G 7G10G13G16G21G27
  23312802.155    23312801.5614   23312801.9684  122509593.043 6  95462034.30643
     -3549.870       -2766.145
  22059552.953    22059553.0744   22059554.8694  115923737.051 7  90330193.61545
     -1302.042       -1014.555
  23225819.182    23225819.6664   23225822.2114  122052555.682 6  95105879.90943
      2472.794        1926.885
  21234468.292    21234467.7234   21234469.7134  111587956.719 8  86951629.49145
      1292.571        1007.195
  22342111.954    22342111.8524   22342112.7984  117408594.557 7  91487230.70044
     -2328.376       -1814.330
  22366629.119    22366629.0644   22366629.8214  117537452.967 7  91587639.45144
       458.961         357.628
  24635776.397    24635776.0234   24635777.8554  129462302.924 6 100879406.29741
      3703.467        2885.835
  24019487.661    24019487.7554   24019488.4604  126223276.232 6  98355819.68542
      2813.387        2192.265
 06  5 11 14 55  0.0000000  0  8G 2G 6G 7G10G13G16G21G27
  23333097.424    23333097.3984   23333097.2414  122616243.834 6  95545138.71943
     -3560.815       -2774.686
  22067039.733    22067039.6734   22067041.3824  115963079.268 7  90360849.90644
     -1321.324       -1029.609
  23211742.379    23211742.0864   23211745.2014  121978578.996 6  95048235.75543
      2458.450        1915.680
  21227148.754    21227148.1224   21227150.2104  111549491.739 8  86921656.76545
      1271.329         990.637
  22355454.894    22355454.9514   22355455.6034  117478710.555 7  91541866.54644
     -2346.411       -1828.382
  22364070.395    22364069.7644   22364070.8534  117524005.300 7  91577160.75944
       437.129         340.612
  24614650.448    24614649.3034   24614651.0084  129351283.064 6 100792897.35641
      3696.941        2880.677
  24003455.928    24003456.1824   24003458.8464  126139031.876 6  98290174.78542
      2802.384        2183.727
 06  5 11 14 55 30.0000000  0  8G 2G 6G 7G10G13G16G21G27
  23353449.172    23353448.3014   23353449.2704  122723192.585 6  95628475.38343
     -3570.501       -2782.176
  22074630.692    22074630.5424   22074632.5604  116002969.906 7  90391933.51844
     -1339.236       -1043.564
  23197742.312    23197740.8744   23197743.8034  121905005.062 6  94990905.47343
      2445.327        1905.466
  21219946.142    21219945.3264   21219947.4814  111511641.159 8  86892162.82445
      1250.956         974.779
  22368895.791    22368896.0584   22368896.1244  117549343.813 7  91596905.43844
     -2363.434       -1841.645
  22361630.437    22361630.2334   22361631.1114  117511184.497 7  91567170.53944
       416.527         324.573
  24593553.984    24593553.1684   24593555.1964  129240424.490 6 100706514.12041
      3692.082        2876.928
  23987483.293    23987483.1384   23987486.1374  126055094.712 6  98224769.26542
      2792.269        2175.819
 06  5 11 14 56  0.0000000  0  8G 2G 6G 7G10G13G16G21G27
  23373856.370    23373856.0824   23373856.2874  122830433.997 6  95712040.13543
     -3580.123       -2789.666
  22082325.288    22082325.2964   22082327.2734  116043405.773 7  90423442.05744
     -1357.303       -1057.629
  23183817.584    23183817.4304   23183819.9174  121831833.786 6  94933888.94943
      2431.909        1895.021
  21212860.032    21212859.5424   21212861.4804  111474404.248 8  86863147.04945
      1230.636         958.952
  22382434.438    22382434.4664   22382435.1144  117620489.648 7  91652343.73244
     -2380.462       -1854.913
  22359309.783    22359309.3884   22359310.2204  117498989.045 7  91557667.62944
       395.747         308.386
  24572489.301    24572488.3384   24572491.4534  129129727.089 6 100620256.51741
      3686.713        2872.773
  23971568.700    23971568.8134   23971572.1684  125971464.902 6  98159603.17842
      2782.016        2167.819
 06  5 11 14 56 30.0000000  0  8G 2G 6G 7G10G13G16G21G27
  23394320.595    23394320.0824   23394319.9704  122937972.536 6  95795836.43143
     -3590.245       -2797.603
  22090124.814    22090124.6064   22090126.7024  116084392.425 7  90455379.70744
     -1376.140       -1072.302
  23169971.677    23169971.3334   23169973.7904  121759074.476 6  94877193.41843
      2417.782        1883.970
  21205892.378    21205891.8714   21205893.8464  111437789.077 8  86834615.67846
      1209.318         942.310
  22396071.261    22396072.1164   22396072.1514  117692152.921 7  91708185.19144
     -2398.090       -1868.638
  22357109.444    22357109.1894   22357109.6994  117487426.523 7  91548657.92644
       374.153         291.545
  24551455.740    24551455.7404   24551456.7494  129019200.012 5 100534131.61541
      3680.822        2868.214
  23955715.697    23955715.4344   23955716.9404  125888151.819 6  98094683.92042
      2771.112        2159.289
 06  5 11 14 57  0.0000000  0  8G 2G 6G 7G10G13G16G21G27
  23414840.511    23414839.6204   23414839.8444  123045804.848 6  95879861.55843
     -3599.017       -2804.431
  22098028.551    22098028.9214   22098030.6584  116125928.124 7  90487745.19644
     -1393.275       -1085.686
  23156205.233    23156205.1704   23156207.7494  121686728.792 6  94820820.19243
      2404.998        1874.021
  21199043.631    21199042.6334   21199044.6624  111401796.402 8  86806569.50446
      1189.788         927.110
  22409806.423    22409806.8124   22409807.2844  117764330.993 7  91764427.82744
     -2414.227       -1881.232
  22355029.581    22355029.2794   22355030.1564  117476496.729 7  91540141.20044
       354.138         275.963
  24530456.443    24530456.1884   24530457.4384  128908845.348 6 100448141.05641
      3675.953        2864.373
  23939921.898    23939921.4054   23939923.8374  125805157.035 6  98030012.67342
      2761.378        2151.697
 06  5 11 14 57 30.0000000  0  8G 2G 6G 7G10G13G16G21G27
  23435415.414    23435415.8054   23435415.0244  123153928.858 6  95964113.97043
     -3609.261       -2812.435
  22106036.845    22106037.3444   22106038.6394  116168011.960 7  90520537.78044
     -1412.285       -1100.505
  23142517.427    23142516.8084   23142519.9804  121614799.047 6  94764771.08043
      2390.481        1862.699
  21192312.731    21192311.8894   21192313.9754  111366427.581 8  86779009.49646
      1168.233         910.291
  22423639.430    22423639.1354   22423640.0004  117837021.588 7  91821069.80144
     -2431.784       -1894.912
  22353069.860    22353069.7914   22353070.7604  117466200.214 7  91532117.95844
       332.371         258.953
  24509490.326    24509489.7964   24509489.5734  128798665.568 6 100362286.71642
      3669.378        2859.354
  23924189.527    23924189.1294   23924191.4264  125722483.248 6  97965591.54342
      2750.144        2142.942
 06  5 11 14 58  0.0000000  0  8G 2G 6G 7G10G13G16G21G27
  23456044.894    23456045.4254   23456045.5574  123262339.589 6  96048589.80143
     -3618.448       -2819.559
  22114149.209    22114148.7414   22114151.0964  116210640.443 7  90553754.75244
     -1429.984       -1114.275
  23128908.985    23128907.8694   23128911.1544  121543285.512 6  94709046.29743
      2376.839        1852.073
  21185700.731    21185700.1874   21185702.1344  111331681.541 8  86751934.61946
      1147.845         894.427
  22437568.281    22437568.6374   22437569.1254  117910220.442 7  91878107.85544
     -2448.380       -1907.819
  22351231.134    22351230.7674   22351231.5344  117456535.517 7  91524587.04744
       311.652         242.851
  24488556.126    24488556.3994   24488558.3084  128688661.853 6 100276569.69842
      3663.834        2854.974
  23908518.594    23908518.0604   23908520.6124  125640130.489 6  97901420.54642
      2739.738        2134.869
 06  5 11 14 58 30.0000000  0  8G 2G 6G 7G10G13G16G21G27
  23476730.759    23476730.2014   23476730.8574  123371041.905 6  96133292.79743
     -3628.432       -2827.344
  22122365.555    22122365.7584   22122367.3814  116253819.525 7  90587400.73344
     -1448.566       -1128.756
  23115380.877    23115381.2584   23115383.4804  121472197.514 6  94653653.12943
      2362.316        1840.771
  21179208.961    21179208.1864   21179210.4914  111297566.889 8  86725351.73145
      1126.424         877.734
  22451594.998    22451595.5454   22451596.2924  117983932.179 7  91935545.54344
     -2465.747       -1921.353
  22349513.761    22349513.2414   22349513.7074  117447510.303 7  91517554.40944
       290.070         226.048
  24467659.562    24467658.6654   24467659.6304  128578843.424 6 100190997.06142
      3657.510        2850.044
  23892910.716    23892909.5364   23892912.1794  125558108.233 6  97837507.09342
      2728.358        2125.986
 06  5 11 14 59  0.0000000  0  8G 2G 6G 7G10G13G16G21G27
  23497467.961    23497467.9214   23497467.2374  123480015.327 6  96218207.09143
     -3637.065       -2834.061
  22130683.096    22130683.8534   22130685.5274  116297530.508 7  90621461.23144
     -1466.134       -1142.446
  23101931.342    23101931.0614   23101933.4844  121401519.578 6  94598579.47043
      2348.729        1830.194
  21172834.026    21172833.6214   21172835.7364  111264067.256 8  86699248.10746
      1106.249         862.014
  22465716.016    22465716.5694   22465717.3904  118058137.076 7  91993367.50844
     -2481.852       -1933.897
  22347914.431    22347914.3394   22347914.8114  117439107.159 7  91511006.48044
       269.483         209.980
  24446793.469    24446792.3514   24446793.9364  128469194.728 6 100105556.65342
      3651.635        2845.414
  23877361.308    23877361.0654   23877363.8614  125476401.172 6  97773839.20142
      2718.264        2118.096
 06  5 11 14 59 30.0000000  0  8G 2G 6G 7G10G13G16G21G27
  23518258.189    23518258.2204   23518257.5464  123589266.835 6  96303338.07243
     -3646.719       -2841.606
  22139104.439    22139104.3084   22139106.0924  116341781.232 7  90655942.29144
     -1484.339       -1156.645
  23088562.100    23088561.3004   23088564.4484  121331263.107 6  94543834.18643
      2334.416        1818.994
  21166578.464    21166577.9374   21166579.7474  111231193.152 8  86673631.96245
      1084.961         845.410
  22479932.000    22479932.1534   22479932.7684  118132842.084 7  92051579.19744
     -2499.006       -1947.298
  22346435.242    22346435.2484   22346436.1114  117431335.463 7  91504950.58444
       248.077         193.295
  24425962.472    24425961.9274   24425962.0464  128359727.805 6 100020257.75642
      3645.538        2840.697
  23861875.936    23861875.9614   23861877.3934  125395021.307 6  97710426.27442
      2706.706        2109.099
 06  5 11 15  0  0.0000000  0  8G 2G 6G 7G10G13G16G21G27
  23539098.406    23539098.7154   23539097.9504  123698786.104 6  96388677.66943
     -3655.367       -2848.372
  22147625.871    22147626.0024   22147627.9094  116386562.660 7  90690836.87444
     -1501.866       -1170.280
  23075271.536    23075271.6634   23075274.2104  121261422.601 6  94489413.02643
      2320.695        1808.339
  21160440.535    21160439.8564   21160441.8764  111198937.866 8  86648497.96946
      1064.615         829.569
  22494241.102    22494241.0144   22494241.7894  118208037.151 7  92110172.71644
     -2514.927       -1959.678
  22345075.949    22345075.3594   22345076.2224  117424188.664 7  91499381.63744
       227.461         177.247
  24405165.256    24405164.0714   24405166.0254  128250437.266 6  99935096.39542
      3639.648        2836.062
  23846451.377    23846451.3394   23846454.0334  125313962.988 6  97647263.90642
      2696.284        2101.033
 06  5 11 15  0 30.0000000  0  8G 2G 6G 7G10G13G16G21G27
  23559990.812    23559990.6574   23559990.5794  123808575.549 6  96474227.92243
     -3663.926       -2855.027
  22156249.040    22156249.4894   22156251.0474  116431878.557 7  90726148.03144
     -1519.373       -1183.938
  23062061.628    23062061.8684   23062064.0974  121192005.239 6  94435321.56343
      2306.873        1797.590
  21154421.437    21154420.8434   21154422.7944  111167307.243 8  86623850.70646
      1043.936         813.463
  22508643.971    22508644.5014   22508644.7084  118283724.489 7  92169149.84344
     -2531.072       -1972.272
  22343835.712    22343835.4264   22343836.2844  117417671.987 7  91494303.70644
       206.756         161.108
  24384402.346    24384402.6924   24384404.2204  128141330.330 6  99850078.00842
      3633.953        2831.645
  23831088.995    23831088.0744   23831090.9454  125233233.494 6  97584357.69942
      2685.586        2092.667
 06  5 11 15  1  0.0000000  0  8G 2G 6G 7G10G13G16G21G27
  23580933.805    23580934.0514   23580933.8324  123918631.968 6  96559986.00943
     -3672.480       -2861.687
  22164974.102    22164973.9174   22164975.5684  116477727.511 7  90761874.56144
     -1536.736       -1197.466
  23048933.455    23048933.1844   23048935.8644  121123013.342 7  94381561.67843
      2293.048        1786.784
  21148521.447    21148520.7074   21148522.9184  111136302.829 8  86599691.42846
      1023.578         797.577
  22523139.716    22523140.4774   22523140.8994  118359902.262 7  92228509.15044
     -2546.783       -1984.516
  22342715.154    22342715.4164   22342715.5664  117411785.446 7  91489716.81144
       186.202         145.087
  24363675.498    24363675.9214   24363675.6354  128032410.458 6  99765205.48342
      3627.878        2826.962
  23815789.615    23815790.0584   23815790.8954  125152835.080 6  97521709.51842
      2674.952        2084.355
 06  5 11 15  1 30.0000000  0  8G 2G 6G 7G10G13G16G21G27
  23601926.286    23601925.5644   23601924.0584  124028944.063 6  96645943.41843
     -3681.438       -2868.628
  22173798.451    22173798.2414   22173799.8294  116524098.879 7  90798007.98444
     -1554.686       -1211.438
  23035884.603    23035883.5794   23035886.7164  121054439.960 7  94328127.94743
      2278.545        1775.483
  21142738.986    21142738.4294   21142740.5114  111105916.225 8  86576013.47246
      1002.341         781.046
  22537727.356    22537727.8684   22537728.1524  118436558.886 7  92288241.54744
     -2563.434       -1997.468
  22341713.540    22341713.0534   22341713.5944  117406520.315 7  91485614.08644
       164.853         128.457
  24342984.321    24342982.0204   24342985.2064  127923670.249 6  99680472.83142
      3621.444        2821.948
  23800552.222    23800551.2134   23800554.4124  125072761.032 6  97459314.10342
      2663.492        2075.464
 06  5 11 15  2  0.0000000  0  8G 2G 6G 7G10G13G16G21G27
  23622968.014    23622968.5074   23622967.8904  124139524.764 6  96732110.17743
     -3691.170       -2876.248
  22182724.786    22182724.6664   22182726.4774  116571006.531 7  90834559.23744
     -1573.030       -1225.761
  23022917.822    23022917.7524   23022919.9284  120986302.330 6  94275033.74843
      2263.436        1763.696
  21137077.469    21137076.9724   21137078.7804  111076163.951 8  86552829.83446
       980.655         764.160
  22552408.493    22552407.9594   22552408.9194  118513707.201 7  92348357.11644
     -2580.395       -2010.716
  22340832.684    22340832.5454   22340833.3074  117401891.896 7  91482007.55644
       143.127         111.512
  24322328.330    24322327.6114   24322328.1824  127815127.889 6  99595894.49042
      3614.203        2816.281
  23785379.462    23785378.9114   23785381.5764  124993028.859 6  97397185.11542
      2651.408        2066.017
 06  5 11 15  2 30.0000000  0  8G 2G 6G 7G10G13G16G21G27
  23644061.606    23644061.2114   23644061.4394  124250366.841 6  96818480.54843
     -3699.333       -2882.582
  22191751.869    22191751.9584   22191753.6404  116618444.820 7  90871523.96044
     -1590.398       -1239.277
  23010034.569    23010033.9314   23010036.5904  120918598.097 6  94222277.26843
      2249.333        1752.701
  21131536.107    21131535.3264   21131537.2344  111047042.803 8  86530138.04246
       959.923         747.986
  22567181.167    22567181.9034   22567182.3404  118591340.495 7  92408850.56944
     -2596.118       -2022.978
  22340072.522    22340072.1924   22340073.0864  117397896.288 7  91478894.09444
       122.362          95.327
  24301711.323    24301711.2124   24301711.3594  127706781.143 6  99511468.56942
      3608.000        2811.430
  23770271.023    23770271.0164   23770274.1174  124913636.306 6  97335320.69642
      2640.520        2057.494
 06  5 11 15  3  0.0000000  0  8G 2G 6G 7G10G13G16G21G27
  23665201.641    23665201.7834   23665201.3814  124361459.015 6  96905045.78243
     -3707.627       -2889.027
  22200878.381    22200878.3184   22200879.8734  116666403.896 7  90908894.69644
     -1607.538       -1252.635
  22997232.010    22997231.7074   22997234.0574  120851320.807 6  94169853.48843
      2235.208        1741.726
  21126113.144    21126112.3274   21126114.2594  111018544.727 8  86507931.73246
       939.214         731.874
  22582044.379    22582044.8924   22582045.3764  118669447.267 7  92469712.99844
     -2611.873       -2035.223
  22339430.207    22339430.3784   22339430.9564  117394525.092 7  91476267.23044
       101.662          79.229
  24281128.720    24281127.8644   24281129.5704  127598623.801 6  99427190.22942
      3601.764        2806.580
  23755227.105    23755226.0934   23755228.7704  124834577.162 6  97273716.20443
      2629.247        2048.771
 06  5 11 15  3 30.0000000  0  8G 2G 6G 7G10G13G16G21G27
  23686390.032    23686391.1394   23686391.4064  124472810.762 6  96991813.30143
     -3716.594       -2896.046
  22210105.570    22210105.3174   22210107.3554  116714894.086 7  90946679.29244
     -1625.468       -1266.587
  22984513.748    22984512.9294   22984515.3634  120784484.561 7  94117773.38943
      2220.198        1730.051
  21120811.025    21120810.3784   21120812.4504  110990682.793 8  86486221.12846
       917.789         715.173
  22596999.954    22596999.9394   22597000.4544  118748037.326 7  92530952.01244
     -2628.133       -2047.885
  22338910.433    22338910.3484   22338911.0354  117391790.431 7  91474136.33444
        80.279          62.582
  24260585.609    24260585.3764   24260585.9424  127490670.272 6  99343070.50742
      3594.670        2800.973
  23740248.596    23740249.2084   23740251.1064  124755865.541 6  97212382.42842
      2617.333        2039.484
 06  5 11 15  4  0.0000000  0  8G 2G 6G 7G10G13G16G21G27
  23707628.800    23707628.9684   23707629.2094  124584417.739 6  97078779.59742
     -3724.400       -2902.131
  22219433.626    22219433.7174   22219435.5094  116763912.286 7  90984875.15344
     -1642.871       -1280.144
  22971878.893    22971878.4634   22971880.8044  120718090.109 6  94066037.56143
      2205.806        1718.831
  21115630.274    21115629.5774   21115631.4994  110963456.393 8  86465005.63346
       896.854         698.871
  22612046.157    22612046.5204   22612047.2364  118827106.875 7  92592564.66144
     -2643.419       -2059.804
  22338511.029    22338510.5984   22338511.2474  117389691.090 7  91472500.50644
        59.402          46.327
  24240083.048    24240082.0674   24240082.9954  127382922.038 6  99259110.81142
      3588.066        2795.907
  23725336.189    23725336.3974   23725338.7574  124677502.375 6  97151320.20543
      2606.311        2030.925
 06  5 11 15  4 30.0000000  0  8G 2G 6G 7G10G13G16G21G27
  23728909.059    23728910.0504   23728908.8834  124696245.831 6  97165918.31342
     -3731.488       -2907.613
  22228855.291    22228855.5974   22228857.9774  116813425.467 7  91023456.79844
     -1658.736       -1292.520
  22959322.703    22959322.2784   22959324.7764  120652107.651 6  94014622.72443
      2192.564        1708.481
  21110564.452    21110563.5884   21110565.8984  110936834.632 8  86444261.18846
       877.046         683.431
  22627177.554    22627177.4684   22627177.8064  118906621.537 7  92654524.11544
     -2658.029       -2071.175
  22338226.229    22338225.7884   22338226.2954  117388195.026 7  91471334.75444
        39.772          30.992
  24219611.289    24219612.0854   24219612.9014  127275349.492 6  99175288.06042
      3582.857        2791.826
  23710485.810    23710485.5954   23710487.9134  124599458.038 6  97090506.55343
      2595.848        2022.728
 06  5 11 15  5  0.0000000  0  8G 2G 6G 7G10G13G16G21G27
  23750233.561    23750233.4914   23750232.7104  124808303.831 6  97253236.19842
     -3739.428       -2913.812
  22238373.642    22238373.6824   22238375.6514  116863443.441 7  91062431.74044
     -1676.005       -1305.961
  22946847.285    22946846.9424   22946849.6754  120586550.411 7  93963539.18943
      2177.799        1696.979
  21105615.779    21105615.1924   21105617.3834  110910830.210 8  86423998.01146
       856.112         667.104
  22642395.137    22642395.0264   22642396.2014  118986590.455 7  92716837.55544
     -2673.594       -2083.314
  22338058.329    22338057.8634   22338059.1404  117387314.079 7  91470648.32744
        18.705          14.578
  24199177.345    24199177.0824   24199178.4704  127167966.779 6  99091613.26042
      3575.891        2786.445
  23695697.318    23695696.9744   23695699.0634  124521746.144 6  97029951.90543
      2584.407        2013.810
 06  5 11 15  5 30.0000000  0  8G 2G 6G 7G10G13G16G21G27
  23771602.184    23771603.5244   23771602.2424  124920599.349 6  97340739.12143
     -3747.765       -2920.317
  22247990.237    22247989.5644   22247991.7334  116913975.251 7  91101807.11044
     -1693.684       -1319.763
  22934455.635    22934455.8924   22934457.7794  120521431.438 7  93912797.19243
      2162.565        1685.122
  21100786.983    21100786.3224   21100788.4834  110885454.020 8  86404224.24246
       834.756         650.483
  22657700.514    22657700.7644   22657701.6234  119067021.613 7  92779511.18944
     -2689.368       -2095.589
  22338010.006    22338009.8564   22338010.3284  117387058.674 7  91470449.31444
        -2.629          -2.050
  24178781.416    24178781.5014   24178783.3934  127060786.345 6  99008096.07642
      3568.517        2780.698
  23680973.829    23680974.3234   23680976.7454  124444379.192 6  96969666.05143
      2572.474        2004.502
 06  5 11 15  6  0.0000000  0  8G 2G 6G 7G10G13G16G21G27
  23793019.146    23793018.1554   23793018.4944  125033139.439 6  97428432.50343
     -3755.793       -2926.590
  22257704.667    22257704.8884   22257707.0434  116965029.504 7  91141589.87244
     -1710.959       -1333.242
  22922149.629    22922149.3894   22922151.1594  120456761.906 7  93862405.36643
      2147.629        1673.470
  21096079.838    21096079.0514   21096081.0694  110860717.099 8  86384948.76646
       813.597         633.968
  22673095.360    22673095.2194   22673096.2784  119147921.657 7  92842550.18144
     -2704.841       -2107.666
  22338081.958    22338081.9544   22338082.7274  117387438.540 7  91470745.31144
       -23.671         -18.430
  24158426.648    24158426.9944   24158426.8984  126953820.529 6  98924746.06542
      3561.390        2775.075
  23666320.190    23666319.9214   23666321.8484  124367369.014 6  96909658.16543
      2560.719        1995.335
 06  5 11 15  6 30.0000000  0  8G 2G 6G 7G10G13G16G21G27
  23814479.773    23814480.2664   23814479.1294  125145921.127 6  97516314.24842
     -3763.583       -2932.651
  22267518.681    22267519.0664   22267520.7754  117016602.909 7  91181777.00444
     -1727.997       -1346.499
  22909928.887    22909928.7574   22909930.6784  120392543.297 7  93812364.96143
      2132.716        1661.842
  21091494.141    21091493.2634   21091495.4344  110836619.546 8  86366171.68546
       792.347         617.398
  22688578.576    22688579.0324   22688579.9624  119229287.748 7  92905952.28743
     -2720.268       -2119.668
  22338275.004    22338275.1794   22338275.7154  117388452.999 7  91471535.82444
       -44.710         -34.851
  24138113.390    24138113.6104   24138113.6684  126847071.098 6  98841564.68542
      3554.365        2769.622
  23651734.101    23651733.5844   23651736.3334  124290717.163 6  96849929.45643
      2548.813        1986.089
 06  5 11 15  7  0.0000000  0  8G 2G 6G 7G10G13G16G21G27
  23835987.489    23835986.3534   23835987.4504  125258941.699 6  97604382.19342
     -3771.804       -2939.052
  22277431.455    22277431.7494   22277433.6654  117068694.340 7  91222367.69844
     -1745.440       -1360.075
  22897794.651    22897794.1054   22897797.1554  120328777.665 7  93762677.52843
      2117.542        1650.015
  21087029.845    21087029.3054   21087031.3604  110813161.810 8  86347893.06546
       770.842         600.648
  22704150.576    22704150.5804   22704151.4974  119311117.529 7  92969715.73643
     -2735.804       -2131.802
  22338588.937    22338588.6944   22338589.6014  117390101.944 7  91472820.72744
       -65.958         -51.384
  24117840.670    24117840.5064   24117841.9264  126740540.805 6  98758554.11442
      3546.834        2763.748
  23637215.602    23637216.3384   23637218.3524  124214425.895 6  96790481.74043
      2536.520        1976.446
 06  5 11 15  7 30.0000000  0  8G 2G 6G 7G10G13G16G21G27
  23857537.131    23857536.7794   23857536.7444  125372187.026 6  97692625.37342
     -3778.692       -2944.465
  22287440.606    22287440.0844   22287442.3514  117121290.768 7  91263351.90544
     -1761.883       -1372.888
  22885745.022    22885744.8044   22885746.7744  120265455.551 7  93713335.64243
      2103.118        1638.802
  21082685.772    21082685.0804   21082687.0734  110790333.123 8  86330104.57346
       750.300         584.632
  22719807.646    22719807.8214   22719808.3914  119393396.906 7  93033829.47543
     -2750.251       -2143.022
  22339021.070    22339021.0464   22339021.8454  117392373.895 7  91474591.06144
       -86.338         -67.260
  24097608.916    24097608.5044   24097610.2824  126634220.467 6  98675707.10542
      3540.230        2758.660
  23622765.094    23622764.7684   23622767.4354  124138486.246 6  96731308.04043
      2525.350        1967.793
 06  5 11 15  8  0.0000000  0  8G 2G 6G 7G10G13G16G21G27
  23879129.519    23879129.2494   23879128.6284  125485655.941 6  97781042.76942
     -3786.351       -2950.380
  22297545.211    22297545.2954   22297547.2074  117174392.161 7  91304729.69144
     -1778.766       -1386.039
  22873780.269    22873779.6804   22873782.4484  120202580.346 7  93664341.97843
      2087.932        1626.949
  21078461.694    21078460.8534   21078462.9944  110768135.593 8  86312807.84946
       729.028         568.075
  22735550.625    22735550.3904   22735551.4124  119476124.751 7  93098292.71143
     -2765.474       -2154.900
  22339572.514    22339572.4634   22339573.2304  117395270.867 7  91476848.45944
      -107.399         -83.662
  24077417.581    24077418.1354   24077417.7244  126528113.964 6  98593026.76642
      3532.877        2752.863
  23608381.857    23608381.7314   23608383.6114  124062901.654 6  96672410.99243
      2513.132        1958.297
 06  5 11 15  8 30.0000000  0  8G 2G 6G 7G10G13G16G21G27
  23900766.556    23900767.2414   23900767.7624  125599361.514 6  97869644.29442
     -3794.792       -2956.997
  22307748.761    22307748.8644   22307750.5684  117228012.980 7  91346512.18044
     -1796.815       -1400.128
  22861903.871    22861903.7514   22861905.7924  120140170.348 7  93615710.79143
      2071.556        1614.198
  21074360.789    21074360.2714   21074362.3404  110746586.268 8  86296016.21446
       706.672         550.637
  22751380.954    22751381.1534   22751381.3674  119559314.696 7  93163116.01743
     -2781.613       -2167.525
  22340245.828    22340245.7414   22340246.1694  117398808.463 7  91479605.01844
      -129.649        -101.032
  24057270.496    24057270.1654   24057271.2584  126422240.272 6  98510527.80442
      3524.246        2746.187
  23594069.527    23594069.5474   23594072.1384  123987690.237 6  96613804.68443
      2500.052        1948.078
 06  5 11 15  9  0.0000000  0  8G 2G 6G 7G10G13G16G21G27
  23922448.390    23922448.4484   23922448.4294  125713297.701 6  97958425.75442
     -3801.978       -2962.542
  22318050.174    22318050.2574   22318051.6484  117282147.262 7  91388694.75544
     -1813.331       -1412.977
  22850115.815    22850115.7394   22850117.8364  120078223.064 7  93567440.18343
      2056.838        1602.754
  21070382.919    21070382.2864   21070384.2584  110725681.456 8  86279726.74246
       685.744         534.361
  22767298.104    22767298.1344   22767299.4104  119642959.936 7  93228294.08843
     -2796.012       -2178.689
  22341040.146    22341039.8074   22341040.5644  117402982.312 7  91482857.36344
      -150.061        -116.913
  24037166.776    24037166.4664   24037167.7324  126316597.553 6  98428208.92642
      3517.201        2740.678
  23579828.125    23579827.5344   23579830.6004  123912850.004 6  96555487.54043
      2488.213        1938.849
 06  5 11 15  9 30.0000000  0  8G 2G 6G 7G10G13G16G21G27
  23944172.209    23944172.3664   23944172.7864  125827459.494 6  98047383.31642
     -3808.920       -2967.976
  22328448.950    22328448.2864   22328450.1414  117336790.732 7  91431274.17344
     -1829.637       -1425.673
  22838415.457    22838415.4324   22838417.4544  120016737.780 7  93519529.58243
      2041.904        1591.085
  21066527.140    21066526.5544   21066528.5704  110705419.298 8  86263938.00046
       664.951         518.146
  22783300.678    22783301.0634   22783301.6694  119727055.186 7  93293822.80843
     -2810.590       -2190.059
  22341955.112    22341954.6184   22341955.5064  117407789.651 7  91486603.34644
      -170.679        -132.981
  24017107.693    24017107.4694   24017109.0654  126211185.372 6  98346069.59442
      3510.102        2735.190
  23565656.953    23565657.2004   23565659.2314  123838380.146 6  96497458.94043
      2476.297        1929.602
 06  5 11 15 10  0.0000000  0  8G 2G 6G 7G10G13G16G21G27
  23965934.256    23965934.7554   23965934.3094  125941820.840 6  98136496.01142
     -3815.073       -2972.726
  22338939.430    22338939.0994   22338940.9324  117391919.685 7  91474231.76244
     -1845.616       -1438.119
  22826799.590    22826799.1194   22826801.4974  119955694.843 7  93471963.64143
      2027.463        1579.874
  21062789.827    21062788.9074   21062790.8854  110685778.605 8  86248633.61346
       644.328         502.079
  22799384.830    22799385.3074   22799385.4144  119811576.153 7  93359683.24543
     -2824.413       -2200.875
  22342986.325    22342985.5104   22342986.8534  117413208.427 7  91490825.77444
      -190.783        -148.640
  23997088.803    23997088.5714   23997089.4384  126105984.380 6  98264094.89742
      3503.145        2729.775
  23551552.282    23551552.5864   23551555.0104  123764261.873 6  96439704.75743
      2464.907        1920.706
 06  5 11 15 10 30.0000000  0  8G 2G 6G 7G10G13G16G21G27
  23987737.317    23987736.0804   23987736.5564  126056389.037 6  98225769.90342
     -3822.827       -2978.823
  22349523.471    22349523.8554   22349525.5694  117447541.505 7  91517573.37144
     -1862.757       -1451.498
  22815269.474    22815269.3944   22815271.4754  119895104.890 7  93424750.68644
      2011.866        1567.700
  21059172.186    21059171.4684   21059173.5644  110666768.743 8  86233820.72646
       622.684         485.200
  22815550.910    22815551.2614   22815551.9774  119896529.352 7  93425880.52043
     -2839.094       -2212.264
  22344135.182    22344135.0344   22344135.7854  117419247.295 7  91495531.37344
      -211.850        -165.092
  23977111.842    23977111.9514   23977112.9164  126001006.084 6  98182293.72442
      3495.092        2723.451
  23537516.447    23537516.6994   23537519.0244  123690505.181 6  96382232.18343
      2452.322        1910.891
 06  5 11 15 11  0.0000000  0  8G 2G 6G 7G10G13G16G21G27
  24009577.729    24009576.8644   24009577.5514  126171162.862 6  98315204.02442
     -3829.216       -2983.825
  22360202.326    22360202.2764   22360204.1434  117503655.492 7  91561298.29344
     -1878.734       -1463.954
  22803826.350    22803825.9644   22803828.6004  119834971.316 7  93377893.35044
      1996.580        1555.771
  21055675.227    21055674.6954   21055676.5404  110648391.952 8  86219501.16246
       601.822         468.946
  22831799.238    22831799.1634   22831799.5874  119981913.039 7  93492413.19043
     -2853.556       -2223.523
  22345402.803    22345402.3174   22345403.1624  117425907.568 7  91500721.17744
      -232.643        -181.288
  23957177.969    23957177.9004   23957178.6354  125896254.372 6  98100669.06142
      3487.907        2717.904
  23523550.552    23523550.5324   23523553.4264  123617114.376 6  96325044.72243
      2439.978        1901.292
 06  5 11 15 11 30.0000000  0  8G 2G 6G 7G10G13G16G21G27
  24031455.636    24031455.4534   24031455.1774  126286135.681 6  98404793.14042
     -3836.522       -2989.499
  22370973.200    22370973.3094   22370975.3094  117560256.277 7  91605402.31944
     -1895.918       -1477.335
  22792470.324    22792469.4234   22792472.4884  119775292.395 6  93331390.29443
      1980.689        1543.402
  21052298.198    21052297.4684   21052299.4004  110630645.170 8  86205672.47046
       580.012         451.954
  22848127.631    22848128.0304   22848128.8054  120067721.530 7  93559276.92943
     -2868.157       -2234.905
  22346787.683    22346787.1174   22346788.3894  117433185.640 7  91506392.38844
      -253.885        -197.833
  23937287.669    23937286.9804   23937288.7704  125791728.229 6  98019220.15842
      3479.369        2711.198
  23509654.692    23509654.2474   23509656.3544  123544087.305 6  96268140.61943
      2427.407        1891.508
 06  5 11 15 12  0.0000000  0  8G 2G 6G 7G10G13G16G21G27
  24053376.491    24053374.9354   24053375.2934  126401328.226 6  98494553.60242
     -3843.541       -2994.970
  22381841.160    22381841.0054   22381843.1724  117617365.765 7  91649903.02544
     -1912.190       -1490.009
  22781204.825    22781204.4324   22781207.1994  119716092.662 7  93285260.63543
      1965.169        1531.306
  21049045.330    21049044.7114   21049046.5724  110613551.659 8  86192352.81446
       558.684         435.334
  22864540.841    22864541.4164   22864542.5064  120153974.810 6  93626487.26943
     -2882.795       -2246.332
  22348294.111    22348294.2414   22348295.1204  117441103.567 7  91512562.17144
      -274.778        -214.114
  23917444.742    23917444.0684   23917445.2494  125687452.695 6  97937966.56742
      3471.540        2705.096
  23495832.239    23495830.8854   23495833.8134  123471448.879 6  96211539.46043
      2414.514        1881.430
 06  5 11 15 12 30.0000000  0  8G 2G 6G 7G10G13G16G21G27
  24075333.122    24075333.4544   24075333.5154  126516715.385 6  98584465.62342
     -3849.387       -2999.548
  22392800.716    22392800.8744   22392802.7664  117674960.102 7  91694781.74444
     -1927.747       -1502.159
  22770026.753    22770026.4114   22770028.9784  119657351.742 7  93239488.47943
      1950.432        1519.832
  21045912.624    21045912.1884   21045914.0854  110597089.852 8  86179525.39546
       538.396         419.529
  22881034.381    22881034.9244   22881035.1604  120240648.010 7  93694024.78743
     -2896.007       -2256.639
  22349918.372    22349918.2414   22349919.1544  117449638.836 7  91519213.02144
      -294.626        -229.586
  23897645.081    23897645.2064   23897646.1894  125583408.170 6  97856893.01242
      3464.313        2699.448
  23482078.957    23482078.3814   23482080.8704  123399178.797 6  96155225.12343
      2402.992        1872.476
 06  5 11 15 13  0.0000000  0  8G 2G 6G 7G10G13G16G21G27
  24097327.886    24097328.0994   24097328.5794  126632297.830 5  98674529.81442
     -3856.427       -3005.010
  22403852.928    22403852.8594   22403854.7554  117733041.825 7  91740040.91444
     -1944.311       -1515.068
  22758937.192    22758936.8014   22758939.1044  119599075.176 6  93194078.15444
      1934.665        1507.519
  21042901.190    21042900.4844   21042902.3864  110581263.484 8  86167193.12046
       516.782         402.692
  22897607.882    22897608.6134   22897609.1994  120327742.296 6  93761890.47143
     -2910.369       -2267.795
  22351661.331    22351660.7134   22351661.2264  117458794.881 7  91526347.58144
      -315.651        -245.960
  23877891.875    23877891.1754   23877891.7714  125479600.322 6  97776003.88442
      3456.137        2693.104
  23468397.905    23468397.8254   23468399.5134  123327283.244 6  96099202.70043
      2389.978        1862.328
 06  5 11 15 13 30.0000000  0  8G 2G 6G 7G10G13G16G21G27
  24119359.576    24119360.3624   24119359.4934  126748072.362 6  98764743.65442
     -3862.241       -3009.535
  22414997.289    22414997.1074   22414998.7444  117791605.913 7  91785675.43644
     -1960.322       -1527.524
  22747935.641    22747935.2934   22747937.8364  119541263.938 7  93149030.42544
      1919.027        1495.332
  21040010.416    21040009.6214   21040011.7964  110566072.103 8  86155355.62846
       495.610         386.181
  22914261.238    22914261.3684   22914262.0214  120415253.796 6  93830081.19243
     -2924.106       -2278.510
  22353521.589    22353520.9294   22353521.6864  117468570.687 7  91533965.07844
      -336.398        -262.141
  23858182.958    23858182.5794   23858183.3484  125376031.307 6  97695300.84542
      3448.163        2686.883
  23454787.852    23454787.3664   23454789.7504  123255763.028 6  96043472.76443
      2377.648        1852.714
 06  5 11 15 14  0.0000000  0  8G 2G 6G 7G10G13G16G21G27
  24141426.412    24141425.5194   24141425.8764  126864031.761 6  98855101.72742
     -3868.234       -3014.188
  22426232.127    22426232.5454   22426233.6504  117850646.464 7  91831681.13644
     -1975.721       -1539.501
  22737022.982    22737022.2604   22737024.9314  119483914.962 7  93104342.91944
      1904.221        1483.837
  21037239.604    21037239.0734   21037241.2794  110551511.717 8  86144009.78946
       475.089         370.198
  22930991.857    22930991.8854   22930993.2144  120503175.200 7  93898591.37743
     -2937.365       -2288.916
  22355498.316    22355498.3684   22355498.7434  117478960.954 7  91542061.35744
      -356.316        -277.660
  23838519.453    23838518.3304   23838520.5484  125272698.490 6  97614781.79042
      3440.712        2681.031
  23441248.689    23441248.4224   23441250.4934  123184615.479 6  95988033.16643
      2365.523        1843.230
 06  5 11 15 14 30.0000000  0  8G 2G 6G 7G10G13G16G21G27
  24163526.184    24163527.0754   24163526.2874  126980172.245 5  98945600.75542
     -3874.979       -3019.494
  22437557.640    22437557.6004   22437559.5084  117910160.973 7  91878055.87444
     -1992.537       -1552.631
  22726197.591    22726197.4904   22726199.8654  119427029.520 7  93060016.62344
      1887.481        1470.768
  21034588.856    21034588.2884   21034590.5364  110537582.194 8  86133155.58746
       452.923         352.915
  22947799.891    22947800.1184   22947800.5514  120591503.266 7  93967418.35543
     -2951.868       -2300.171
  22357592.300    22357592.0794   22357592.7794  117489964.650 7  91550635.66544
      -377.918        -294.500
  23818900.291    23818901.3634   23818901.8724  125169603.636 6  97534448.17742
      3431.717        2674.027
  23427780.793    23427780.9384   23427782.3814  123113842.054 6  95932885.09643
      2352.171        1832.857
 06  5 11 15 15  0.0000000  0  8G 2G 6G 7G10G13G16G21G27
  24185664.202    24185663.5554   24185664.7474  127096507.306 5  99036251.51142
     -3881.104       -3024.240
  22448975.601    22448975.9834   22448977.8154  117970163.668 7  91924811.09044
     -2008.145       -1564.752
  22715464.215    22715464.1324   22715466.6874  119370624.988 7  93016065.05944
      1872.275        1458.906
  21032061.321    21032060.7584   21032062.8534  110524299.320 8  86122805.29646
       432.168         336.770
  22964688.799    22964688.6574   22964688.7924  120680251.178 7  94036572.69343
     -2965.142       -2310.505
  22359806.140    22359805.3484   22359806.3684  117501596.768 7  91559699.63044
      -397.970        -310.078
  23799331.365    23799330.6654   23799332.1344  125066764.977 6  97454314.23042
      3423.693        2667.785
  23414388.023    23414387.9934   23414389.7224  123043460.149 6  95878041.97943
      2339.632        1823.072
 06  5 11 15 15 30.0000000  0  8G 2G 6G 7G10G13G16G21G27
  24207836.736    24207836.7034   24207838.2774  127213026.880 5  99127046.23742
     -3887.891       -3029.540
  22460484.966    22460485.0044   22460487.1064  118030645.234 7  91971939.55544
     -2024.792       -1577.791
  22704821.761    22704821.0224   22704823.4574  119314695.487 7  92972483.66344
      1855.441        1445.785
  21029655.557    21029654.7064   21029656.7624  110511655.933 8  86112953.30046
       410.128         319.575
  22981654.642    22981654.8124   22981655.8564  120769408.335 6  94106045.81143
     -2979.506       -2321.678
  22362137.180    22362137.1404   22362138.2214  117513849.302 7  91569247.04644
      -419.624        -326.984
  23779810.133    23779809.0804   23779809.7964  124964176.940 6  97374375.56342
      3414.494        2660.687
  23401067.915    23401067.7924   23401069.5994  122973465.008 6  95823500.45443
      2325.949        1812.402
 06  5 11 15 16  0.0000000  0  8G 2G 6G 7G10G13G16G21G27
  24230044.248    24230042.3164   24230044.2434  127329723.019 5  99217978.30842
     -3893.179       -3033.616
  22472084.234    22472083.8204   22472085.9084  118091599.375 7  92019436.45844
     -2039.802       -1589.467
  22694268.348    22694268.1094   22694269.9344  119259238.324 7  92929270.31044
      1840.477        1434.124
  21027370.325    21027369.5834   21027371.7314  110499647.830 8  86103596.33246
       389.634         303.603
  22998696.708    22998697.4804   22998697.1664  120858967.589 6  94175832.22643
     -2992.248       -2331.632
  22364586.163    22364586.2094   22364586.5254  117526717.544 7  91579274.23444
      -439.337        -342.363
  23760334.504    23760334.3514   23760336.4024  124861837.891 6  97294630.86842
      3406.698        2654.534
  23387821.646    23387821.1644   23387822.9824  122903852.955 6  95769257.30643
      2313.839        1802.988
 06  5 11 15 16 30.0000000  0  8G 2G 6G 7G10G13G16G21G27
  24252281.769    24252281.3784   24252281.1494  127446586.977 5  99309041.11442
     -3898.779       -3038.051
  22483771.568    22483771.5294   22483773.4724  118153017.007 7  92067294.23844
     -2055.559       -1601.717
  22683804.265    22683803.7254   22683805.8374  119204248.946 7  92886421.46344
      1824.515        1421.683
  21025204.974    21025204.4074   21025206.3004  110488268.847 8  86094729.60146
       368.198         286.901
  23015814.307    23015814.6984   23015815.3084  120948919.975 7  94245924.98843
     -3005.555       -2342.009
  22367150.877    22367150.9434   22367151.4844  117540194.442 7  91589775.69444
      -460.042        -358.509
  23740907.181    23740906.5334   23740908.0624  124759744.096 6  97215077.28542
      3398.418        2648.095
  23374647.059    23374646.1484   23374648.9214  122834620.417 6  95715309.88943
      2300.842        1792.854
 06  5 11 15 17  0.0000000  0  8G 2G 6G 7G10G13G16G21G27
  24274555.208    24274555.5514   24274555.8044  127563630.806 6  99400243.96042
     -3904.666       -3042.591
  22495549.946    22495549.9844   22495551.4784  118214910.992 7  92115522.90144
     -2071.183       -1613.871
  22673432.308    22673431.4684   22673434.0844  119149743.601 7  92843949.75944
      1808.695        1409.382
  21023162.367    21023161.6744   21023163.7764  110477533.989 8  86086364.73046
       346.933         270.384
  23033008.618    23033009.7874   23033009.6774  121039277.397 7  94316333.24743
     -3018.630       -2352.134
  22369833.942    22369833.7564   22369834.4634  117554294.187 7  91600762.49344
      -480.409        -374.323
  23721529.983    23721528.2864   23721530.5614  124657912.787 6  97135728.30642
      3389.852        2641.514
  23361547.876    23361547.4434   23361549.8004  122765783.831 6  95661671.10143
      2287.810        1782.749
 06  5 11 15 17 30.0000000  0  8G 2G 6G 7G10G13G16G21G27
  24296862.200    24296862.4524   24296862.7394  127680858.861 6  99491590.32842
     -3911.244       -3047.756
  22507419.802    22507419.6824   22507421.5274  118277287.473 7  92164127.89344
     -2087.757       -1626.841
  22663154.248    22663153.6304   22663156.0834  119095731.095 7  92801862.06144
      1791.734        1396.156
  21021243.779    21021242.8534   21021244.8554  110467450.663 8  86078507.59546
       324.807         253.112
  23050280.899    23050281.4094   23050282.8684  121130044.207 7  94387060.57243
     -3032.836       -2363.244
  22372636.752    22372636.5984   22372637.2634  117569023.116 7  91612239.55344
      -501.921        -391.099
  23702203.322    23702203.4814   23702203.8104  124556352.884 6  97056590.71842
      3380.333        2634.016
  23348525.718    23348525.6634   23348527.2844  122697352.117 7  95608347.65143
      2273.830        1771.846
 06  5 11 15 18  0.0000000  0  8G 2G 6G 7G10G13G16G21G27
  24319202.548    24319204.4144   24319204.8894  127798259.119 5  99583070.85242
     -3915.601       -3051.133
  22519379.168    22519378.9974   22519380.9594  118340134.662 7  92213099.90544
     -2102.460       -1638.278
  22652967.875    22652967.7834   22652969.8704  119042203.514 7  92760152.24744
      1776.216        1384.082
  21019447.019    21019446.2304   21019448.2244  110458009.370 8  86071150.75646
       304.196         237.027
  23067628.625    23067628.7634   23067630.1324  121221208.281 7  94458097.54743
     -3045.172       -2372.858
  22375557.420    22375557.3694   22375557.5814  117584371.175 7  91624199.07044
      -521.830        -406.607
  23682927.645    23682926.8204   23682927.5854  124455057.482 6  96977659.27942
      3372.313        2627.782
  23335578.749    23335579.0414   23335580.2444  122629317.533 6  95555333.64743
      2261.445        1762.180
 06  5 11 15 18 30.0000000  0  8G 2G 6G 7G10G13G16G21G27
  24341574.640    24341574.2584   24341575.4634  127915819.821 5  99674676.42042
     -3922.274       -3056.256
  22531425.435    22531426.1894   22531427.8224  118403439.919 7  92262428.42244
     -2118.419       -1650.679
  22642872.863    22642872.1114   22642874.5804  118989153.047 7  92718814.21844
      1759.646        1371.166
  21017770.627    21017769.9524   21017772.0104  110449201.098 8  86064287.22646
       282.367         220.044
  23085050.395    23085050.4254   23085051.0564  121312757.230 6  94529434.34243
     -3058.758       -2383.467
  22378594.108    22378593.7814   22378594.5854  117600328.164 7  91636633.05744
      -542.651        -422.860
  23663700.004    23663700.1884   23663701.1474  124354019.610 6  96898928.44542
      3362.919        2620.446
  23322706.765    23322706.4954   23322708.1004  122561672.561 6  95502623.09243
      2247.549        1751.320
 06  5 11 15 19  0.0000000  0  8G 2G 6G 7G10G13G16G21G27
  24363977.413    24363977.5054   24363977.5444  128033548.244 5  99766412.73542
     -3927.305       -3060.260
  22543561.225    22543561.8104   22543563.7044  118467212.524 7  92312121.10444
     -2133.838       -1662.765
  22632870.538    22632869.9944   22632872.7974  118936591.885 7  92677857.47344
      1743.543        1358.629
  21016217.075    21016216.1704   21016218.3414  110441036.200 8  86057925.01746
       261.094         203.444
  23102546.182    23102546.7334   23102547.3564  121404698.645 6  94601076.92443
     -3071.434       -2393.304
  22381748.780    22381748.1024   22381748.8384  117616904.014 7  91649549.28944
      -563.162        -438.833
  23644524.564    23644524.9524   23644525.1594  124253251.909 6  96820408.10042
      3354.107        2613.571
  23309910.998    23309910.7684   23309912.9784  122494430.196 7  95450226.35443
      2234.407        1741.063
 06  5 11 15 19 30.0000000  0  9G 2G 6G 7G 8G10G13G16G21G27
  24386412.933    24386412.4694   24386413.5644  128151443.154 5  99858278.72342
     -3933.039       -3064.668
  22555786.050    22555786.0524   22555787.7214  118531452.070 7  92362177.73144
     -2149.698       -1675.078
  22622962.186    22622961.7994   22622963.9044  118884523.139 7  92637284.45844
      1726.973        1345.708
  24911944.479    24911943.7524   24911947.2754  130913151.543 5 102010280.52841
      3880.554        3023.849
  21014786.033    21014785.1734   21014787.2144  110433516.173 8  86052065.26246
       239.297         186.466
  23120116.668    23120117.4334   23120117.7164  121497031.074 6  94673024.06943
     -3084.579       -2403.581
  22385020.210    22385020.0194   22385020.9824  117634099.161 7  91662948.09544
      -583.971        -455.042
  23625401.719    23625401.6024   23625402.1994  124152758.621 6  96742101.60542
      3344.718        2606.265
  23297192.240    23297192.1014   23297193.9504  122427593.054 6  95398145.50343
      2220.761        1730.451
 06  5 11 15 20  0.0000000  0  9G 2G 6G 7G 8G10G13G16G21G27
  24408877.637    24408877.9414   24408878.3774  128269499.217 5  99950270.37842
     -3938.349       -3068.832
  22568098.020    22568098.2324   22568100.5044  118596153.610 6  92412594.53544
     -2164.757       -1686.817
  22613147.015    22613147.3074   22613149.2344  118832944.946 7  92597093.66944
      1710.712        1333.019
  24889803.352    24889802.8094   24889806.4324  130796795.683 5 101919613.72341
      3875.475        3019.926
  21013476.992    21013476.3354   21013478.3394  110426637.795 8  86046705.44046
       218.274         170.076
  23137760.719    23137760.5094   23137761.9894  121589749.043 6  94745271.75443
     -3097.405       -2413.566
  22388409.722    22388409.4314   22388410.3184  117651910.155 7  91676826.79144
      -604.281        -470.872
  23606331.006    23606329.7314   23606331.3004  124052539.083 6  96664008.50642
      3335.590        2599.154
  23284550.564    23284549.9914   23284551.9034  122361159.664 7  95346379.22943
      2207.361        1720.026
 06  5 11 15 20 30.0000000  0  9G 2G 6G 7G 8G10G13G16G21G27
  24431371.620    24431370.7834   24431371.6464  128387700.076 5 100042374.69242
     -3942.920       -3072.379
  22580495.311    22580495.3934   22580497.2974  118661301.919 7  92463359.57444
     -2179.347       -1698.156
  22603423.776    22603423.2124   22603425.9584  118781846.128 7  92557276.45144
      1694.801        1320.615
  24867688.396    24867688.2344   24867690.5874  130680583.560 5 101829058.83941
      3870.824        3016.258
  21012287.873    21012287.1724   21012289.0464  110420388.529 8  86041835.89346
       197.488         153.891
  23155474.433    23155474.1104   23155475.0814  121682836.697 6  94817807.56843
     -3109.528       -2423.032
  22391913.393    22391913.5644   22391914.0844  117670323.177 7  91691174.60744
      -624.234        -486.432
  23587309.829    23587309.6284   23587309.6294  123952582.416 6  96586120.24142
      3327.044        2592.473
  23271983.377    23271983.2244   23271985.1294  122295119.140 7  95294919.02143
      2194.197        1709.760
 06  5 11 15 21  0.0000000  0  9G 2G 6G 7G 8G10G13G16G21G27
  24453894.896    24453896.3014   24453896.0274  128506067.811 5 100134609.13242
     -3948.905       -3077.099
  22592981.932    22592982.0984   22592983.9104  118726918.491 7  92514489.28444
     -2195.587       -1710.880
  22593795.532    22593795.2814   22593797.9384  118731252.295 7  92517852.72844
      1677.378        1307.011
  24845606.546    24845606.0874   24845608.7844  130564542.148 5 101738637.05841
      3864.694        3011.393
  21011223.048    21011222.2494   21011224.3904  110414792.510 8  86037475.38546
       175.051         136.365
  23173262.422    23173263.0684   23173264.4604  121776315.259 6  94890647.97843
     -3122.947       -2433.467
  22395536.439    22395536.3304   22395536.7994  117689361.312 7  91706009.53944
      -645.552        -503.076
  23568343.935    23568343.1504   23568343.4024  123852915.286 6  96508457.62542
      3316.819        2584.508
  23259495.925    23259495.5814   23259498.0454  122229497.706 6  95243785.40443
      2179.899        1698.626
 06  5 11 15 21 30.0000000  0  9G 2G 6G 7G 8G10G13G16G21G27
  24476453.716    24476453.4614   24476453.3124  128624607.191 6 100226977.32542
     -3954.007       -3081.064
  22605558.912    22605558.7374   22605561.0854  118793008.895 7  92565988.10643
     -2210.977       -1722.865
  22584265.767    22584265.5804   22584267.9424  118681172.688 7  92478829.67644
      1660.518        1293.896
  24823558.675    24823559.2404   24823560.7414  130448681.613 5 101648356.19941
      3859.008        3006.953
  21010283.579    21010283.0434   21010285.1354  110409857.068 8  86033629.56046
       153.400         119.517
  23191126.532    23191126.7024   23191127.8744  121870189.350 6  94963796.45443
     -3135.814       -2443.512
  22399279.750    22399279.6244   22399280.2804  117709031.488 7  91721336.95144
      -666.442        -519.332
  23549433.764    23549433.6704   23549434.8274  123753547.504 6  96431028.26343
      3307.118        2576.945
  23247089.943    23247090.1834   23247092.5444  122164304.655 7  95192985.59743
      2165.884        1687.684
